     2              OBSERVATION DATA    G (GPS)             RINEX VERSION / TYPE
ASRINEXO V2.9.9 LH AIUB 01-FEB- 1 17:12                     PGM / RUN BY / DATE
BERN ASHTECH Z-12                                           COMMENT
BIT 2 OF LLI (+4) FLAGS DATA COLLECTED UNDER "AS" CONDITION COMMENT
USNB                                                        MARKER NAME
                                                            OBSERVER / AGENCY
? ASHTECH Z-XII3 1D15                                       REC # / TYPE / VERS
? CHOKE RING                                                ANT # / TYPE
  1112164.9700 -4842857.8600  3985502.9600                  APPROX POSITION XYZ
        0.0000        0.0000        0.0000                  ANTENNA: DELTA H/E/N
     1     1                                                WAVELENGTH FACT L1/2
     5    C1    L1    L2    P1    P2                        # / TYPES OF OBSERV
  2000     6    23     0     0   30.000000                  TIME OF FIRST OBS
                                                            END OF HEADER
 00  6 23  0  0 30.0000000  0  8 25 09 05 21 29 15 30 23
  23499229.081   -10217038.763 8  -7945437.23546  23499235.610    23499248.4874
  23410721.681    -5628849.721 8  -4366274.64246  23410731.094    23410742.9054
  22467949.923   -14375037.091 8 -11180795.09246  22467954.601    22467964.8104
  20218829.007   -25965949.137 9 -20216505.52748  20218830.813    20218839.0664
  20644537.072   -22465024.295 9 -17484323.36948  20644541.678    20644549.4984
  21387248.446   -15917891.772 9 -12378721.03447  21387251.871    21387261.2204
  22997733.195    -8400523.868 8  -6528194.25946  22997738.978    22997749.0174
  21507269.703   -18785314.652 8 -14619985.21647  21507271.316    21507280.7314
 00  6 23  0  1  0.0000000  0  8 25 09 05 21 29 15 30 23
  23481380.535   -10310855.815 8  -8018541.19546  23481383.119    23481396.2204
  23430387.908    -5525520.224 8  -4285758.25346  23430394.515    23430405.6404
  22463017.396   -14400952.313 8 -11200988.73546  22463023.668    22463033.5244
  20214367.088   -25989393.366 9 -20234773.74448  20214369.583    20214377.7804
  20641222.842   -22482440.361 9 -17497894.29648  20641227.378    20641235.3434
  21392213.931   -15891792.432 8 -12358383.88347  21392217.357    21392227.8374
  22981784.859    -8484331.154 8  -6593498.47446  22981790.037    22981801.2814
  21518506.235   -18726258.874 8 -14573967.77947  21518509.169    21518519.0264
 00  6 23  0  1 30.0000000  0  8 25 09 05 21 29 15 30 23
  23463567.004   -10404467.025 8  -8091484.76646  23463569.105    23463582.0374
  23450085.108    -5422029.024 8  -4205115.85746  23450089.100    23450099.7204
  22458190.236   -14426343.740 8 -11220774.21046  22458191.786    22458202.1084
  20209994.355   -26012367.367 9 -20252675.54348  20209997.480    20210006.0084
  20637947.546   -22499652.797 9 -17511306.56848  20637951.723    20637959.8054
  21397296.459   -15865082.867 8 -12337571.24247  21397299.794    21397310.8064
  22965889.551    -8567881.528 8  -6658602.48446  22965890.496    22965901.2924
  21529818.584   -18666815.296 8 -14527648.16747  21529821.277    21529830.5724
 00  6 23  0  2  0.0000000  0  8 25 09 05 21 29 15 30 23
  23445791.132   -10497871.249 8  -8164267.04246  23445794.995    23445806.5144
  23469812.771    -5318378.491 8  -4124349.26646  23469813.493    23469823.2854
  22453459.075   -14451210.215 8 -11240150.62946  22453459.955    22453470.3254
  20205711.567   -26034868.861 9 -20270209.16348  20205715.582    20205724.0984
  20634712.998   -22516661.065 9 -17524559.74548  20634715.384    20634723.2724
  21402495.307   -15837764.317 8 -12316284.06247  21402498.432    21402509.1974
  22950042.736    -8651171.603 8  -6723503.68546  22950041.183    22950051.7004
  21541206.052   -18606984.197 8 -14481026.59347  21541206.640    21541216.6794
 00  6 23  0  2 30.0000000  0  8 25 09 05 21 29 15 30 23
  23428052.091   -10591067.281 8  -8236887.09646  23428060.006    23428072.5114
  23489563.789    -5214571.262 8  -4043460.56145  23489567.192    23489577.3504
  22448826.379   -14475550.168 8 -11259116.76846  22448828.177    22448838.3864
  20201520.056   -26056896.193 9 -20287373.30848  20201523.894    20201532.6094
  20631513.735   -22533465.330 9 -17537653.96448  20631517.703    20631525.5094
  21407811.200   -15809838.235 9 -12294523.47747  21407813.337    21407823.2594
  22934241.034    -8734198.157 8  -6788199.54746  22934242.851    22934251.7324
  21552663.483   -18546766.100 8 -14434103.45347  21552665.743    21552676.0794
 00  6 23  0  3  0.0000000  0  8 25 09 05 21 29 15 30 23
  23410365.377   -10684053.409 8  -8309343.57046  23410365.358    23410377.0134
  23509344.442    -5110609.817 8  -3962451.74546  23509349.777    23509361.0404
  22444293.105   -14499361.847 8 -11277671.25746  22444295.687    22444306.3094
  20197420.085   -26078447.608 9 -20304166.61448  20197423.131    20197431.5214
  20628355.051   -22550065.707 9 -17550589.30348  20628358.577    20628366.4774
  21413236.718   -15781306.010 8 -12272290.56847  21413241.920    21413252.8914
  22918488.141    -8816958.216 8  -6852687.78146  22918492.951    22918503.1954
  21564196.294   -18486161.541 8 -14386879.18947  21564198.724    21564208.0264
 00  6 23  0  3 30.0000000  0  8 25 09 05 21 29 15 30 23
  23392706.977   -10776828.148 8  -8381635.36146  23392711.113    23392722.8514
  23529160.228    -5006496.771 8  -3881324.79446  23529162.262    23529173.2334
  22439859.967   -14522643.927 8 -11295813.08046  22439865.681    22439876.5864
  20193410.860   -26099521.797 9 -20320588.04448  20193412.712    20193421.1694
  20625237.263   -22566462.118 9 -17563365.72348  20625238.707    20625246.3954
  21418780.988   -15752169.192 8 -12249586.56647  21418786.948    21418797.5764
  22902795.236    -8899448.651 8  -6916965.88046  22902795.499    22902806.2094
  21575800.017   -18425171.060 8 -14339354.20047  21575804.236    21575814.4384
 00  6 23  0  4  0.0000000  0  8 25 09 05 21 29 15 30 23
  23375093.676   -10869390.134 8  -8453761.37046  23375096.879    23375108.3614
  23548991.226    -4902234.594 8  -3800081.62945  23549003.122    23549013.4244
  22435531.315   -14545395.044 8 -11313541.17546  22435537.218    22435546.2104
  20189490.487   -26120116.237 9 -20336635.64748  20189493.694    20189502.1404
  20622154.717   -22582654.644 9 -17575983.29048  20622157.655    20622165.2264
  21424444.464   -15722429.353 9 -12226412.67447  21424446.582    21424456.7604
  22887151.771    -8981666.318 8  -6981031.45446  22887149.436    22887161.3064
  21587478.288   -18363795.072 8 -14291528.81147  21587483.635    21587493.6634
 00  6 23  0  4 30.0000000  0  8 25 09 05 21 29 15 30 23
  23357517.378   -10961737.932 8  -8525720.46646  23357522.803    23357535.4284
  23568872.173    -4797825.914 8  -3718724.27645  23568872.217    23568881.5554
  22431306.940   -14567613.765 8 -11330854.40746  22431308.471    22431318.4224
  20185663.970   -26140229.203 9 -20352308.07348  20185666.447    20185674.8264
  20619112.566   -22598643.135 9 -17588441.85848  20619114.838    20619122.6224
  21430218.846   -15692088.003 9 -12202770.08747  21430220.232    21430230.3674
  22871556.556    -9063608.115 8  -7044882.04346  22871555.918    22871567.2584
  21599232.773   -18302034.223 8 -14243403.53447  21599236.677    21599246.2784
 00  6 23  0  5  0.0000000  0  9 11 25 09 05 21 29 15 30 23
  24558649.778    -1461289.81317  -1123491.80155  24558653.931    24558667.3454
  23339985.798   -11053870.168 8  -8597511.55446  23339990.460    23340003.0654
  23588769.895    -4693272.796 8  -3637254.37845  23588767.474    23588778.2784
  22427181.577   -14589298.698 8 -11347751.70546  22427182.199    22427192.4574
  20181927.500   -26159859.329 9 -20367604.26448  20181930.689    20181939.0524
  20616108.419   -22614427.729 9 -17600741.54548  20616111.478    20616118.9024
  21436106.796   -15661146.783 9 -12178660.06747  21436108.630    21436117.5494
  22856014.100    -9145270.523 8  -7108514.93546  22856016.384    22856027.3334
  21611058.536   -18239888.924 8 -14194978.68947  21611062.557    21611072.6064
 00  6 23  0  5 30.0000000  0  9 11 25 09 05 21 29 15 30 23
  24546754.485    -1523788.127 7  -1172191.77345  24546762.084    24546771.9494
  23322501.826   -11145785.446 8  -8669133.62646  23322500.289    23322511.7784
  23608691.394    -4588577.883 8  -3555674.02946  23608690.481    23608701.1814
  22423152.177   -14610448.542 8 -11364232.05446  22423156.555    22423167.5794
  20178284.749   -26179005.240 9 -20382523.15048  20178287.470    20178295.9094
  20613143.129   -22630008.375 9 -17612882.32148  20613146.240    20613154.0984
  21442107.382   -15629607.163 8 -12154083.77347  21442110.170    21442119.5984
  22840528.457    -9226651.040 8  -7171928.17546  22840530.437    22840540.9784
  21622957.312   -18177359.900 8 -14146254.83647  21622961.807    21622971.0714
 00  6 23  0  6  0.0000000  0  9 11 25 09 05 21 29 15 30 23
  24534949.547    -1585858.945 7  -1220558.64445  24534946.951    24534961.1854
  23305044.183   -11237482.727 8  -8740585.84946  23305050.801    23305062.2974
  23628635.959    -4483743.671 8  -3473985.10446  23628640.286    23628650.5144
  22419233.974   -14631061.779 8 -11380294.25046  22419234.001    22419244.3414
  20174733.803   -26197665.205 9 -20397063.38148  20174736.595    20174744.8414
  20610214.848   -22645385.133 9 -17624864.21948  20610220.130    20610227.9174
  21448222.467   -15597470.736 8 -12129042.42447  21448225.402    21448235.3424
  22825092.447    -9307746.350 8  -7235119.19046  22825098.107    22825109.0904
  21634929.846   -18114447.606 8 -14097232.31847  21634933.949    21634942.7804
 00  6 23  0  6 30.0000000  0  9 11 25 09 05 21 29 15 30 23
  24523217.509    -1647500.199 7  -1268590.81245  24523219.472    24523232.1724
  23287640.592   -11328960.136 8  -8811866.72446  23287642.722    23287654.6984
  23648610.214    -4378772.673 8  -3392189.59145  23648614.883    23648625.4084
  22415413.970   -14651137.084 8 -11395937.30546  22415414.024    22415424.6334
  20171275.105   -26215837.304 9 -20411223.45648  20171278.364    20171286.7924
  20607329.989   -22660557.718 9 -17636687.02348  20607332.814    20607340.7174
  21454452.295   -15564738.984 8 -12103537.19847  21454454.424    21454463.8124
  22809717.608    -9388553.221 8  -7298085.45346  22809721.970    22809731.4324
  21646973.762   -18051152.637 8 -14047911.62247  21646978.614    21646987.5574
 00  6 23  0  7  0.0000000  0  9 11 25 09 05 21 29 15 30 23
  24511571.713    -1708710.101 7  -1316286.78545  24511571.877    24511584.0604
  23270277.282   -11420216.748 8  -8882975.56446  23270277.197    23270288.7814
  23668619.523    -4273667.076 8  -3310289.20345  23668615.330    23668626.8594
  22411696.505   -14670673.126 8 -11411160.14946  22411696.682    22411706.6984
  20167910.163   -26233519.657 9 -20425001.92448  20167913.414    20167921.9454
  20604480.735   -22675526.451 9 -17648350.98648  20604484.068    20604492.2934
  21460793.190   -15531413.706 9 -12077569.50047  21460795.718    21460805.8544
  22794395.083    -9469068.447 8  -7360824.45946  22794399.384    22794409.6364
  21659094.679   -17987475.519 8 -13998293.14047  21659095.594    21659105.6204
 00  6 23  0  7 30.0000000  0  9 11 25 09 05 21 29 15 30 23
  24500002.458    -1769487.019 7  -1363645.45545  24500007.424    24500017.8844
  23252948.590   -11511250.806 8  -8953910.98946  23252953.368    23252965.2694
  23688643.855    -4168429.635 8  -3228286.08245  23688641.876    23688652.6404
  22408077.893   -14689668.762 8 -11425961.89946  22408082.133    22408092.0134
  20164639.590   -26250710.603 9 -20438397.47448  20164642.163    20164650.6894
  20601672.167   -22690290.956 9 -17659855.80148  20601674.633    20601682.5744
  21467246.651   -15497496.441 8 -12051140.51047  21467250.377    21467259.9604
  22779127.598    -9549289.229 8  -7423334.02946  22779134.125    22779143.6894
  21671282.803   -17923416.907 8 -13948377.40847  21671285.502    21671295.5124
 00  6 23  0  8  0.0000000  0  9 11 25 09 05 21 29 15 30 23
  24488522.159    -1829829.119 7  -1410665.28745  24488523.395    24488534.2214
  23235671.543   -11602060.795 8  -9024671.83346  23235672.699    23235684.6444
  23708689.767    -4063062.788 8  -3146182.13945  23708692.456    23708703.7434
  22404568.850   -14708122.779 8 -11440341.60546  22404570.356    22404580.2024
  20161461.044   -26267408.628 9 -20451408.92848  20161464.585    20161473.3134
  20598901.062   -22704851.358 9 -17671201.56748  20598903.940    20598911.8394
  21473816.817   -15462989.135 8 -12024251.75947  21473816.540    21473827.0324
  22763924.585    -9629212.178 8  -7485611.49246  22763924.560    22763935.6764
  21683546.889   -17858977.513 8 -13898164.95647  21683547.887    21683558.4524
 00  6 23  0  8 30.0000000  0  9 11 25 09 05 21 29 15 30 23
  24477121.206    -1889734.620 7  -1457344.88445  24477124.659    24477134.7584
  23218429.151   -11692645.649 8  -9095257.24246  23218435.119    23218446.9204
  23728762.092    -3957568.848 8  -3063979.16145  23728766.789    23728779.1214
  22401159.524   -14726033.886 8 -11454298.25946  22401162.205    22401171.8924
  20158378.077   -26283612.182 9 -20464035.09048  20158381.068    20158389.8014
  20596168.579   -22719207.562 9 -17682388.22748  20596171.869    20596180.0464
  21480492.019   -15427893.620 8 -11996904.64747  21480494.949    21480505.2584
  22748768.914    -9708834.524 8  -7547654.74046  22748773.415    22748783.3514
  21695877.571   -17794157.948 8 -13847656.26947  21695882.778    21695892.7904
 00  6 23  0  9  0.0000000  0  9 11 25 09 05 21 29 15 30 23
  24465802.363    -1949201.665 7  -1503682.83345  24465806.710    24465819.3124
  23201241.162   -11783003.614 8  -9165665.87046  23201241.014    23201251.9944
  23748863.329    -3851950.075 8  -2981678.91945  23748865.727    23748877.9504
  22397851.127   -14743400.819 8 -11467830.89946  22397857.239    22397867.2134
  20155389.344   -26299319.802 9 -20476274.80248  20155392.119    20155400.6684
  20593475.778   -22733359.584 9 -17693415.77548  20593478.944    20593487.0554
  21487282.558   -15392211.342 8 -11969100.31547  21487285.251    21487294.9184
  22733681.144    -9788153.163 8  -7609461.34646  22733680.108    22733690.0584
  21708288.253   -17728958.885 8 -13796851.87147  21708290.164    21708300.2144
 00  6 23  0  9 30.0000000  0  9 11 25 09 05 21 29 15 30 23
  24454578.683    -2008228.602 8  -1549677.79845  24454575.851    24454585.4024
  23184085.910   -11873133.856 8  -9235897.04546  23184088.898    23184100.6204
  23768988.904    -3746208.882 8  -2899283.25145  23768987.288    23768999.0294
  22394652.096   -14760222.230 8 -11480938.47546  22394656.383    22394665.7374
  20152495.695   -26314529.681 9 -20488126.65848  20152498.018    20152506.2544
  20590821.807   -22747307.475 9 -17704284.25648  20590824.977    20590832.4974
  21494185.019   -15355944.178 8 -11940840.22747  21494186.687    21494196.1754
  22718634.818    -9867164.754 8  -7671028.66346  22718643.515    22718653.9804
  21720767.041   -17663381.067 8 -13745752.33447  21720769.352    21720779.4904
 00  6 23  0 10  0.0000000  0  9 11 25 09 05 21 29 15 30 23
  24443419.603    -2066813.559 7  -1595328.36845  24443427.772    24443436.1554
  23166972.996   -11963034.918 8  -9305949.62446  23166981.140    23166992.5644
  23789125.104    -3640347.676 8  -2816794.12045  23789131.994    23789144.1504
  22391556.996   -14776497.186 8 -11493620.24246  22391559.191    22391568.9604
  20149695.718   -26329240.277 9 -20499589.46848  20149698.707    20149707.1224
  20588205.650   -22761050.902 9 -17714993.41148  20588209.455    20588217.1324
  21501199.491   -15319094.157 9 -11912125.96147  21501199.410    21501208.9754
  22703669.831    -9945866.255 8  -7732354.36146  22703667.058    22703677.7604
  21733319.406   -17597425.102 8 -13694358.14147  21733320.080    21733330.1474
 00  6 23  0 10 30.0000000  0  9 11 25 09 05 21 29 15 30 23
  24432359.393    -2124955.005 7  -1640633.35845  24432363.048    24432373.3284
  23149915.370   -12052705.407 8  -9375822.54546  23149917.450    23149928.9414
  23809300.142    -3534368.913 8  -2734213.36645  23809299.699    23809311.0264
  22388564.041   -14792224.604 8 -11505875.35946  22388565.634    22388576.3624
  20146990.505   -26343450.291 9 -20510662.21348  20146994.452    20147002.9704
  20585628.524   -22774590.089 9 -17725543.42148  20585632.865    20585640.8434
  21508319.729   -15281662.977 9 -11882958.83447  21508322.617    21508332.0214
  22688746.410   -10024254.807 8  -7793436.21046  22688750.832    22688760.5424
  21745940.886   -17531091.621 8 -13642669.78247  21745942.790    21745952.6854
 00  6 23  0 11  0.0000000  0  9 11 25 09 05 21 29 15 30 23
  24421386.748    -2182651.175 8  -1685591.37945  24421383.894    24421394.7334
  23132892.693   -12142144.128 8  -9445514.87646  23132897.423    23132908.8664
  23829486.005    -3428274.711 8  -2651542.64045  23829489.005    23829500.8224
  22385671.941   -14807403.202 8 -11517702.82346  22385677.604    22385687.7834
  20144382.964   -26357157.951 9 -20521343.51048  20144386.091    20144394.4434
  20583092.793   -22787924.942 9 -17735934.20248  20583095.528    20583103.4934
  21515550.162   -15243652.366 8 -11853340.19547  21515554.841    21515565.2504
  22673893.284   -10102327.161 8  -7854271.66646  22673893.827    22673903.1734
  21758635.218   -17464381.367 8 -13590687.82547  21758637.802    21758647.3804
 00  6 23  0 11 30.0000000  0  9 11 25 09 05 21 29 15 30 23
  24410481.979    -2239900.530 7  -1730201.22945  24410489.552    24410498.6324
  23115917.184   -12231349.488 8  -9515025.35946  23115922.000    23115934.0944
  23849696.177    -3322067.586 7  -2568783.93845  23849699.195    23849710.2074
  22382891.290   -14822032.121 8 -11529101.96846  22382893.978    22382904.5334
  20141870.933   -26370361.886 9 -20531632.29948  20141873.559    20141881.8884
  20580594.117   -22801055.179 9 -17746165.54348  20580596.958    20580604.7634
  21522894.637   -15205064.375 8 -11823271.65947  21522897.565    21522908.4334
  22659091.947   -10180080.501 8  -7914858.53846  22659097.450    22659107.1534
  21771400.152   -17397295.069 8 -13538412.86147  21771403.718    21771413.1144
 00  6 23  0 12  0.0000000  0  9 11 25 09 05 21 29 15 30 23
  24399676.228    -2296701.359 7  -1774461.50545  24399682.576    24399691.7074
  23098984.527   -12320320.039 8  -9584352.88346  23098990.712    23099002.6474
  23869930.740    -3215749.867 8  -2485939.06445  23869931.022    23869941.8144
  22380213.192   -14836110.162 8 -11540071.87746  22380215.211    22380224.5294
  20139455.099   -26383060.124 9 -20541527.02848  20139457.227    20139465.5294
  20578134.428   -22813980.942 9 -17756237.54748  20578137.023    20578145.0744
  21530348.322   -15165901.004 8 -11792754.77047  21530350.924    21530360.6884
  22644361.017   -10257511.460 8  -7975194.19046  22644362.967    22644372.5544
  21784238.596   -17329833.460 8 -13485845.44047  21784241.053    21784250.8424
 00  6 23  0 12 30.0000000  0  9 11 25 09 05 21 29 15 30 23
  24388952.697    -2353052.020 7  -1818371.04945  24388956.957    24388967.6354
  23082100.560   -12409054.839 8  -9653496.70246  23082106.220    23082117.1834
  23890189.458    -3109324.056 8  -2403009.92845  23890183.513    23890194.2604
  22377643.773   -14849636.193 8 -11550611.60646  22377641.230    22377650.4334
  20137134.916   -26395251.448 9 -20551026.75848  20137137.362    20137145.6044
  20575713.699   -22826702.157 9 -17766150.17048  20575716.289    20575724.3564
  21537909.734   -15126164.001 8 -11761790.88247  21537912.644    21537922.4074
  22629688.637   -10334617.241 8  -8035276.47446  22629690.306    22629699.7624
  21797145.549   -17261997.173 8 -13432986.04747  21797150.110    21797159.9584
 00  6 23  0 13  0.0000000  0  9 11 25 09 05 21 29 15 30 23
  24378309.909    -2408950.706 7  -1861928.39745  24378319.658    24378329.9834
  23065262.478   -12497552.706 8  -9722455.91946  23065265.145    23065276.2504
  23910455.531    -3002792.570 8  -2319998.46945  23910456.227    23910466.7214
  22375170.681   -14862609.177 8 -11560720.37746  22375172.295    22375182.4024
  20134910.691   -26406934.557 9 -20560130.47248  20134914.005    20134922.3304
  20573332.845   -22839218.743 9 -17775903.34048  20573334.351    20573342.4374
  21545578.881   -15085855.386 8 -11730381.58747  21545582.764    21545593.7654
  22615075.796   -10411394.620 8  -8095102.85446  22615079.305    22615089.6524
  21810125.881   -17193786.990 8 -13379835.33447  21810129.962    21810139.8704
 00  6 23  0 13 30.0000000  0  9 11 25 09 05 21 29 15 30 23
  24367772.156    -2464396.167 7  -1905132.57645  24367768.286    24367780.6344
  23048464.969   -12585812.415 8  -9791229.54146  23048469.590    23048481.2174
  23930744.742    -2896157.664 8  -2236906.42245  23930747.757    23930757.7274
  22372805.693   -14875028.293 8 -11570397.56746  22372809.118    22372819.1104
  20132785.326   -26418107.430 9 -20568836.59848  20132787.433    20132796.2774
  20570986.837   -22851530.576 9 -17785496.96248  20570991.334    20570999.6254
  21553360.091   -15044977.001 8 -11698528.33247  21553361.747    21553371.5814
  22600526.024   -10487840.616 8  -8154671.00346  22600532.452    22600542.3104
  21823177.422   -17125203.815 8 -13326393.97047  21823180.904    21823190.9784
 00  6 23  0 14  0.0000000  0  9 11 25 09 05 21 29 15 30 23
  24357297.623    -2519386.311 7  -1947981.95845  24357304.426    24357315.9624
  23031714.815   -12673832.462 8  -9859816.42446  23031719.793    23031730.7974
  23951057.017    -2789421.642 8  -2153735.58445  23951059.626    23951070.0574
  22370547.981   -14886892.543 8 -11579642.38446  22370551.166    22370561.7054
  20130755.896   -26428768.665 9 -20577144.04248  20130758.783    20130767.4434
  20568683.817   -22863637.549 9 -17794930.94748  20568687.772    20568695.8164
  21561245.526   -15003530.991 8 -11666232.75647  21561248.526    21561258.9004
  22586049.675   -10563952.218 8  -8213978.59846  22586048.365    22586058.3944
  21836299.303   -17056248.519 8 -13272662.64047  21836302.971    21836312.7234
 00  6 23  0 14 30.0000000  0  9 11 25 09 05 21 29 15 30 23
  24346920.139    -2573919.732 7  -1990475.47545  24346927.550    24346936.8904
  23015015.459   -12761611.304 8  -9928215.33046  23015015.468    23015027.4294
  23971391.603    -2682586.552 8  -2070487.57245  23971389.856    23971399.6434
  22368395.403   -14898200.768 8 -11588453.94046  22368398.926    22368410.0544
  20128824.741   -26438917.465 9 -20585052.19448  20128827.682    20128836.1894
  20566420.044   -22875539.692 9 -17804205.32848  20566422.789    20566430.7834
  21569240.082   -14961519.305 8 -11633496.40947  21569243.664    21569253.9904
  22571623.916   -10639726.399 8  -8273023.26346  22571628.763    22571638.8494
  21849491.069   -16986921.845 8 -13218641.92947  21849495.171    21849505.7144
 00  6 23  0 15  0.0000000  0  9 11 25 09 05 21 29 15 30 23
  24336638.399    -2627994.964 7  -2032611.91545  24336638.068    24336646.5824
  22998359.478   -12849147.982 8  -9996425.55546  22998357.982    22998368.9594
  23991738.408    -2575654.799 8  -1987164.23445  23991738.356    23991748.6324
  22366352.825   -14908952.245 8 -11596831.61046  22366353.759    22366363.0174
  20126991.952   -26448552.293 9 -20592559.83948  20126994.249    20127002.8384
  20564192.981   -22887236.698 9 -17813319.87048  20564197.166    20564205.1594
  21577342.713   -14918944.289 8 -11600321.10947  21577345.454    21577355.8834
  22557273.153   -10715160.150 8  -8331802.67446  22557274.351    22557284.3464
  21862756.265   -16917224.617 8 -13164332.47347  21862758.345    21862768.7044
 00  6 23  0 15 30.0000000  0  9 11 25 09 05 21 29 15 30 23
  24326433.567    -2681610.567 7  -2074390.21145  24326434.047    24326446.2384
  22981742.898   -12936441.206 8 -10064446.06846  22981746.579    22981756.8964
  24012098.212    -2468628.755 8  -1903767.41745  24012104.146    24012113.9854
  22364408.710   -14919146.125 8 -11604774.85646  22364413.246    22364423.2744
  20125254.978   -26457671.479 9 -20599665.69648  20125258.927    20125267.3974
  20562007.028   -22898728.740 9 -17822274.68548  20562010.231    20562018.2674
  21585549.525   -14875807.724 8 -11566708.24647  21585553.736    21585563.8704
  22542982.767   -10790250.727 8  -8390314.67846  22542984.554    22542994.5854
  21876087.045   -16847157.694 8 -13109734.93847  21876091.480    21876101.9994
 00  6 23  0 16  0.0000000  0  9 11 25 09 05 21 29 15 30 23
  24316319.506    -2734764.694 7  -2115808.93245  24316319.363    24316331.1804
  22965176.596   -13023489.573 8 -10132275.80446  22965182.042    22965192.3604
  24032491.065    -2361510.713 8  -1820298.90645  24032488.364    24032497.8664
  22362575.731   -14928781.421 8 -11612282.84246  22362579.554    22362590.1394
  20123619.571   -26466273.862 9 -20606368.85248  20123622.034    20123630.4424
  20559860.939   -22910015.431 9 -17831069.49148  20559862.681    20559870.4074
  21593865.761   -14832111.727 8 -11532659.47147  21593869.157    21593879.2534
  22528755.981   -10864994.847 8  -8448556.71946  22528761.618    22528770.7174
  21889495.467   -16776721.948 8 -13054850.00746  21889495.075    21889505.2794
 00  6 23  0 16 30.0000000  0  9 11 25 09 05 21 29 15 30 23
  24306292.456    -2787456.115 7  -2156867.08245  24306293.377    24306302.4874
  22948660.935   -13110291.531 8 -10199913.52546  22948663.828    22948673.9434
  24052881.563    -2254302.765 8  -1736760.34345  24052889.595    24052899.9094
  22360848.044   -14937857.139 8 -11619354.77146  22360853.180    22360862.5274
  20122080.291   -26474357.703 9 -20612667.94448  20122083.757    20122092.0534
  20557748.826   -22921096.876 9 -17839704.37748  20557753.873    20557761.9844
  21602289.270   -14787858.337 9 -11498176.35447  21602290.501    21602300.6524
  22514601.990   -10939389.557 8  -8506526.48846  22514604.352    22514614.4524
  21902968.791   -16705918.221 8 -12999678.34647  21902968.965    21902979.0424
 00  6 23  0 17  0.0000000  0  9 11 25 09 05 21 29 15 30 23
  24296346.323    -2839683.250 7  -2197563.54245  24296354.100    24296362.5284
  22932186.470   -13196846.659 8 -10267358.89846  22932191.532    22932204.0824
  24073306.918    -2147007.467 8  -1653153.72645  24073307.190    24073318.1714
  22359232.638   -14946372.553 8 -11625990.11146  22359232.674    22359242.7564
  20120642.189   -26481921.924 9 -20618562.14148  20120644.358    20120652.7724
  20555682.010   -22931973.044 9 -17848179.30248  20555684.152    20555692.2244
  21610813.371   -14743049.864 8 -11463260.72947  21610817.240    21610826.9944
  22500508.970   -11013431.963 8  -8564221.75946  22500514.170    22500524.5394
  21916509.294   -16634747.391 8 -12944220.61947  21916512.495    21916522.7544
 00  6 23  0 17 30.0000000  0  9 11 25 09 05 21 29 15 30 23
  24286501.030    -2891444.596 7  -2237896.97945  24286504.215    24286516.7594
  22915767.305   -13283153.203 8 -10334610.58346  22915768.375    22915779.6694
  24093736.950    -2039627.187 8  -1569480.92045  24093741.423    24093752.2624
  22357715.715   -14954326.973 8 -11632188.32346  22357718.556    22357728.4344
  20119300.750   -26488965.126 9 -20624050.35448  20119303.846    20119312.4024
  20553650.171   -22942643.521 9 -17856493.95148  20553653.703    20553661.4244
  21619446.413   -14697688.383 8 -11427914.17847  21619449.028    21619459.4094
  22486489.975   -11087119.102 8  -8621640.19046  22486491.932    22486501.2814
  21930120.255   -16563210.222 8 -12888477.44046  21930125.228    21930134.7624
 00  6 23  0 18  0.0000000  0  9 11 25 09 05 21 29 15 30 23
  24276738.865    -2942738.629 7  -2277866.25145  24276742.052    24276753.7024
  22899390.393   -13369210.319 8 -10401667.90346  22899392.878    22899402.8724
  24114191.635    -1932163.954 8  -1485743.44945  24114190.578    24114201.9264
  22356310.776   -14961719.648 8 -11637948.82646  22356312.459    22356322.0154
  20118059.083   -26495485.652 9 -20629131.28748  20118062.911    20118071.6534
  20551658.958   -22953108.522 9 -17864648.48848  20551662.206    20551670.0864
  21628182.300   -14651776.231 8 -11392138.54047  21628185.893    21628196.4074
  22472535.145   -11160448.064 8  -8678779.55746  22472538.251    22472547.7634
  21943805.225   -16491307.705 8 -12832449.55846  21943807.942    21943817.7954
 00  6 23  0 18 30.0000000  0  9 11 25 09 05 21 29 15 30 23
  24267065.509    -2993563.911 7  -2317470.30845  24267071.879    24267082.5024
  22883058.060   -13455016.533 8 -10468529.74646  22883064.311    22883075.3454
  24134648.110    -1824619.769 8  -1401942.89745  24134655.710    24134666.3234
  22355006.897   -14968549.667 8 -11643270.89846  22355011.646    22355022.3294
  20116919.998   -26501482.277 9 -20633803.98448  20116921.930    20116930.4874
  20549706.745   -22963367.730 9 -17872642.67448  20549709.847    20549717.8704
  21637025.012   -14605315.275 8 -11355935.25847  21637027.703    21637037.6734
  22458646.046   -11233415.584 8  -8735637.27146  22458652.172    22458662.6444
  21957558.363   -16419040.738 8 -12776137.69146  21957559.943    21957569.4034
 00  6 23  0 19  0.0000000  0  9 11 25 09 05 21 29 15 30 23
  24257485.031    -3043919.024 7  -2356708.01945  24257489.131    24257500.0414
  22866781.238   -13540570.736 8 -10535195.18446  22866783.477    22866793.9594
  24155138.466    -1716997.235 8  -1318081.29245  24155135.448    24155147.7014
  22353817.349   -14974816.304 8 -11648153.97146  22353819.495    22353829.8254
  20115876.630   -26506954.202 9 -20638067.83548  20115880.772    20115889.3134
  20547793.146   -22973420.968 9 -17880476.35648  20547796.959    20547804.5944
  21645969.680   -14558307.866 8 -11319306.15947  21645972.563    21645982.3834
  22444835.841   -11306018.910 8  -8792211.21346  22444836.843    22444846.7704
  21971377.565   -16346410.152 8 -12719542.49546  21971381.365    21971391.2574
 00  6 23  0 19 30.0000000  0  9 11 25 09 05 21 29 15 30 23
  24247990.598    -3093802.646 7  -2395578.32145  24247995.625    24248007.8604
  22850547.260   -13625871.732 8 -10601663.33846  22850551.436    22850561.8784
  24175625.126    -1609298.428 8  -1234160.25945  24175629.362    24175642.8404
  22352730.479   -14980518.864 8 -11652597.51446  22352734.365    22352744.8084
  20114935.904   -26511900.119 9 -20641921.80848  20114939.341    20114947.9554
  20545919.894   -22983268.131 9 -17888149.46448  20545923.102    20545930.5624
  21655019.133   -14510756.491 8 -11282253.19647  21655020.785    21655031.2774
  22431089.266   -11378255.052 8  -8848499.02346  22431091.068    22431100.9404
  21985265.016   -16273416.959 8 -12662664.74146  21985271.479    21985281.2394
 00  6 23  0 20  0.0000000  0  9 11 25 09 05 21 29 15 30 23
  24238593.431    -3143213.231 8  -2434080.00445  24238595.022    24238605.6284
  22834363.576   -13710918.205 8 -10667933.14046  22834366.960    22834378.3314
  24196136.042    -1501525.378 7  -1150181.38045  24196138.097    24196150.7974
  22351754.878   -14985656.773 8 -11656601.07346  22351757.268    22351766.8444
  20114095.533   -26516318.547 9 -20645364.74948  20114098.547    20114107.2974
  20544085.887   -22992909.285 9 -17895662.03248  20544088.322    20544096.0054
  21664170.705   -14462663.162 8 -11244777.94347  21664172.774    21664183.5144
  22417415.692   -11450120.961 8  -8904498.36446  22417415.406    22417425.1354
  21999226.614   -16200062.034 8 -12605505.12446  21999229.904    21999241.1044
 00  6 23  0 20 30.0000000  0  9 11 25 09 05 21 29 15 30 23
  24229281.197    -3192149.558 7  -2472212.18045  24229281.360    24229292.6784
  22818228.579   -13795708.670 8 -10734003.47346  22818232.159    22818242.5534
  24216658.193    -1393680.390 7  -1066146.45545  24216660.575    24216672.5734
  22350885.277   -14990229.233 8 -11660164.00746  22350886.542    22350896.7464
  20113356.785   -26520208.023 9 -20648395.52248  20113358.627    20113367.2604
  20542290.870   -23002344.207 9 -17903013.90848  20542292.958    20542300.5274
  21673423.979   -14414030.110 8 -11206882.12147  21673426.976    21673437.7944
  22403805.760   -11521614.190 8  -8960207.27646  22403810.077    22403819.7664
  22013251.035   -16126346.372 8 -12548064.42246  22013257.502    22013267.9054
 00  6 23  0 21  0.0000000  0  9 11 25 09 05 21 29 15 30 23
  24220050.062    -3240610.130 7  -2509973.63545  24220059.721    24220070.9424
  22802145.264   -13880242.439 8 -10799873.78646  22802145.572    22802156.0244
  24237191.878    -1285765.570 7   -982057.12245  24237195.696    24237208.5854
  22350123.705   -14994235.597 8 -11663285.82146  22350124.541    22350135.0264
  20112716.252   -26523567.302 9 -20651013.15648  20112719.424    20112727.9204
  20540532.327   -23011572.681 9 -17910204.91848  20540536.623    20540544.5164
  21682782.631   -14364859.548 8 -11168567.45647  21682784.110    21682794.5734
  22390273.794   -11592731.372 8  -9015623.17646  22390277.017    22390286.4104
  22027348.075   -16052270.899 8 -12490343.34546  22027354.186    22027364.1404
 00  6 23  0 21 30.0000000  0  9 11 25 09 05 21 29 15 30 23
  24210933.806    -3288593.538 8  -2547363.27645  24210929.512    24210939.9884
  22786105.956   -13964518.554 8 -10865543.34246  22786108.982    22786118.6594
  24257743.007    -1177783.128 7   -897915.08345  24257744.084    24257756.4404
  22349465.978   -14997675.167 8 -11665965.96446  22349470.089    22349480.0854
  20112178.076   -26526395.631 9 -20653217.06048  20112181.121    20112189.6864
  20538817.284   -23020594.433 9 -17917234.83948  20538819.579    20538827.8604
  21692241.471   -14315153.899 9 -11129835.83547  21692243.847    21692253.4694
  22376815.595   -11663469.605 8  -9070743.78446  22376815.326    22376825.9894
  22041516.242   -15977836.703 8 -12432342.73646  22041518.593    22041528.9044
 00  6 23  0 22  0.0000000  0  9 11 25 09 05 21 29 15 30 23
  24201890.311    -3336098.674 7  -2584380.21645  24201888.448    24201898.8984
  22770118.644   -14048535.702 8 -10931011.08046  22770120.886    22770130.3284
  24278297.274    -1069735.248 7   -813722.02945  24278305.407    24278316.7994
  22348921.751   -15000547.534 8 -11668204.12746  22348923.217    22348933.3764
  20111742.610   -26528691.465 9 -20655006.03048  20111744.304    20111752.7434
  20537137.574   -23029409.626 9 -17924103.81048  20537142.186    20537150.3614
  21701799.498   -14264915.571 8 -11090689.12547  21701803.103    21701813.4564
  22363422.734   -11733826.365 8  -9125567.16146  22363427.197    22363437.1624
  22055750.983   -15903044.645 8 -12374063.29046  22055751.039    22055761.7714
 00  6 23  0 22 30.0000000  0  9 11 25 09 05 21 29 15 30 23
  24192935.850    -3383123.947 7  -2621023.30545  24192941.994    24192952.4864
  22754179.253   -14132292.675 8 -10996276.09046  22754182.111    22754192.0884
  24298871.250     -961624.253 7   -729479.79445  24298879.046    24298889.4994
  22348479.855   -15002851.935 8 -11669999.70546  22348484.645    22348494.2784
  20111405.252   -26530453.830 9 -20656379.31148  20111408.767    20111417.3494
  20535500.865   -23038017.822 9 -17930811.47948  20535504.093    20535512.3444
  21711458.526   -14214146.989 8 -11051129.23747  21711463.874    21711474.6634
  22350105.792   -11803798.549 8  -9180090.90946  22350112.050    22350121.1704
  22070048.094   -15827895.690 8 -12315505.73446  22070050.657    22070062.0394
 00  6 23  0 23  0.0000000  0  9 11 25 09 05 21 29 15 30 23
  24184082.672    -3429668.135 7  -2657291.46445  24184082.468    24184093.9374
  22738292.196   -14215788.132 8 -11061337.31346  22738293.068    22738302.9074
  24319455.131     -853452.272 7   -645190.04745  24319462.968    24319473.7404
  22348146.220   -15004588.013 8 -11671352.43046  22348153.624    22348163.9354
  20111172.628   -26531681.680 9 -20657336.08348  20111174.892    20111183.7904
  20533901.256   -23046419.038 9 -17937357.85948  20533905.078    20533913.7344
  21721222.816   -14162850.394 8 -11011157.91147  21721225.834    21721236.4504
  22336870.752   -11873383.208 8  -9234312.68046  22336870.639    22336879.7054
  22084415.657   -15752391.144 8 -12256671.11846  22084419.911    22084429.6354
 00  6 23  0 23 30.0000000  0  9 11 25 09 05 21 29 15 30 23
  24175310.996    -3475729.912 7  -2693183.78645  24175317.691    24175328.2634
  22722451.225   -14299020.934 8 -11126193.90146  22722454.309    22722464.5464
  24340052.496     -745221.245 7   -560854.30245  24340058.436    24340070.1634
  22347929.454   -15005755.334 8 -11672261.95746  22347931.862    22347941.7604
  20111042.154   -26532373.522 9 -20657875.19048  20111043.635    20111052.1004
  20532343.457   -23054613.020 9 -17943742.76248  20532346.143    20532354.2334
  21731083.689   -14111028.197 8 -10970777.02347  21731087.680    21731097.6124
  22323700.305   -11942577.356 8  -9288230.14746  22323703.606    22323712.5684
  22098852.463   -15676531.980 8 -12197560.16446  22098855.601    22098865.0744
 00  6 23  0 24  0.0000000  0  9 11 25 09 05 21 29 15 30 23
  24166642.968    -3521308.203 7  -2728699.35745  24166646.052    24166655.5634
  22706659.878   -14381990.029 8 -11190844.98346  22706665.177    22706676.7114
  24360662.001     -636933.520 7   -476474.38245  24360665.941    24360676.5284
  22347815.802   -15006353.549 8 -11672728.04246  22347817.810    22347828.1814
  20111011.619   -26532528.247 9 -20657995.76448  20111014.245    20111023.0324
  20530822.828   -23062599.707 9 -17949966.12948  20530826.215    20530834.4374
  21741044.317   -14058682.893 8 -10929988.51347  21741048.428    21741058.5744
  22310606.556   -12011378.199 8  -9341841.12746  22310610.975    22310620.2034
  22113356.388   -15600319.306 8 -12138173.74346  22113358.340    22113368.2964
 00  6 23  0 24 30.0000000  0  9 11 25 09 05 21 29 15 30 23
  24158056.113    -3566401.836 7  -2763837.21945  24158064.344    24158075.9264
  22690924.073   -14464694.679 8 -11255290.00746  22690927.173    22690939.0294
  24381276.061     -528591.118 7   -392051.85145  24381281.872    24381293.3404
  22347809.479   -15006382.162 8 -11672750.31146  22347812.525    22347822.6214
  20111084.077   -26532145.076 9 -20657697.19848  20111087.123    20111095.7124
  20529343.342   -23070378.836 9 -17956027.76948  20529345.964    20529354.1094
  21751102.121   -14005817.212 8 -10888794.51147  21751108.067    21751119.1534
  22297586.688   -12079783.029 8  -9395143.48246  22297593.330    22297603.7154
  22127924.138   -15523753.898 8 -12078512.47146  22127928.144    22127938.4224
 00  6 23  0 25  0.0000000  0  9 11 25 09 05 21 29 15 30 23
  24149574.329    -3611009.291 7  -2798596.30145  24149573.678    24149586.8704
  22675237.088   -14547133.695 8 -11319528.03446  22675239.209    22675250.4984
  24401905.497     -420195.784 7   -307588.07245  24401909.218    24401920.0754
  22347910.440   -15005840.619 8 -11672328.29546  22347915.240    22347925.7654
  20111260.075   -26531223.306 9 -20656978.93548  20111262.542    20111270.8034
  20527901.036   -23077950.376 9 -17961927.65248  20527905.137    20527913.3044
  21761263.357   -13952433.527 8 -10847196.87347  21761266.755    21761277.5774
  22284650.026   -12147788.959 8  -9448135.00246  22284652.121    22284662.5364
  22142562.259   -15446837.152 8 -12018577.43546  22142564.633    22142575.7004
 00  6 23  0 25 30.0000000  0  9 11 25 09 05 21 29 15 30 23
  24141172.423    -3655129.464 7  -2832975.62645  24141179.827    24141190.3934
  22659599.630   -14629305.535 8 -11383557.88646  22659602.114    22659612.5864
  24422541.587     -311749.893 7   -223084.90245  24422545.703    24422557.8794
  22348125.827   -15004728.539 8 -11671461.70846  22348126.945    22348136.7534
  20111537.539   -26529761.547 9 -20655839.90548  20111540.774    20111549.1794
  20526500.664   -23085313.964 9 -17967665.48748  20526503.972    20526511.7574
  21771519.834   -13898534.222 8 -10805197.44247  21771523.676    21771534.2574
  22271781.036   -12215393.181 8  -9500813.49547  22271787.614    22271798.2954
  22157267.626   -15369570.102 8 -11958369.43146  22157268.586    22157278.9044
 00  6 23  0 26  0.0000000  0  9 11 25 09 05 21 29 15 30 23
  24132877.766    -3698761.291 8  -2866974.42745  24132877.244    24132887.0604
  22644014.266   -14711209.356 8 -11447378.90846  22644016.433    22644026.3584
  24443200.635     -203255.574 7   -138543.98745  24443191.002    24443203.9114
  22348445.874   -15003045.392 8 -11670150.12846  22348447.475    22348457.3164
  20111918.573   -26527758.280 9 -20654278.92448  20111922.018    20111930.6524
  20525139.573   -23092469.460 9 -17973241.18348  20525142.254    20525150.0434
  21781874.404   -13844121.843 8 -10762798.23047  21781878.154    21781889.2474
  22258999.237   -12282593.024 8  -9553176.91346  22259000.033    22259009.3584
  22172035.062   -15291953.841 8 -11897889.30046  22172038.360    22172048.7994
 00  6 23  0 26 30.0000000  0  9 11 25 09 05 21 29 15 30 23
  24124661.338    -3741903.413 7  -2900591.64345  24124666.333    24124677.3514
  22628481.553   -14792844.376 8 -11510990.47246  22628482.434    22628492.4444
  24463842.902      -94715.031 7    -53967.07145  24463846.038    24463858.5934
  22348872.498   -15000790.862 8 -11668393.33646  22348876.394    22348886.3674
  20112404.043   -26525212.870 9 -20652295.48448  20112406.385    20112414.9744
  20523815.938   -23099416.716 9 -17978654.60348  20523820.028    20523828.3634
  21792325.058   -13789198.865 8 -10720001.15847  21792329.063    21792340.5174
  22246287.078   -12349385.389 8  -9605222.78446  22246289.752    22246299.3754
  22186870.987   -15213989.344 8 -11837137.83746  22186874.917    22186885.1224
 00  6 23  0 27  0.0000000  0  9 11 25 09 05 21 29 15 30 23
  24116543.556    -3784554.805 7  -2933826.46945  24116551.730    24116561.1694
  22612995.153   -14874209.098 8 -11574391.40646  22612998.858    22613009.3524
  24484503.151       13869.830 7     30644.40645  24484509.983    24484521.6804
  22349409.896   -14997964.577 8 -11666191.01346  22349414.480    22349424.2184
  20112992.322   -26522124.155 9 -20649888.69348  20112994.116    20113002.5754
  20522535.013   -23106155.525 9 -17983905.61148  20522537.855    20522545.9664
  21802872.777   -13733767.719 8 -10676808.10647  21802877.205    21802888.2604
  22233653.144   -12415767.830 8  -9656949.25646  22233657.249    22233667.4454
  22201772.603   -15135677.864 8 -11776115.97946  22201776.539    22201787.3134
 00  6 23  0 27 30.0000000  0  9 11 25 09 05 21 29 15 30 23
  24108526.288    -3826714.470 7  -2966678.11245  24108526.737    24108538.4924
  22597563.661   -14955302.395 8 -11637580.85046  22597567.384    22597578.0714
  24505180.638      122497.102 7    115288.92745  24505179.826    24505193.6054
  22350057.685   -14994566.339 8 -11663543.01546  22350060.849    22350070.0734
  20113681.479   -26518491.619 9 -20647058.14848  20113685.435    20113693.8024
  20521292.531   -23112685.753 9 -17988994.08748  20521295.184    20521303.0714
  21813518.907   -13677830.793 8 -10633220.95747  21813521.596    21813532.5514
  22221101.270   -12481737.296 8  -9708353.93546  22221103.471    22221113.0254
  22216743.327   -15057020.503 8 -11714824.62546  22216745.117    22216755.3594
 00  6 23  0 28  0.0000000  0  9 11 25 09 05 21 29 15 30 23
  24100592.833    -3868381.018 7  -2999145.50245  24100598.307    24100609.5264
  22582184.089   -15036123.306 8 -11700558.03246  22582187.882    22582197.8484
  24525848.572      231164.582 7    199964.77245  24525859.236    24525871.7884
  22350814.116   -14990595.638 8 -11660448.92846  22350817.419    22350826.1234
  20114476.474   -26514314.209 9 -20643803.02548  20114480.287    20114488.8514
  20520087.517   -23119007.234 9 -17993919.90848  20520092.314    20520100.1534
  21824260.519   -13621390.871 8 -10589241.84647  21824262.335    21824272.4164
  22208627.064   -12547291.273 8  -9759434.86146  22208628.921    22208638.1044
  22231772.571   -14978018.461 8 -11653264.69246  22231778.512    22231789.4904
 00  6 23  0 28 30.0000000  0  9 11 25 09 05 21 29 15 30 23
  24092762.339    -3909553.540 8  -3031227.94545  24092764.223    24092774.0484
  22566854.297   -15116671.110 8 -11763322.43546  22566859.180    22566869.8194
  24546545.377      339870.097 7    284670.24945  24546544.722    24546557.9824
  22351682.248   -14986052.588 8 -11656908.86646  22351681.516    22351690.4584
  20115374.667   -26509590.795 9 -20640122.44248  20115379.199    20115387.6504
  20518926.637   -23125119.501 9 -17998682.69848  20518929.192    20518937.2084
  21835096.219   -13564450.635 8 -10544872.89447  21835098.095    21835107.9304
  22196231.873   -12612426.716 8  -9810189.66146  22196234.742    22196242.8754
  22246873.629   -14898672.921 8 -11591437.09846  22246877.586    22246887.8184
 00  6 23  0 29  0.0000000  0  9 11 25 09 05 21 29 15 30 23
  24085017.087    -3950231.035 7  -3062924.65745  24085022.946    24085033.1024
  22551578.427   -15196944.728 8 -11825873.18046  22551583.154    22551593.7614
  24567220.601      448611.611 7    369403.76845  24567238.256    24567252.0144
  22352653.942   -14980936.910 8 -11652922.59246  22352654.338    22352664.0144
  20116379.094   -26504320.420 9 -20636015.65248  20116382.037    20116390.5704
  20517801.886   -23131022.563 9 -18003282.47948  20517805.760    20517814.0004
  21846026.796   -13507012.520 8 -10500115.96947  21846028.107    21846038.1544
  22183914.704   -12677140.844 8  -9860616.17546  22183919.941    22183928.5404
  22262043.426   -14818985.117 8 -11529342.78346  22262041.573    22262052.0704
 00  6 23  0 29 30.0000000  0  9 11 25 09 05 21 29 15 30 23
  24077373.283    -3990412.209 7  -3094234.58745  24077376.838    24077388.7624
  22536353.873   -15276942.854 8 -11888209.26146  22536359.933    22536371.1174
  24587933.500      557387.399 7    454163.98245  24587938.139    24587952.0134
  22353736.003   -14975248.357 8 -11648489.92546  22353737.122    22353747.2364
  20117486.603   -26498502.222 9 -20631481.99848  20117489.263    20117497.9124
  20516718.890   -23136716.146 9 -18007719.03848  20516722.449    20516730.3664
  21857048.605   -13449079.292 8 -10454973.26047  21857052.558    21857062.0454
  22171682.565   -12741431.384 8  -9910712.58447  22171685.535    22171694.9534
  22277268.013   -14738956.350 8 -11466982.78346  22277270.517    22277280.3684
 00  6 23  0 30  0.0000000  0  9 11 25 09 05 21 29 15 30 23
  24069822.454    -4030096.163 7  -3125157.13245  24069825.346    24069836.2904
  22521185.693   -15356664.860 8 -11950330.17146  22521189.730    22521200.1514
  24608636.206      666195.251 7    538949.18845  24608642.273    24608656.5894
  22354924.686   -14968986.477 8 -11643610.52646  22354928.383    22354937.9254
  20118697.806   -26492135.527 9 -20626520.94348  20118700.844    20118709.2384
  20515676.537   -23142200.082 9 -18011992.23148  20515678.998    20515686.9044
  21868169.385   -13390653.583 8 -10409446.79647  21868171.025    21868180.7874
  22159532.522   -12805295.196 8  -9960476.49147  22159532.264    22159542.4484
  22292559.015   -14658587.637 8 -11404357.89946  22292564.185    22292574.4774
 00  6 23  0 30 30.0000000  0  9 11 25 09 05 21 29 15 30 23
  24062360.979    -4069281.692 8  -3155691.24845  24062367.532    24062379.2454
  22506069.247   -15436109.396 8 -12012234.89746  22506072.540    22506081.6534
  24629352.261      775033.200 7    623757.87345  24629355.930    24629366.9454
  22356223.553   -14962151.154 8 -11638284.27346  22356229.813    22356238.4244
  20120013.442   -26485219.308 9 -20621131.67948  20120016.971    20120025.4274
  20514671.431   -23147474.094 9 -18016101.85248  20514675.041    20514683.4144
  21879377.791   -13331737.886 8 -10363538.52047  21879381.840    21879391.7864
  22147456.163   -12868729.488 8 -10009905.70147  22147461.380    22147470.7114
  22307922.179   -14577880.080 8 -11341468.98146  22307922.444    22307933.7764
 00  6 23  0 31  0.0000000  0  9 11 25 09 05 21 29 15 30 23
  24055001.823    -4107967.951 8  -3185836.37245  24055007.249    24055017.0234
  22491005.465   -15515275.540 8 -12073922.68046  22491006.477    22491016.8544
  24650066.437      883899.262 7    708588.44145  24650072.131    24650085.6534
  22357636.022   -14954742.387 8 -11632511.18546  22357639.197    22357647.8774
  20121433.810   -26477752.839 9 -20615313.65048  20121437.904    20121446.2764
  20513707.644   -23152538.047 9 -18020047.79248  20513711.436    20513719.8194
  21890682.040   -13272334.986 8 -10317250.60547  21890685.665    21890696.1654
  22135465.984   -12931731.947 8 -10058998.41947  22135472.214    22135481.8964
  22323339.676   -14496834.971 8 -11278317.06246  22323345.272    22323355.9254
 00  6 23  0 31 30.0000000  0  9 11 25 09 05 21 29 15 30 23
  24047738.006    -4146153.975 7  -3215591.71745  24047740.982    24047751.1224
  22475989.219   -15594162.385 8 -12135392.82947  22475995.547    22476005.4174
  24670788.963      992791.397 7    793439.33345  24670795.384    24670804.2504
  22359155.266   -14946760.185 8 -11626291.24946  22359157.794    22359166.4824
  20122961.011   -26469735.090 9 -20609066.05048  20122963.658    20122971.9924
  20512785.167   -23157391.585 9 -18023829.77048  20512787.913    20512796.0024
  21902080.167   -13212447.554 8 -10270585.13347  21902082.480    21902092.7704
  22123563.084   -12994299.699 8 -10107752.39747  22123566.259    22123575.4244
  22338830.370   -14415453.598 8 -11214903.07046  22338831.841    22338842.3934
 00  6 23  0 32  0.0000000  0  8 11 25 05 21 29 15 30 23
  24040564.668    -4183838.863 8  -3244956.51845  24040569.019    24040580.3404
  22461035.353   -15672768.939 8 -12196644.56846  22461036.659    22461046.6934
  22360784.206   -14938204.350 8 -11619624.33046  22360786.514    22360795.1264
  20124591.456   -26461165.751 9 -20602388.64648  20124594.108    20124602.8164
  20511900.247   -23162034.488 9 -18027447.62648  20511904.129    20511912.6444
  21913568.271   -13152078.172 8 -10223544.11147  21913569.314    21913580.7464
  22111741.092   -13056430.283 8 -10156165.74947  22111742.848    22111752.2114
  22354382.817   -14333737.200 8 -11151228.03646  22354382.023    22354392.7174
 00  6 23  0 32 30.0000000  0  8 11 25 05 21 29 15 30 23
  24033488.626    -4221021.785 7  -3273930.22045  24033492.728    24033504.8734
  22446123.624   -15751093.801 8 -12257676.80946  22446132.183    22446141.8284
  22362520.673   -14929074.714 8 -11612510.31146  22362524.028    22362533.1594
  20126326.695   -26452043.924 9 -20595280.72948  20126329.880    20126338.5154
  20511057.254   -23166466.727 9 -18030901.32748  20511060.815    20511069.0554
  21925145.703   -13091229.783 8 -10176129.85446  21925147.974    21925160.1154
  22099999.159   -13118120.758 8 -10204236.17947  22100003.585    22100012.9244
  22369988.103   -14251687.006 8 -11087292.91146  22369995.105    22370005.7824
 00  6 23  0 33  0.0000000  0  8 11 25 05 21 29 15 30 23
  24026508.310    -4257701.570 7  -3302511.88345  24026514.261    24026523.7814
  22431278.813   -15829136.490 8 -12318489.16247  22431281.010    22431290.7464
  22364365.468   -14919371.317 8 -11604949.19446  22364369.750    22364380.1204
  20128168.364   -26442368.455 9 -20587741.40848  20128171.212    20128179.8734
  20510257.264   -23170687.900 9 -18034190.54848  20510257.903    20510265.7684
  21936817.585   -13029905.196 8 -10128344.52447  21936818.670    21936829.8144
  22088346.772   -13179368.658 8 -10251961.73047  22088348.497    22088357.1664
  22385670.536   -14169304.381 8 -11023098.73746  22385672.277    22385682.9194
 00  6 23  0 33 30.0000000  0  8 11 25 05 21 29 15 30 23
  24019627.118    -4293877.449 7  -3330700.87545  24019628.519    24019639.6934
  22416482.405   -15906896.111 8 -12379080.96147  22416484.242    22416493.1494
  22366323.678   -14909094.475 8 -11596941.22146  22366324.821    22366335.2424
  20130114.768   -26432138.951 9 -20579770.37248  20130117.680    20130126.4764
  20509491.117   -23174697.642 9 -18037315.01848  20509494.603    20509502.8294
  21948573.828   -12968106.957 8 -10080190.12047  21948578.365    21948589.7704
  22076776.653   -13240171.166 8 -10299340.24747  22076777.905    22076786.7824
  22401412.302   -14086590.362 8 -10958646.33646  22401412.351    22401422.9014
 00  6 23  0 34  0.0000000  0  8 11 25 05 21 29 15 30 23
  24012838.086    -4329548.465 8  -3358496.50445  24012842.748    24012852.2354
  22401734.039   -15984371.894 8 -12439451.57247  22401740.704    22401749.8524
  22368389.123   -14898244.112 8 -11588486.37046  22368390.477    22368400.5494
  20132168.082   -26421354.738 9 -20571367.08548  20132169.804    20132178.3064
  20508768.497   -23178495.745 9 -18040274.58248  20508771.827    20508780.1574
  21960425.570   -12905837.974 8 -10031668.89347  21960428.295    21960439.5104
  22065289.834   -13300525.974 8 -10346369.89947  22065292.608    22065301.6214
  22417209.244   -14003546.371 8 -10893936.81346  22417214.617    22417225.5204
 00  6 23  0 34 30.0000000  0  8 11 25 05 21 29 15 30 23
  24006151.000    -4364713.839 7  -3385898.14045  24006149.539    24006161.0124
  22387048.929   -16061562.314 8 -12499599.83147  22387050.894    22387060.8874
  22370560.912   -14886819.983 8 -11579584.42746  22370563.990    22370573.2104
  20134323.873   -26410015.036 9 -20562530.95148  20134327.681    20134336.3344
  20508086.718   -23182082.190 9 -18043069.21048  20508089.447    20508097.7124
  21972361.913   -12843100.969 8  -9982782.97047  21972366.217    21972377.6324
  22053889.760   -13360430.347 8 -10393048.55347  22053893.195    22053902.8734
  22433082.518   -13920173.876 8 -10828971.30846  22433079.960    22433090.6764
 00  6 23  0 35  0.0000000  0  8 11 25 05 21 29 15 30 23
  23999549.538    -4399372.616 7  -3412904.97645  23999553.960    23999564.6594
  22372414.943   -16138466.880 8 -12559525.33247  22372416.692    22372426.8674
  22372843.929   -14874822.232 8 -11570235.49946  22372847.043    22372857.3754
  20136588.018   -26398118.999 9 -20553261.31748  20136591.533    20136600.2594
  20507445.332   -23185456.635 9 -18045698.64648  20507447.535    20507455.3214
  21984392.038   -12779898.650 8  -9933534.48646  21984393.675    21984404.0484
  22042576.012   -13419881.897 8 -10439374.36547  22042579.868    22042589.3164
  22449004.892   -13836474.064 8 -10763750.76446  22449008.769    22449018.6074
 00  6 23  0 35 30.0000000  0  8 11 25 05 21 29 15 30 23
  23993054.310    -4433524.196 8  -3439516.62345  23993054.920    23993065.2184
  22357832.553   -16215084.306 8 -12619227.09647  22357837.471    22357846.7284
  22375234.238   -14862250.929 8 -11560439.67346  22375238.953    22375248.9194
  20138957.613   -26385665.962 9 -20543557.65148  20138961.160    20138969.9864
  20506843.750   -23188618.661 9 -18048162.55348  20506845.744    20506853.7424
  21996505.574   -12716234.020 8  -9883925.74247  21996509.051    21996519.1024
  22031348.813   -13478877.677 8 -10485345.03447  22031353.263    22031362.3394
  22464993.403   -13752448.383 8 -10698276.27746  22464998.153    22465008.6514
 00  6 23  0 36  0.0000000  0  8 11 25 05 21 29 15 30 23
  23986651.223    -4467167.804 8  -3465732.45845  23986654.716    23986664.0214
  22343312.443   -16291413.743 8 -12678704.46847  22343312.414    22343321.6764
  22377735.910   -14849106.099 8 -11550196.91946  22377740.669    22377750.9804
  20141433.801   -26372655.541 9 -20533419.65948  20141437.070    20141445.5324
  20506280.293   -23191568.019 9 -18050460.74548  20506284.143    20506292.3554
  22008707.804   -12652109.794 8  -9833958.87447  22008711.641    22008722.1424
  22020209.055   -13537415.158 8 -10530958.58147  22020214.001    22020222.6994
  22481048.165   -13668098.185 8 -10632548.94046  22481048.791    22481060.1644
 00  6 23  0 36 30.0000000  0  8 11 25 05 21 29 15 30 23
  23980346.091    -4500302.535 8  -3491551.75245  23980349.559    23980358.6174
  22328838.149   -16367454.508 8 -12737956.88847  22328841.450    22328851.5064
  22380346.056   -14835387.984 8 -11539507.45946  22380351.056    22380361.1374
  20144016.701   -26359087.040 9 -20522846.79948  20144019.019    20144027.2944
  20505761.218   -23194304.612 9 -18052593.15248  20505763.638    20505771.5724
  22021000.387   -12587529.001 8  -9783636.23747  22021001.620    22021010.9024
  22009159.669   -13595491.874 9 -10576213.09547  22009162.805    22009171.1984
  22497153.424   -13583424.845 8 -10566569.79446  22497161.762    22497172.3004
 00  6 23  0 37  0.0000000  0  8 11 25 05 21 29 15 30 23
  23974134.784    -4532927.523 8  -3516973.79445  23974140.175    23974149.9774
  22314421.764   -16443205.811 8 -12796983.74947  22314426.279    22314436.4604
  22383070.481   -14821096.904 8 -11528371.53646  22383070.847    22383080.8344
  20146704.927   -26344959.887 9 -20511838.62848  20146707.196    20146715.5894
  20505281.429   -23196828.067 9 -18054559.47348  20505283.683    20505291.4964
  22033375.126   -12522494.213 8  -9732959.83947  22033377.077    22033387.1124
  21998195.145   -13653105.516 8 -10621106.77347  21998199.026    21998208.2744
  22513335.757   -13498429.785 8 -10500339.96646  22513336.339    22513347.2614
 00  6 23  0 37 30.0000000  0  8 11 25 05 21 29 15 30 23
  23968021.612    -4565042.019 8  -3541998.09045  23968029.166    23968038.5824
  22300065.119   -16518666.284 8 -12855783.98447  22300066.858    22300076.8434
  22385896.846   -14806233.052 8 -11516789.31246  22385899.391    22385909.6334
  20149498.169   -26330273.858 9 -20500394.96948  20149501.755    20149510.4784
  20504840.505   -23199138.005 9 -18056359.41048  20504843.637    20504851.8894
  22045833.141   -12457008.455 8  -9681932.03446  22045837.365    22045848.8094
  21987322.022   -13710253.410 9 -10665637.52147  21987324.028    21987333.4854
  22529564.878   -13413114.274 8 -10433860.42346  22529571.089    22529581.9114
 00  6 23  0 38  0.0000000  0  8 11 25 05 21 29 15 30 23
  23962007.351    -4596645.406 7  -3566624.04445  23962014.714    23962024.2434
  22285756.977   -16593835.437 8 -12914357.23747  22285762.286    22285772.0454
  22388832.789   -14790796.570 8 -11504760.86546  22388836.698    22388846.1824
  20152400.296   -26315028.129 9 -20488515.18048  20152402.852    20152411.7234
  20504443.003   -23201234.282 9 -18057992.86148  20504444.767    20504452.9614
  22058379.737   -12391074.780 8  -9630555.22146  22058383.795    22058394.4324
  21976534.492   -13766932.845 8 -10709803.24147  21976538.410    21976546.9394
  22545864.821   -13327479.603 8 -10367132.20646  22545867.335    22545877.9724
 00  6 23  0 38 30.0000000  0  8 11 25 05 21 29 15 30 23
  23956090.623    -4627737.084 8  -3590851.30245  23956098.043    23956108.3354
  22271511.729   -16668712.516 8 -12972702.89047  22271514.094    22271523.5924
  22391877.772   -14774787.535 8 -11492286.28446  22391883.036    22391893.0544
  20155408.002   -26299222.584 9 -20476199.16848  20155410.699    20155419.2574
  20504083.297   -23203116.443 9 -18059459.47048  20504086.604    20504094.5814
  22071013.563   -12324695.938 8  -9578831.52046  22071016.123    22071026.7744
  21965841.902   -13823141.700 8 -10753602.28347  21965842.078    21965851.1294
  22562218.287   -13241527.240 8 -10300156.40346  22562222.495    22562234.0404
 00  6 23  0 39  0.0000000  0  8 11 25 05 21 29 15 30 23
  23950272.937    -4658316.353 8  -3614679.23245  23950279.175    23950290.3934
  22257316.788   -16743296.840 8 -13030820.42447  22257321.026    22257330.5644
  22395036.145   -14758206.513 8 -11479366.00446  22395038.313    22395048.3074
  20158522.523   -26282856.628 9 -20463446.47348  20158525.372    20158533.6494
  20503765.410   -23204784.604 9 -18060759.32148  20503769.322    20503777.2034
  22083729.841   -12257874.718 8  -9526763.11146  22083731.813    22083742.8674
  21955235.191   -13878877.510 8 -10797032.72347  21955235.758    21955244.6214
  22578636.186   -13155258.695 8 -10232934.27146  22578639.446    22578650.9134
 00  6 23  0 39 30.0000000  0  8 11 25 05 21 29 15 30 23
  23944556.218    -4688382.350 8  -3638107.21445  23944558.257    23944568.3494
  22243182.451   -16817586.961 8 -13088708.70747  22243184.009    22243193.5914
  22398299.289   -14741053.660 8 -11466000.15646  22398302.413    22398312.7174
  20161743.172   -26265929.290 9 -20450256.33448  20161746.438    20161754.7744
  20503489.458   -23206238.078 9 -18061891.88748  20503492.798    20503500.5844
  22096529.034   -12190614.199 8  -9474352.38846  22096531.057    22096542.0944
  21944717.845   -13934137.516 9 -10840092.39947  21944720.063    21944728.5604
  22595117.836   -13068675.297 8 -10165466.77046  22595116.039    22595126.3404
 00  6 23  0 40  0.0000000  0  8 11 25 05 21 29 15 30 23
  23938929.608    -4717934.625 8  -3661134.89345  23938934.572    23938943.6764
  22229099.790   -16891582.165 8 -13146367.17947  22229102.291    22229112.5164
  22401670.062   -14723329.216 8 -11452188.89746  22401674.892    22401684.5774
  20165071.390   -26248440.467 9 -20436628.67748  20165074.273    20165082.7784
  20503254.122   -23207476.711 9 -18062857.04648  20503257.058    20503264.8654
  22109408.444   -12122917.036 8  -9421601.42946  22109413.228    22109424.7354
  21934292.038   -13988919.516 9 -10882779.60747  21934295.201    21934303.4164
  22611647.726   -12981778.582 8 -10097755.13446  22611652.451    22611662.7374
 00  6 23  0 40 30.0000000  0  8 11 25 05 21 29 15 30 23
  23933410.062    -4746972.598 8  -3683761.80845  23933408.393    23933419.0364
  22215076.319   -16965281.733 8 -13203795.28447  22215077.944    22215087.5874
  22405153.093   -14705033.519 8 -11437932.51446  22405156.232    22405166.9004
  20168506.054   -26230389.751 9 -20422563.18748  20168509.296    20168517.9014
  20503059.632   -23208500.060 9 -18063654.44648  20503062.188    20503070.1464
  22122373.509   -12054786.482 8  -9368512.76446  22122378.112    22122390.0834
  21923959.225   -14043221.016 9 -10925092.40947  21923961.910    21923970.6244
  22628242.749   -12894569.920 8 -10029800.43846  22628247.323    22628258.4874
 00  6 23  0 41  0.0000000  0  8 11 25 05 21 29 15 30 23
  23927972.608    -4775495.679 7  -3705987.53245  23927978.794    23927991.1384
  22201103.726   -17038685.084 8 -13260992.59647  22201110.531    22201119.6204
  22408742.224   -14686166.731 8 -11423231.13246  22408746.623    22408756.3064
  20172049.075   -26211776.318 9 -20408059.21248  20172051.641    20172059.8114
  20502904.743   -23209308.126 9 -18064284.09548  20502908.357    20502916.5214
  22135423.060   -11986225.437 8  -9315088.65146  22135425.295    22135436.5474
  21913718.922   -14097039.510 9 -10967028.82147  21913720.822    21913728.8794
  22644897.947   -12807051.030 8  -9961603.99846  22644901.907    22644913.0984
 00  6 23  0 41 30.0000000  0  8 11 25 05 21 29 15 30 23
  23922648.217    -4803503.222 8  -3727811.54245  23922651.429    23922661.3564
  22187193.105   -17111791.207 8 -13317958.29947  22187198.050    22187207.4914
  22412440.671   -14666729.363 8 -11408085.13846  22412445.272    22412455.6784
  20175697.291   -26192599.828 9 -20393116.48648  20175700.561    20175709.2944
  20502791.630   -23209900.317 9 -18064745.54048  20502795.631    20502803.8694
  22148551.375   -11917236.823 8  -9261331.34746  22148553.611    22148563.9154
  21903571.029   -14150372.905 9 -11008587.21347  21903571.745    21903580.1094
  22661615.976   -12719223.248 8  -9893166.86846  22661614.664    22661626.2504
 00  6 23  0 42  0.0000000  0  8 11 25 05 21 29 15 30 23
  23917418.802    -4830994.910 8  -3749233.57245  23917419.463    23917429.8374
  22173340.516   -17184599.538 8 -13374691.95447  22173343.176    22173352.6754
  22416248.340   -14646721.872 8 -11392494.91046  22416252.729    22416262.6804
  20179452.526   -26172860.490 9 -20377735.19248  20179456.541    20179465.3354
  20502720.224   -23210276.541 9 -18065038.68748  20502723.795    20502732.2064
  22161759.878   -11847823.529 8  -9207243.12046  22161762.435    22161773.3114
  21893510.650   -14203218.538 9 -11049765.52147  21893515.546    21893523.7614
  22678379.960   -12631087.964 8  -9824490.15146  22678386.303    22678397.9574
 00  6 23  0 42 30.0000000  0  8 11 25 05 21 29 15 30 23
  23912288.151    -4857970.154 8  -3770253.18345  23912286.014    23912295.4514
  22159542.663   -17257108.931 8 -13431192.65747  22159545.214    22159554.9074
  22420161.037   -14626144.818 8 -11376460.84946  22420168.812    22420178.5644
  20183316.734   -26152557.909 9 -20361915.00448  20183320.126    20183328.8844
  20502690.653   -23210436.299 9 -18065163.16148  20502693.607    20502701.8124
  22175049.154   -11777988.647 8  -9152826.38546  22175051.988    22175062.6624
  21883550.700   -14255574.392 9 -11090562.18447  21883552.455    21883561.2004
  22695215.404   -12542646.690 8  -9755574.96646  22695216.350    22695227.2994
 00  6 23  0 43  0.0000000  0  8 11 25 05 21 29 15 30 23
  23907247.881    -4884428.451 8  -3790869.97445  23907251.044    23907261.1704
  22145800.298   -17329318.646 8 -13487459.86147  22145803.787    22145813.6564
  22424189.686   -14604998.648 8 -11359983.34046  22424193.042    22424203.3794
  20187285.898   -26131691.380 9 -20345655.38048  20187290.884    20187299.5864
  20502699.205   -23210379.354 9 -18065118.78248  20502704.406    20502712.5134
  22188416.928   -11707735.101 8  -9098083.41946  22188420.263    22188431.2334
  21873680.437   -14307437.991 9 -11130975.29447  21873682.954    21873691.2534
  22712099.645   -12453900.901 8  -9686422.52646  22712103.979    22712115.6324
 00  6 23  0 43 30.0000000  0  8 11 25 05 21 29 15 30 23
  23902309.549    -4910369.304 7  -3811083.57545  23902314.743    23902324.4414
  22132115.654   -17401228.032 8 -13543493.03347  22132119.863    22132130.2174
  22428324.037   -14583283.774 8 -11343062.67246  22428325.524    22428335.1184
  20191365.944   -26110260.922 9 -20328956.32848  20191369.107    20191377.8264
  20502753.664   -23210105.487 9 -18064905.37048  20502756.211    20502764.6594
  22201866.506   -11637066.109 8  -9043016.73746  22201868.049    22201879.4934
  21863906.796   -14358807.052 9 -11171003.04847  21863907.747    21863916.2634
  22729047.155   -12364852.110 8  -9617033.96346  22729049.104    22729059.8824
 00  6 23  0 44  0.0000000  0  8 11 25 05 21 29 15 30 23
  23897476.841    -4935791.994 8  -3830893.43045  23897477.491    23897486.9984
  22118488.279   -17472836.703 8 -13599291.87247  22118493.112    22118502.8384
  22432565.206   -14561000.697 8 -11325699.25146  22432565.387    22432575.5774
  20195551.693   -26088266.512 9 -20311817.83848  20195554.205    20195563.3344
  20502845.718   -23209614.262 9 -18064522.59848  20502849.751    20502858.1054
  22215391.736   -11565984.743 8  -8987628.72646  22215394.615    22215406.7264
  21854224.114   -14409679.346 9 -11210643.71347  21854226.886    21854235.8974
  22746046.847   -12275501.856 8  -9547410.51646  22746052.098    22746063.7974
 00  6 23  0 44 30.0000000  0  8 11 25 05 21 29 15 30 23
  23892731.095    -4960696.397 8  -3850299.41345  23892736.722    23892748.7184
  22104918.830   -17544143.297 8 -13654855.34147  22104923.983    22104933.6594
  22436913.282   -14538150.044 8 -11307893.56846  22436913.633    22436923.5964
  20199843.800   -26065707.966 9 -20294239.76248  20199846.947    20199855.7764
  20502982.075   -23208905.272 9 -18063970.13048  20502984.828    20502993.0374
  22228995.266   -11494493.994 8  -8931921.71246  22228998.913    22229010.2104
  21844636.973   -14460052.341 9 -11249895.29147  21844640.665    21844649.6284
  22763111.313   -12185851.769 8  -9477553.43746  22763111.808    22763123.9274
 00  6 23  0 45  0.0000000  0  8 11 25 05 21 29 15 30 23
  23888091.365    -4985082.226 8  -3869301.30045  23888096.484    23888107.8444
  22091408.206   -17615147.283 8 -13710183.02147  22091412.375    22091421.2984
  22441366.074   -14514732.128 8 -11289645.87246  22441369.490    22441379.7584
  20204244.465   -26042584.302 9 -20276221.33248  20204247.117    20204256.2844
  20503157.727   -23207978.296 9 -18063247.81548  20503161.280    20503169.5444
  22242678.646   -11422596.891 8  -8875898.06946  22242680.724    22242691.8464
  21835147.290   -14509923.903 9 -11288756.13947  21835150.252    21835158.9954
  22780228.027   -12095903.265 8  -9407463.82946  22780229.087    22780240.7054
 00  6 23  0 45 30.0000000  0  8 11 25 05 21 29 15 30 23
  23883549.956    -5008948.742 8  -3887898.57945  23883554.875    23883565.7724
  22077956.523   -17685848.038 8 -13765274.41847  22077957.880    22077966.8954
  22445934.287   -14490747.672 8 -11270956.69546  22445933.440    22445943.9254
  20208752.680   -26018895.310 9 -20257762.38848  20208755.187    20208764.0114
  20503378.295   -23206832.922 9 -18062355.31148  20503379.351    20503387.6174
  22256437.867   -11350296.481 8  -8819560.16746  22256439.662    22256449.7014
  21825754.877   -14559291.877 9 -11327224.62447  21825755.998    21825764.7614
  22797395.546   -12005657.928 8  -9337142.93246  22797402.726    22797413.0044
 00  6 23  0 46  0.0000000  0  8 11 25 05 21 29 15 30 23
  23879108.770    -5032295.566 8  -3906090.93645  23879112.708    23879123.0774
  22064557.521   -17756244.745 8 -13820128.89347  22064561.485    22064571.3504
  22450603.287   -14466197.270 8 -11251826.52946  22450605.508    22450615.4984
  20213364.778   -25994641.433 9 -20238863.27548  20213370.773    20213379.5144
  20503635.792   -23205468.900 9 -18061292.44048  20503638.757    20503646.9854
  22270268.519   -11277595.832 8  -8762910.37446  22270273.197    22270284.5104
  21816454.196   -14608153.713 9 -11365298.69347  21816457.655    21816466.7754
  22814628.505   -11915117.220 8  -9266591.84046  22814632.084    22814642.6184
 00  6 23  0 46 30.0000000  0  8 11 25 05 21 29 15 30 23
  23874759.528    -5055122.739 7  -3923878.32045  23874768.234    23874778.6934
  22051220.546   -17826336.615 9 -13874745.84247  22051224.263    22051233.2214
  22455380.532   -14441081.515 8 -11232255.81746  22455384.367    22455395.1884
  20218091.907   -25969822.560 9 -20219523.91048  20218093.641    20218102.4044
  20503935.951   -23203885.793 9 -18060058.85248  20503939.868    20503948.2024
  22284178.519   -11204498.011 8  -8705951.09946  22284183.312    22284194.3734
  21807252.702   -14656507.669 9 -11402977.02447  21807255.943    21807265.3684
  22831914.265   -11824282.773 8  -9195811.86446  22831916.856    22831928.3574
 00  6 23  0 47  0.0000000  0  8 11 25 05 21 29 15 30 23
  23870522.655    -5077429.667 8  -3941260.31445  23870524.083    23870532.8434
  22037941.535   -17896122.881 9 -13929124.65847  22037944.776    22037953.1444
  22460269.873   -14415401.035 8 -11212245.07146  22460272.227    22460282.1424
  20222919.860   -25944438.328 9 -20199744.00148  20222923.810    20222932.8194
  20504279.620   -23202083.392 9 -18058654.38348  20504283.007    20504291.3784
  22298165.358   -11131005.946 8  -8648684.62246  22298168.740    22298179.8384
  21798147.189   -14704351.496 9 -11440257.85247  21798152.156    21798160.8994
  22849255.160   -11733156.024 8  -9124804.15546  22849258.077    22849269.3554
 00  6 23  0 47 30.0000000  0  8 11 25 05 21 29 15 30 23
  23866376.580    -5099216.066 7  -3958236.72945  23866378.551    23866389.4144
  22024720.681   -17965603.101 9 -13983265.00247  22024722.490    22024731.5054
  22465261.229   -14389156.510 8 -11191794.79546  22465266.258    22465276.3644
  20227860.564   -25918488.628 9 -20179523.47248  20227862.280    20227871.1134
  20504663.693   -23200061.315 9 -18057078.74448  20504667.790    20504676.1304
  22312224.746   -11057122.921 8  -8591113.50946  22312228.682    22312238.9284
  21789143.773   -14751682.969 9 -11477139.45747  21789145.913    21789154.1144
  22866653.318   -11641738.843 8  -9053570.11646  22866654.692    22866665.2834
 00  6 23  0 48  0.0000000  0  8 11 25 05 21 29 15 30 23
  23862323.906    -5120481.540 8  -3974807.23745  23862330.278    23862341.4154
  22011556.770   -18034776.381 9 -14037166.16747  22011559.212    22011569.0684
  22470363.122   -14362348.826 8 -11170905.71646  22470367.232    22470377.6774
  20232906.043   -25891973.212 9 -20158862.11948  20232907.965    20232916.5294
  20505090.712   -23197819.113 9 -18055331.57348  20505094.379    20505102.6044
  22326359.005   -10982852.112 8  -8533240.23346  22326361.738    22326372.9344
  21780231.919   -14798499.670 9 -11513619.95847  21780236.554    21780244.9924
  22884104.483   -11550032.799 8  -8982110.97646  22884106.412    22884118.1514
 00  6 23  0 48 30.0000000  0  8 11 25 05 21 29 15 30 23
  23858383.746    -5141225.947 8  -3990971.74045  23858383.626    23858393.0094
  21998453.081   -18103642.358 8 -14090827.86747  21998453.905    21998463.7064
  22475570.885   -14334978.661 8 -11149578.32746  22475575.852    22475586.2394
  20238056.194   -25864892.504 9 -20137760.28248  20238060.979    20238069.9164
  20505560.446   -23195356.429 9 -18053412.60148  20505563.153    20505571.1624
  22340565.663   -10908196.542 8  -8475067.14446  22340568.449    22340579.4274
  21771422.663   -14844799.889 9 -11549698.01147  21771425.515    21771434.5004
  22901601.405   -11458039.724 8  -8910428.22446  22901611.772    22901622.7824
 00  6 23  0 49  0.0000000  0  8 11 25 05 21 29 15 30 23
  23854532.619    -5161449.275 8  -4006730.21545  23854535.788    23854545.2514
  21985404.964   -18172200.391 9 -14144249.62847  21985407.983    21985416.6414
  22480891.863   -14307046.629 8 -11127813.11746  22480890.753    22480901.1754
  20243318.428   -25837246.266 9 -20116217.77348  20243321.940    20243330.8484
  20506069.064   -23192672.878 9 -18051321.52548  20506073.707    20506081.8814
  22354841.698   -10833159.570 8  -8416596.86346  22354846.645    22354859.1694
  21762712.484   -14890581.374 9 -11585371.86547  21762713.697    21762722.1724
  22919176.088   -11365761.045 8  -8838522.88746  22919172.435    22919183.7304
 00  6 23  0 49 30.0000000  0  8 11 25 05 21 29 15 30 23
  23850780.409    -5181150.991 8  -4022082.19645  23850785.756    23850797.4334
  21972417.191   -18240449.637 9 -14197430.78647  21972420.474    21972428.7354
  22486310.443   -14278553.697 8 -11105610.84846  22486313.388    22486323.3844
  20248687.552   -25809034.017 9 -20094234.21648  20248690.805    20248699.5334
  20506621.671   -23189768.123 9 -18049058.08048  20506626.656    20506634.8454
  22369193.396   -10757744.267 8  -8357831.77946  22369197.945    22369210.0874
  21754097.402   -14935841.760 9 -11620639.65447  21754101.128    21754108.8374
  22936785.933   -11273198.261 8  -8766396.20046  22936785.531    22936797.7034
 00  6 23  0 50  0.0000000  0  8 11 25 05 21 29 15 30 23
  23847133.881    -5200331.069 8  -4037027.74645  23847137.181    23847147.8844
  21959488.213   -18308389.365 9 -14250370.76447  21959491.971    21959501.0894
  22491841.151   -14249500.591 8 -11082972.08646  22491842.196    22491852.3264
  20254163.794   -25780256.354 9 -20071810.07648  20254167.021    20254175.7444
  20507220.208   -23186642.005 9 -18046622.13948  20507221.670    20507229.5514
  22383616.707   -10681953.550 8  -8298774.18046  22383620.684    22383632.3724
  21745584.332   -14980579.125 9 -11655499.91047  21745587.925    21745595.9804
  22954444.378   -11180353.046 8  -8694049.48346  22954452.797    22954465.9084
 00  6 23  0 50 30.0000000  0  8 11 25 05 21 29 15 30 23
  23843585.395    -5218989.330 8  -4051566.68345  23843586.491    23843596.1304
  21946617.636   -18376019.087 9 -14303069.17447  21946622.481    21946631.4574
  22497474.230   -14219888.145 8 -11059897.47346  22497477.435    22497486.7654
  20259746.765   -25750913.059 9 -20048945.18348  20259750.736    20259759.3004
  20507856.131   -23183293.810 9 -18044013.15248  20507859.107    20507866.8324
  22398109.412   -10605790.671 8  -8239426.58146  22398114.804    22398126.1444
  21737171.936   -15024791.401 9 -11689950.99247  21737173.779    21737182.5814
  22972175.198   -11087227.161 8  -8621484.04646  22972175.167    22972187.7074
 00  6 23  0 51  0.0000000  0  8 11 25 05 21 29 15 30 23
  23840134.204    -5237125.692 7  -4065698.91945  23840134.308    23840145.4924
  21933808.192   -18443338.030 9 -14355525.43347  21933811.719    21933820.7154
  22503217.784   -14189717.094 8 -11036387.56946  22503218.962    22503227.9674
  20265440.396   -25721004.473 9 -20025639.80847  20265441.848    20265450.7604
  20508535.478   -23179723.427 9 -18041231.02548  20508538.330    20508546.2994
  22412675.992   -10529258.974 8  -8179791.57046  22412677.891    22412689.1144
  21728857.152   -15068476.830 9 -11723991.55347  21728861.091    21728869.5784
  22989945.410   -10993822.369 8  -8548701.25646  22989949.315    22989961.0764
 00  6 23  0 51 30.0000000  0  8 11 25 05 21 29 15 30 23
  23836780.042    -5254740.004 7  -4079424.37345  23836782.737    23836793.5164
  21921057.527   -18510345.760 9 -14407739.17747  21921060.534    21921069.3254
  22509061.524   -14158988.355 8 -11012443.12246  22509065.295    22509075.1404
  20271237.701   -25690530.613 9 -20001893.95847  20271240.877    20271249.9884
  20509258.282   -23175930.486 9 -18038275.47948  20509259.888    20509267.9834
  22427310.184   -10452361.560 8  -8119871.58746  22427312.088    22427321.3684
  21720645.461   -15111633.053 9 -11757619.73547  21720648.685    21720657.5724
  23007779.636   -10900140.239 8  -8475702.38946  23007776.958    23007788.7904
 00  6 23  0 52  0.0000000  0  8 11 25 05 21 29 15 30 23
  23833526.601    -5271831.981 8  -4092742.84845  23833531.067    23833540.1304
  21908366.522   -18577041.591 9 -14459709.89147  21908368.914    21908377.4104
  22515011.985   -14127702.796 8 -10988064.77246  22515019.366    22515029.1764
  20277144.953   -25659491.582 9 -19977707.71648  20277147.371    20277156.6844
  20510019.666   -23171914.576 9 -18035146.18848  20510024.417    20510032.1394
  22442005.382   -10375101.600 8  -8059669.09646  22442012.742    22442023.2984
  21712536.074   -15154258.348 9 -11790834.20047  21712537.531    21712546.2094
  23025651.731   -10806182.309 8  -8402488.64646  23025657.150    23025668.7694
 00  6 23  0 52 30.0000000  0  8 11 25 05 21 29 15 30 23
  23830378.040    -5288401.552 8  -4105654.22945  23830377.858    23830387.6074
  21895734.476   -18643424.422 9 -14511436.69847  21895736.530    21895745.8064
  22521074.683   -14095861.165 8 -10963253.13446  22521078.838    22521089.2614
  20283160.165   -25627887.417 9 -19953081.10848  20283161.798    20283170.5304
  20510827.900   -23167675.120 9 -18031842.71248  20510831.247    20510838.8474
  22456781.869   -10297482.184 8  -7999186.53246  22456784.182    22456794.9704
  21704525.994   -15196350.615 9 -11823633.32847  21704528.106    21704536.2474
  23043588.641   -10711950.399 8  -8329061.39945  23043588.063    23043600.1084
 00  6 23  0 53  0.0000000  0  8 11 25 05 21 29 15 30 23
  23827319.124    -5304448.808 8  -4118158.58445  23827323.648    23827334.3164
  21883161.290   -18709494.119 9 -14562919.51247  21883163.917    21883172.6814
  22527243.411   -14063464.282 8 -10938008.81346  22527244.465    22527254.1744
  20289280.606   -25595718.082 9 -19928014.10647  20289283.265    20289292.1164
  20511676.317   -23163211.824 9 -18028364.80648  20511680.492    20511688.3214
  22471619.011   -10219506.431 8  -7938426.30946  22471622.545    22471633.5244
  21696618.801   -15237907.965 9 -11856015.64147  21696619.446    21696628.1464
  23061571.031   -10617446.146 8  -8255421.93846  23061572.688    23061584.4304
 00  6 23  0 53 30.0000000  0  8 11 25 05 21 29 15 30 23
  23824368.093    -5319973.581 8  -4130255.78445  23824369.785    23824380.1274
  21870646.659   -18775250.203 9 -14614157.94847  21870650.324    21870659.5584
  22533509.522   -14030513.180 8 -10912332.63946  22533514.169    22533524.4534
  20295509.953   -25562983.806 9 -19902506.89248  20295512.648    20295521.4404
  20512568.678   -23158524.385 9 -18024712.24548  20512572.531    20512580.1084
  22486524.066   -10141177.725 8  -7877391.03546  22486527.735    22486539.2664
  21688808.548   -15278928.479 9 -11887979.63747  21688813.312    21688821.9874
  23079600.708   -10522671.360 8  -8181571.66346  23079607.276    23079619.8634
 00  6 23  0 54  0.0000000  0  8 11 25 05 21 29 15 30 23
  23821506.550    -5334975.924 7  -4141945.89345  23821513.686    23821525.5014
  21858195.352   -18840692.383 9 -14665151.78747  21858197.794    21858206.3394
  22539887.287   -13997008.898 8 -10886225.42246  22539889.508    22539900.1884
  20301845.444   -25529684.706 9 -19876559.55648  20301849.315    20301858.1644
  20513504.145   -23153612.332 9 -18020884.65948  20513507.371    20513514.8634
  22501496.377   -10062499.076 8  -7816083.09546  22501499.362    22501511.4214
  21681106.102   -15319410.129 9 -11919523.74647  21681109.865    21681118.5274
  23097693.694   -10427627.609 8  -8107511.82745  23097693.831    23097706.2084
 00  6 23  0 54 30.0000000  0  8 11 25 05 21 29 15 30 23
  23818757.183    -5349455.892 8  -4153229.00145  23818759.146    23818770.8084
  21845801.244   -18905819.352 9 -14715899.99247  21845804.156    21845813.1774
  22546370.286   -13962952.547 8 -10859688.02146  22546370.573    22546380.3264
  20308291.210   -25495821.626 9 -19850172.75548  20308293.244    20308302.1774
  20514483.146   -23148475.343 9 -18016881.79748  20514484.933    20514492.3124
  22516531.985    -9983474.067 8  -7754505.28346  22516537.628    22516548.8854
  21673504.904   -15359351.265 9 -11950646.67447  21673509.618    21673518.6664
  23115829.838   -10332316.655 8  -8033243.73045  23115831.445    23115842.4694
 00  6 23  0 55  0.0000000  0  8 11 25 05 21 29 15 30 23
  23816098.777    -5363413.542 8  -4164105.05945  23816103.573    23816113.4884
  21833465.808   -18970630.823 9 -14766402.36447  21833471.149    21833480.0624
  22552955.167   -13928345.100 8 -10832721.20446  22552956.572    22552965.7504
  20314842.727   -25461394.614 9 -19823346.53248  20314844.699    20314853.3214
  20515502.559   -23143113.067 9 -18012703.38248  20515505.179    20515512.7744
  22531636.478    -9904105.857 8  -7692660.00946  22531641.144    22531652.4054
  21666009.044   -15398750.011 9 -11981346.94847  21666011.975    21666021.1454
  23134014.219   -10236740.371 8  -7958768.86045  23134018.680    23134031.1454
 00  6 23  0 55 30.0000000  0  8 11 25 05 21 29 15 30 23
  23813543.825    -5376848.886 8  -4174574.11545  23813547.469    23813555.6094
  21821195.273   -19035126.470 9 -14816658.63747  21821197.802    21821207.2424
  22559642.900   -13893187.534 8 -10805325.70946  22559646.610    22559655.7004
  20321500.214   -25426403.473 9 -19796080.71848  20321503.242    20321511.5864
  20516565.964   -23137524.934 9 -18008348.98248  20516568.532    20516576.1004
  22546811.165    -9824397.439 8  -7630549.64846  22546810.021    22546820.9784
  21658613.372   -15437604.457 9 -12011623.09947  21658618.169    21658627.0144
  23152257.084   -10140900.453 8  -7884088.60445  23152256.884    23152267.1434
 00  6 23  0 56  0.0000000  0  8 11 25 05 21 29 15 30 23
  23811087.613    -5389761.962 8  -4184636.23845  23811089.019    23811099.6724
  21808981.049   -19099305.920 9 -14866668.52647  21808984.699    21808993.6274
  22566436.571   -13857480.895 8 -10777502.36046  22566441.365    22566450.2244
  20328265.712   -25390848.718 9 -19768375.72947  20328268.913    20328277.3744
  20517671.103   -23131710.593 9 -18003818.32148  20517674.900    20517682.3744
  22562039.221    -9744352.111 8  -7568176.74146  22562042.095    22562053.1714
  21651327.812   -15475912.670 9 -12041473.61147  21651328.625    21651337.0564
  23170548.213   -10044798.752 8  -7809204.34945  23170544.459    23170557.5864
 00  6 23  0 56 30.0000000  0  8 11 25 05 21 29 15 30 23
  23808728.408    -5402152.895 8  -4194291.48445  23808732.408    23808741.2264
  21796832.577   -19163168.207 9 -14916431.27247  21796832.482    21796841.0174
  22573341.223   -13821226.423 8 -10749252.15146  22573340.269    22573350.2414
  20335138.831   -25354730.723 9 -19740231.84947  20335141.729    20335150.3104
  20518821.744   -23125669.696 9 -17999111.11548  20518824.613    20518832.0294
  22577334.097    -9663973.246 8  -7505543.95246  22577336.685    22577347.9994
  21644138.776   -15513672.934 9 -12070897.13847  21644143.117    21644151.5084
  23188873.849    -9948436.969 8  -7734117.45545  23188881.367    23188893.6414
 00  6 23  0 57  0.0000000  0  8 11 25 05 21 29 15 30 23
  23806470.280    -5414021.841 7  -4203540.01345  23806472.719    23806483.1074
  21784739.105   -19226713.161 9 -14965946.75247  21784740.183    21784748.6564
  22580341.896   -13784425.152 8 -10720575.85746  22580343.502    22580352.9224
  20342118.680   -25318050.187 9 -19711649.62447  20342121.909    20342130.6644
  20520015.126   -23119401.780 9 -17994227.01748  20520017.245    20520024.7974
  22592688.197    -9583264.067 8  -7442653.77646  22592695.266    22592707.0944
  21637060.455   -15550883.459 9 -12099892.29747  21637061.987    21637070.5684
  23207270.826    -9851816.515 8  -7658829.00545  23207267.833    23207280.7654
 00  6 23  0 57 30.0000000  0  8 11 25 05 21 29 15 30 23
  23804307.766    -5425369.088 8  -4212382.04745  23804313.705    23804324.6194
  21772706.316   -19289940.216 9 -15015214.51647  21772708.179    21772716.5324
  22587445.500   -13747078.113 8 -10691474.29546  22587449.962    22587459.6484
  20349205.437   -25280806.927 9 -19682628.91547  20349209.076    20349217.8754
  20521250.310   -23112906.481 9 -17989165.74548  20521253.372    20521260.5574
  22608114.783    -9502227.831 8  -7379508.74746  22608116.716    22608127.4094
  21630083.265   -15587542.402 9 -12128457.64847  21630085.810    21630093.8414
  23225697.065    -9754939.665 8  -7583340.79145  23225703.324    23225715.2844
 00  6 23  0 58  0.0000000  0  8 11 25 05 21 29 15 30 23
  23802248.422    -5436194.704 8  -4220817.60945  23802252.171    23802263.1634
  21760733.874   -19352848.680 9 -15064234.02547  21760736.750    21760745.4874
  22594657.203   -13709186.444 8 -10661948.34646  22594660.521    22594670.6384
  20356400.730   -25243001.519 9 -19653170.17647  20356403.205    20356411.9354
  20522529.059   -23106183.350 9 -17983926.93848  20522532.803    20522540.2014
  22623597.603    -9420867.914 8  -7316111.49146  22623598.865    22623610.1024
  21623214.621   -15623648.103 9 -12156591.90847  21623215.539    21623222.9694
  23244181.819    -9657808.190 8  -7507654.26545  23244187.273    23244198.7044
 00  6 23  0 58 30.0000000  0  8 11 25 05 21 29 15 30 23
  23800286.576    -5446498.770 8  -4228846.78245  23800292.311    23800303.7074
  21748821.713   -19415438.267 9 -15113005.06447  21748825.892    21748834.8844
  22601971.129   -13670751.337 8 -10631998.92246  22601973.986    22601984.5154
  20363701.396   -25204634.838 9 -19623274.08247  20363704.255    20363713.1514
  20523852.234   -23099232.105 9 -17978510.38548  20523855.394    20523863.0814
  22639135.783    -9339187.483 8  -7252464.48746  22639141.744    22639153.5394
  21616446.104   -15659198.776 9 -12184293.68047  21616450.407    21616458.3874
  23262718.348    -9560423.422 8  -7431770.24745  23262718.143    23262731.3914
 00  6 23  0 59  0.0000000  0  8 11 25 05 21 29 15 30 23
  23798429.271    -5456281.713 8  -4236469.86045  23798431.145    23798441.7214
  21736971.495   -19477708.221 9 -15161527.02647  21736976.638    21736985.6794
  22609389.015   -13631774.053 8 -10601627.01046  22609391.518    22609401.6184
  20371108.763   -25165707.123 9 -19592940.82147  20371111.956    20371120.8094
  20525217.559   -23092052.107 9 -17972915.58248  20525221.718    20525229.3214
  22654744.509    -9257189.588 8  -7188570.11246  22654745.646    22654757.6304
  21609789.394   -15694192.986 9 -12211561.84547  21609791.201    21609799.1484
  23281297.193    -9462787.560 8  -7355690.59845  23281298.032    23281310.5714
 00  6 23  0 59 30.0000000  0  8 11 25 05 21 29 15 30 23
  23796665.046    -5465543.542 8  -4243686.89245  23796669.068    23796677.7094
  21725184.564   -19539658.578 9 -15209799.94347  21725188.384    21725196.9304
  22616910.363   -13592255.713 8 -10570833.53346  22616912.023    22616921.9714
  20378624.236   -25126218.694 9 -19562170.64147  20378626.516    20378635.2554
  20526627.834   -23084642.905 9 -17967142.17848  20526631.503    20526638.8994
  22670409.492    -9174877.690 8  -7124431.06146  22670408.891    22670421.3514
  21603234.866   -15728628.884 9 -12238394.96747  21603238.009    21603245.9324
  23299923.305    -9364902.390 8  -7279416.69345  23299925.057    23299938.0054
 00  6 23  1  0  0.0000000  0  8 11 25 05 21 29 15 30 23
  23795001.864    -5474284.661 8  -4250498.18945  23795005.806    23795015.8664
  21713456.349   -19601288.622 9 -15257823.27747  21713460.533    21713468.8424
  22624535.945   -13552197.705 8 -10539619.52646  22624535.450    22624544.3924
  20386243.757   -25086169.754 9 -19530963.69447  20386247.278    20386256.6684
  20528082.400   -23077004.279 9 -17961190.00548  20528085.218    20528092.4774
  22686127.195    -9092255.124 8  -7060049.91646  22686131.779    22686143.5894
  21596790.719   -15762504.837 9 -12264791.76347  21596791.332    21596799.1694
  23318597.940    -9266769.723 8  -7202949.87845  23318599.361    23318611.5944
 00  6 23  1  0 30.0000000  0  8 11 25 05 21 29 15 30 23
  23793433.704    -5482505.248 8  -4256903.87245  23793441.239    23793450.2974
  21701791.716   -19662597.725 9 -15305596.52347  21701793.564    21701802.4934
  22632253.949   -13511601.159 8 -10507985.85446  22632260.816    22632270.0794
  20393971.358   -25045560.990 9 -19499320.53547  20393974.916    20393984.1274
  20529577.922   -23069135.802 9 -17955058.72348  20529582.421    20529589.9414
  22701906.777    -9009325.124 8  -6995429.20946  22701912.324    22701924.4064
  21590447.601   -15795819.101 9 -12290750.87147  21590451.281    21590460.1934
  23337318.881    -9168391.253 8  -7126291.55145  23337320.457    23337332.8614
 00  6 23  1  1  0.0000000  0  8 11 25 05 21 29 15 30 23
  23791976.249    -5490205.693 8  -4262904.27345  23791975.412    23791986.3394
  21690184.207   -19723585.664 9 -15353119.50947  21690187.694    21690196.6574
  22640086.733   -13470467.224 8 -10475933.45446  22640087.427    22640096.9874
  20401805.610   -25004392.598 9 -19467241.30147  20401809.032    20401818.2564
  20531120.310   -23061036.924 9 -17948747.90748  20531123.732    20531130.9674
  22717748.301    -8926090.733 8  -6930571.31646  22717752.005    22717763.5654
  21584214.320   -15828570.286 9 -12316271.23847  21584219.263    21584227.4674
  23356089.081    -9069768.872 8  -7049443.14545  23356088.738    23356101.9784
 00  6 23  1  1 30.0000000  0  8 11 25 05 21 29 15 30 23
  23790601.376    -5497386.234 7  -4268499.55845  23790607.969    23790619.3264
  21678639.021   -19784252.021 9 -15400391.91047  21678642.964    21678652.3754
  22648014.775   -13428797.080 8 -10443463.21946  22648017.497    22648026.4544
  20409746.902   -24962665.848 9 -19434726.97747  20409749.478    20409758.5674
  20532705.654   -23052707.241 9 -17942257.25448  20532708.639    20532716.5254
  22733648.346    -8842555.515 8  -6865479.03046  22733648.029    22733659.5184
  21578087.749   -15860756.959 9 -12341351.71647  21578094.212    21578102.8664
  23374903.556    -8970904.612 8  -6972406.27345  23374902.134    23374914.5334
 00  6 23  1  2  0.0000000  0  8 11 25 05 21 29 15 30 23
  23789337.377    -5504047.423 7  -4273690.15645  23789341.876    23789351.3514
  21667157.972   -19844596.291 9 -15447413.33347  21667159.866    21667169.0204
  22656040.955   -13386592.250 8 -10410576.35246  22656048.246    22656057.6354
  20417793.596   -24920381.394 9 -19401778.08547  20417795.879    20417804.7454
  20534334.798   -23044146.313 9 -17935586.39948  20534337.572    20534345.5994
  22749600.100    -8758722.970 8  -6800155.06146  22749601.821    22749612.4464
  21572071.827   -15892377.382 9 -12365990.95547  21572076.418    21572085.8314
  23393752.805    -8871800.194 8  -6895182.29945  23393760.847    23393774.4644
 00  6 23  1  2 30.0000000  0  8 11 25 05 21 29 15 30 23
  23788169.326    -5510189.305 7  -4278476.07245  23788172.203    23788182.2644
  21655737.578   -19904617.974 9 -15494183.39347  21655738.338    21655746.6504
  22664179.740   -13343854.137 8 -10377273.93946  22664181.338    22664190.2324
  20425945.481   -24877539.620 9 -19368394.91247  20425948.423    20425957.3544
  20536009.037   -23035353.705 9 -17928735.02048  20536010.914    20536018.6534
  22765603.127    -8674596.307 8  -6734601.90046  22765610.424    22765621.6544
  21566166.617   -15923429.986 9 -12390187.73747  21566167.832    21566176.5694
  23412670.910    -8772457.298 8  -6817772.51645  23412665.001    23412678.9544
 00  6 23  1  3  0.0000000  0  8 11 25 05 21 29 15 30 23
  23787095.715    -5515812.320 7  -4282857.67545  23787102.174    23787112.4004
  21644376.539   -19964316.845 9 -15540701.91147  21644378.288    21644386.3444
  22672408.405   -13300584.090 8 -10343557.04246  22672414.820    22672424.5674
  20434205.386   -24834140.302 9 -19334577.29947  20434207.022    20434215.9224
  20537724.448   -23026329.017 9 -17921702.79948  20537728.121    20537735.8914
  22781671.916    -8590178.877 8  -6668822.16546  22781674.030    22781685.6114
  21560363.303   -15953913.443 9 -12413941.04247  21560367.429    21560375.6614
  23431605.819    -8672878.069 8  -6740178.52145  23431614.766    23431628.2114
 00  6 23  1  3 30.0000000  0  8 11 25 05 21 29 15 30 23
  23786130.452    -5520917.022 8  -4286835.39345  23786130.910    23786141.5084
  21633074.043   -20023692.766 9 -15586968.78747  21633078.889    21633087.7284
  22680749.289   -13256783.467 8 -10309426.70146  22680750.539    22680759.0724
  20442568.855   -24790185.063 9 -19300326.51547  20442571.577    20442580.3614
  20539487.100   -23017071.686 9 -17914489.29148  20539489.749    20539497.4774
  22797793.331    -8505473.900 8  -6602818.37646  22797792.594    22797804.8134
  21554673.678   -15983826.337 9 -12437249.75047  21554675.260    21554683.6694
  23450611.889    -8573064.173 8  -6662401.69645  23450608.901    23450622.2564
 00  6 23  1  4  0.0000000  0  8 11 25 05 21 29 15 30 23
  23785256.897    -5525503.928 8  -4290409.61845  23785259.276    23785268.8524
  21621836.860   -20082745.148 9 -15632983.53747  21621841.514    21621850.2754
  22689188.609   -13212453.702 8 -10274884.03146  22689186.329    22689196.4164
  20451038.568   -24745674.784 9 -19265643.22947  20451041.780    20451050.6264
  20541293.470   -23007581.427 9 -17907094.28048  20541295.677    20541303.3724
  22813960.128    -8420484.716 8  -6536593.13246  22813965.552    22813977.6454
  21549090.509   -16013166.834 9 -12460112.43247  21549091.873    21549099.9104
  23469641.445    -8473017.545 8  -6584443.53845  23469647.072    23469660.6184
 00  6 23  1  4 30.0000000  0  8 11 25 05 21 29 15 30 23
  23784483.394    -5529573.409 8  -4293580.63745  23784484.530    23784494.0174
  21610661.326   -20141473.334 9 -15678745.67747  21610665.638    21610674.4764
  22697715.557   -13167595.976 8 -10239929.98746  22697721.956    22697732.7354
  20459613.543   -24700609.587 9 -19230527.52347  20459617.389    20459625.9874
  20543143.200   -22997857.736 9 -17899517.37148  20543145.994    20543153.6974
  22830186.330    -8335214.607 8  -6470148.98746  22830192.088    22830203.9464
  21543615.661   -16041933.786 9 -12482528.19447  21543617.635    21543625.8224
  23488720.945    -8372740.165 8  -6506305.56945  23488729.121    23488743.6314
 00  6 23  1  5  0.0000000  0  8 11 25 05 21 29 15 30 23
  23783796.983    -5533125.940 7  -4296348.86445  23783807.791    23783818.1794
  21599551.309   -20199877.280 9 -15724255.17547  21599552.139    21599560.6024
  22706355.118   -13122211.778 8 -10204565.65946  22706358.033    22706368.1534
  20468297.072   -24654989.937 9 -19194979.76647  20468298.511    20468307.4064
  20545037.675   -22987900.101 9 -17891758.17048  20545040.926    20545048.7224
  22846470.586    -8249667.121 8  -6403488.68546  22846472.369    22846483.8154
  21538252.659   -16070125.694 9 -12504495.87947  21538253.173    21538260.5744
  23507859.688    -8272233.968 8  -6427989.26245  23507855.293    23507869.2684
 00  6 23  1  5 30.0000000  0  8 11 25 05 21 29 15 30 23
  23783226.409    -5536161.975 8  -4298714.60345  23783230.899    23783240.2104
  21588493.702   -20257956.675 9 -15769511.76947  21588499.443    21588508.0354
  22715093.743   -13076302.560 8 -10168792.25846  22715094.446    22715105.0704
  20477081.433   -24608816.567 9 -19159000.51947  20477084.884    20477093.9674
  20546976.055   -22977708.239 9 -17883816.44748  20546980.170    20546988.1374
  22862799.494    -8163845.236 8  -6336614.59646  22862803.341    22862814.7804
  21532996.218   -16097741.308 9 -12526014.50147  21532998.063    21533005.9804
  23527017.949    -8171500.749 8  -6349496.09845  23527024.764    23527036.8584
 00  6 23  1  6  0.0000000  0  8 11 25 05 21 29 15 30 23
  23782749.428    -5538682.207 8  -4300678.40445  23782750.100    23782760.6834
  21577505.844   -20315710.948 9 -15814515.02547  21577508.995    21577518.0204
  22723928.201   -13029869.970 8 -10132611.02446  22723930.753    22723941.0034
  20485973.614   -24562090.729 9 -19122590.75847  20485976.614    20485985.7944
  20548959.977   -22967281.493 9 -17875691.69648  20548964.240    20548972.0494
  22879177.738    -8077752.502 8  -6269529.46546  22879185.360    22879198.1854
  21527847.349   -16124778.958 9 -12547082.75247  21527852.660    21527860.7564
  23546238.275    -8070542.500 8  -6270827.60145  23546236.676    23546250.3304
 00  6 23  1  6 30.0000000  0  8 11 25 05 21 29 15 30 23
  23782363.072    -5540686.879 8  -4302240.46445  23782369.169    23782379.6704
  21566579.510   -20373139.894 9 -15859264.78147  21566580.628    21566589.5594
  22732861.965   -12982915.278 8 -10096022.94146  22732866.156    22732876.1144
  20494967.735   -24514813.301 9 -19085751.20747  20494973.102    20494982.2104
  20550990.115   -22956619.590 9 -17867383.70548  20550993.287    20551000.9514
  22895617.184    -7991392.090 8  -6202235.76846  22895619.764    22895632.0314
  21522813.323   -16151237.463 9 -12567699.72947  21522817.445    21522825.9304
  23565485.580    -7969361.050 7  -6191985.16645  23565490.918    23565504.0834
 00  6 23  1  7  0.0000000  0  8 11 25 05 21 29 15 30 23
  23782082.711    -5542176.849 8  -4303401.46545  23782086.150    23782096.8084
  21555710.954   -20430243.142 9 -15903760.75347  21555714.462    21555722.8394
  22741897.422   -12935440.111 8 -10059029.31946  22741899.463    22741910.0514
  20504071.543   -24466984.955 9 -19048482.36447  20504074.699    20504083.3704
  20553063.879   -22945721.935 9 -17858892.01048  20553067.007    20553074.7034
  22912101.920    -7904767.305 8  -6134736.06346  22912104.355    22912116.1884
  21517891.115   -16177115.440 9 -12587864.35047  21517893.075    21517901.4104
  23584784.118    -7867958.382 8  -6112970.33845  23584787.226    23584800.7064
 00  6 23  1  7 30.0000000  0  8 11 25 05 21 29 15 30 23
  23781897.891    -5543152.720 8  -4304161.85345  23781899.680    23781910.3724
  21544907.331   -20487020.315 9 -15948002.64147  21544910.100    21544918.3864
  22751030.392   -12887446.015 8 -10021631.33346  22751032.696    22751041.7154
  20513276.145   -24418606.036 9 -19010784.52647  20513281.114    20513289.7124
  20555181.303   -22934588.103 9 -17850216.28548  20555185.715    20555193.2064
  22928633.175    -7817881.454 8  -6067032.89846  22928638.072    22928649.9564
  21513075.451   -16202411.891 9 -12607575.83747  21513079.466    21513087.4194
  23604119.036    -7766336.531 8  -6033784.71945  23604124.793    23604139.0124
 00  6 23  1  8  0.0000000  0  8 11 25 05 21 29 15 30 23
  23781800.746    -5543615.015 7  -4304522.08645  23781811.505    23781821.7054
  21534165.467   -20543471.283 9 -15991990.35347  21534168.062    21534176.3574
  22760260.114   -12838934.324 8  -9983830.02046  22760264.398    22760273.5444
  20522589.333   -24369677.826 9 -18972658.69247  20522591.766    20522600.4324
  20557345.986   -22923217.601 9 -17841356.13948  20557349.470    20557357.0784
  22945217.902    -7730738.115 8  -5999129.11746  22945221.697    22945232.9394
  21508376.282   -16227125.570 9 -12626833.21547  21508376.956    21508384.0684
  23623507.724    -7664497.231 7  -5954429.72345  23623504.302    23623518.3334
 00  6 23  1  8 30.0000000  0  8 11 25 05 21 29 15 30 23
  23781821.665    -5543564.454 8  -4304482.65445  23781821.997    23781831.6394
  21523484.234   -20599595.401 9 -16035723.36547  21523487.809    21523496.4824
  22769589.863   -12789906.948 8  -9945626.87146  22769593.295    22769603.2474
  20532002.411   -24320201.174 9 -18934105.46347  20532006.751    20532015.5824
  20559555.642   -22911610.085 9 -17832311.30948  20559558.187    20559565.8454
  22961849.099    -7643340.513 8  -5931027.21346  22961851.552    22961864.2394
  21503779.895   -16251254.982 9 -12645635.33347  21503784.872    21503792.3364
  23642929.268    -7562442.616 8  -5874906.88845  23642925.348    23642939.6134
 00  6 23  1  9  0.0000000  0  8 11 25 05 21 29 15 30 23
  23781925.749    -5543001.634 8  -4304044.07945  23781928.900    23781939.0764
  21512865.689   -20655392.942 9 -16079201.91447  21512869.647    21512878.4474
  22779019.478   -12740365.313 8  -9907023.01246  22779020.164    22779031.5164
  20541522.454   -24270176.876 9 -18895125.45947  20541526.077    20541534.8174
  20561808.840   -22899764.940 9 -17823081.31048  20561811.899    20561819.8324
  22978530.066    -7555691.989 8  -5862729.77046  22978530.979    22978543.2054
  21499300.743   -16274799.165 9 -12663981.41747  21499304.313    21499312.4014
  23662384.563    -7460174.565 8  -5795217.74245  23662386.509    23662401.0554
 00  6 23  1  9 30.0000000  0  8 11 25 05 21 29 15 30 23
  23782135.760    -5541927.282 8  -4303206.86145  23782132.766    23782143.2464
  21502311.468   -20710863.444 9 -16122425.61447  21502314.170    21502322.5364
  22788540.707   -12690310.984 8  -9868019.68746  22788545.475    22788556.7954
  20551146.463   -24219606.348 9 -18855719.85847  20551149.123    20551158.2744
  20564108.015   -22887681.832 9 -17813665.89248  20564111.488    20564119.1784
  22995250.854    -7467796.051 8  -5794239.54846  22995256.853    22995269.7964
  21494931.524   -16297756.958 9 -12681870.57747  21494935.681    21494944.1524
  23681895.448    -7357694.943 8  -5715363.75445  23681888.091    23681903.6434
 00  6 23  1 10  0.0000000  0  8 11 25 05 21 29 15 30 23
  23782440.225    -5540342.032 8  -4301971.59045  23782435.171    23782444.7444
  21491813.215   -20766006.468 9 -16165394.15047  21491820.727    21491828.9714
  22798168.923   -12639745.480 8  -9828618.00146  22798168.879    22798177.9104
  20560874.664   -24168490.728 9 -18815889.54347  20560875.898    20560885.1894
  20566452.673   -22875360.197 9 -17804064.61448  20566456.468    20566463.6674
  23012031.697    -7379655.741 8  -5725558.91046  23012030.455    23012042.0964
  21490674.148   -16320126.839 9 -12699301.63447  21490678.993    21490687.0824
  23701417.896    -7255005.961 7  -5635346.67845  23701429.046    23701442.3314
 00  6 23  1 10 30.0000000  0  8 11 25 05 21 29 15 30 23
  23782828.600    -5538246.548 8  -4300338.71145  23782833.309    23782843.9294
  21481387.301   -20820822.117 9 -16208107.58847  21481389.751    21481397.6324
  22807883.213   -12588670.573 8  -9788819.36146  22807888.971    22807897.5604
  20570704.457   -24116829.941 9 -18775634.40547  20570706.614    20570715.9904
  20568843.704   -22862799.793 9 -17794277.28148  20568846.820    20568853.7964
  23028850.282    -7291274.605 8  -5656690.63546  23028849.784    23028861.3974
  21486530.919   -16341907.638 9 -12716273.65947  21486534.273    21486542.3664
  23721019.296    -7152109.618 8  -5555167.98645  23721010.318    23721025.2754
 00  6 23  1 11  0.0000000  0  8 11 25 05 21 29 15 30 23
  23783317.667    -5535641.884 7  -4298309.08845  23783327.468    23783338.9474
  21471017.123   -20875309.962 9 -16250565.57147  21471020.673    21471029.3704
  22817703.401   -12537087.784 8  -9748624.99646  22817704.226    22817713.5264
  20580640.621   -24064625.261 9 -18734955.43947  20580641.378    20580650.3614
  20571279.005   -22849999.921 9 -17784303.34448  20571282.546    20571289.8334
  23045706.109    -7202655.907 8  -5587637.25246  23045712.574    23045724.5124
  21482498.136   -16363098.586 9 -12732786.05347  21482501.309    21482509.7524
  23740623.183    -7049007.805 7  -5474829.22845  23740629.154    23740644.7914
 00  6 23  1 11 30.0000000  0  8 11 25 05 21 29 15 30 23
  23783917.912    -5532528.658 8  -4295883.17345  23783922.199    23783931.7084
  21460708.725   -20929469.253 9 -16292767.55347  21460714.766    21460723.0334
  22827613.059   -12484998.851 8  -9708036.24146  22827616.026    22827625.8194
  20590676.465   -24011877.847 9 -18693853.56747  20590679.078    20590687.5164
  20573760.768   -22836960.138 9 -17774142.47248  20573763.979    20573771.4304
  23062620.040    -7113802.945 8  -5518401.26546  23062620.860    23062633.0424
  21478580.117   -16383698.568 9 -12748837.95847  21478581.407    21478589.5984
  23760280.406    -6945702.488 7  -5394332.00345  23760288.404    23760302.7884
 00  6 23  1 12  0.0000000  0  8 11 25 05 21 29 15 30 23
  23784608.847    -5528907.644 8  -4293061.58145  23784609.803    23784619.7204
  21450468.779   -20983300.002 9 -16334713.53147  21450471.211    21450479.7074
  22837621.251   -12432405.547 8  -9667054.44146  22837623.685    22837635.1634
  20600815.419   -23958589.193 9 -18652329.94447  20600819.097    20600827.9354
  20576288.351   -22823679.930 9 -17763794.26348  20576291.138    20576298.8014
  23079566.649    -7024719.226 8  -5448985.49346  23079572.899    23079584.1684
  21474772.281   -16403706.476 9 -12764428.51347  21474774.259    21474782.0414
  23779978.390    -6842195.432 8  -5313677.46945  23779986.397    23780000.2334
 00  6 23  1 12 30.0000000  0  8 11 25 05 21 29 15 30 23
  23785393.133    -5524779.678 8  -4289844.96145  23785396.779    23785404.7904
  21440288.063   -21036802.153 9 -16376403.45147  21440290.084    21440298.3544
  22847727.355   -12379309.489 8  -9625680.90346  22847727.872    22847738.9444
  20611058.784   -23904759.876 9 -18610385.02947  20611062.381    20611070.8264
  20578861.325   -22810158.834 9 -17753258.35048  20578864.119    20578871.7374
  23096566.478    -6935408.221 8  -5379392.62146  23096569.118    23096580.1164
  21471075.851   -16423121.279 9 -12779556.90147  21471079.465    21471087.6704
  23799726.729    -6738488.429 7  -5232866.89945  23799720.690    23799734.4044
 00  6 23  1 13  0.0000000  0  8 11 25 05 21 29 15 30 23
  23786278.948    -5520145.416 8  -4286233.87145  23786278.109    23786288.7164
  21430167.412   -21089975.942 9 -16417837.51147  21430170.728    21430179.4454
  22857920.651   -12325712.340 8  -9583916.92246  22857927.800    22857937.5214
  20621405.139   -23850390.794 9 -18568019.50047  20621408.264    20621417.0864
  20581478.777   -22796396.489 9 -17742534.44848  20581483.009    20581490.6924
  23113606.403    -6845873.098 8  -5309625.12246  23113606.089    23113618.8224
  21467496.761   -16441941.937 9 -12794222.33047  21467498.332    21467506.0744
  23819486.105    -6634584.194 7  -5151902.82345  23819492.936    23819507.1824
 00  6 23  1 13 30.0000000  0  8 11 25 05 21 29 15 30 23
  23787252.159    -5515005.952 8  -4282229.10945  23787256.390    23787266.0984
  21420112.903   -21142820.519 9 -16459015.04447  21420115.109    21420123.3144
  22868218.636   -12271615.852 8  -9541763.82746  22868221.144    22868230.9614
  20631854.198   -23795483.442 9 -18525234.57347  20631856.929    20631866.2204
  20584146.624   -22782392.241 9 -17731622.05448  20584148.070    20584155.4584
  23130680.476    -6756117.282 8  -5239685.64346  23130685.878    23130698.3664
  21464024.957   -16460167.429 9 -12808423.98447  21464030.038    21464037.6994
  23839302.640    -6530484.367 7  -5070786.26345  23839303.306    23839317.3764
 00  6 23  1 14  0.0000000  0  8 11 25 05 21 29 15 30 23
  23788326.106    -5509361.994 8  -4277831.24145  23788330.523    23788340.4844
  21410118.945   -21195336.102 9 -16499936.21747  21410121.740    21410129.7554
  22878606.157   -12217021.753 8  -9499222.98246  22878610.397    22878619.4924
  20642405.670   -23740038.700 9 -18482030.88747  20642407.833    20642417.0934
  20586856.412   -22768145.881 9 -17720521.01148  20586858.890    20586866.5574
  23147801.333    -6666144.072 8  -5169576.78746  23147808.246    23147819.7714
  21460672.694   -16477797.005 9 -12822161.28947  21460675.378    21460683.0754
  23859138.965    -6426191.135 7  -4989519.07845  23859148.648    23859163.3934
 00  6 23  1 14 30.0000000  0  8 11 25 05 21 29 15 30 23
  23789504.004    -5503214.734 8  -4273041.21245  23789500.493    23789509.7694
  21400187.735   -21247522.476 9 -16540600.86347  21400190.847    21400199.3764
  22889085.407   -12161931.973 8  -9456295.89146  22889093.153    22889103.3424
  20653056.205   -23684057.955 9 -18438409.52947  20653060.821    20653069.8914
  20589611.896   -22753656.764 9 -17709230.79748  20589615.806    20589623.6644
  23164965.147    -6575956.843 8  -5099301.12446  23164968.535    23164982.5074
  21457434.101   -16494829.647 9 -12835433.45547  21457434.159    21457441.6754
  23879037.974    -6321706.253 7  -4908102.53045  23879031.449    23879046.5984
 00  6 23  1 15  0.0000000  0  8 11 25 05 21 29 15 30 23
  23790759.454    -5496564.929 8  -4267859.59945  23790764.347    23790774.6944
  21390320.126   -21299379.363 9 -16581008.76947  21390322.822    21390331.1524
  22899666.137   -12106348.234 8  -9412983.91846  22899670.415    22899680.2844
  20663813.940   -23627542.361 9 -18394371.33547  20663815.373    20663823.9984
  20592416.443   -22738924.414 9 -17697751.06048  20592419.205    20592427.0394
  23182169.311    -6485558.889 8  -5028861.28046  23182172.125    23182183.9814
  21454304.034   -16511264.309 9 -12848239.66647  21454306.697    21454314.3564
  23898947.403    -6217031.953 7  -4826538.39545  23898951.840    23898966.3184
 00  6 23  1 15 30.0000000  0  8 11 25 05 21 29 15 30 23
  23792124.288    -5489413.543 8  -4262287.12345  23792126.497    23792136.4364
  21380515.093   -21350906.725 9 -16621159.90047  21380517.239    21380525.8674
  22910339.365   -12050272.189 8  -9369288.32246  22910341.197    22910351.4654
  20674668.129   -23570493.133 9 -18349917.29547  20674671.464    20674680.3094
  20595264.860   -22723948.188 9 -17686081.27548  20595269.025    20595276.9104
  23199413.303    -6394953.622 8  -4958259.86946  23199414.410    23199426.7394
  21451290.518   -16527100.127 9 -12860579.23447  21451293.245    21451301.0284
  23918912.539    -6112170.627 8  -4744828.75545  23918906.132    23918921.3674
 00  6 23  1 16  0.0000000  0  8 11 25 05 21 29 15 30 23
  23793575.936    -5481761.403 8  -4256324.51145  23793583.422    23793592.5484
  21370772.016   -21402103.916 9 -16661053.75047  21370775.128    21370783.1384
  22921102.547   -11993705.663 8  -9325210.54946  22921105.760    22921115.7844
  20685625.860   -23512910.838 9 -18305047.93147  20685628.957    20685638.1564
  20598162.604   -22708727.834 9 -17674221.26948  20598165.546    20598173.3124
  23216689.532    -6304144.380 8  -4887499.53246  23216694.004    23216706.5784
  21448389.609   -16542336.402 9 -12872451.62647  21448393.811    21448401.3564
  23938881.519    -6007123.155 7  -4662973.71345  23938894.855    23938910.5884
 00  6 23  1 16 30.0000000  0  8 11 25 05 21 29 15 30 23
  23795132.656    -5473609.704 8  -4249972.64445  23795133.992    23795145.0844
  21361091.407   -21452971.204 9 -16700690.54847  21361095.311    21361103.1944
  22931957.985   -11936650.564 8  -9280752.05746  22931962.879    22931972.3764
  20696686.773   -23454797.372 9 -18259764.68947  20696687.680    20696696.5044
  20601105.948   -22693262.862 9 -17662170.66148  20601108.371    20601116.2354
  23234006.951    -6213134.594 8  -4816582.92346  23234012.231    23234025.2934
  21445604.337   -16556972.266 9 -12883856.17447  21445608.567    21445616.4414
  23958924.115    -5901892.497 7  -4580975.90745  23958921.723    23958936.6314
 00  6 23  1 17  0.0000000  0  8 11 25 05 21 29 15 30 23
  23796774.807    -5464959.347 8  -4243232.16245  23796781.184    23796790.4864
  21351474.807   -21503508.516 9 -16740070.20847  21351477.952    21351486.1384
  22942912.318   -11879108.877 8  -9235914.41946  22942912.935    22942922.4664
  20707842.622   -23396154.283 9 -18214068.72747  20707846.606    20707855.9554
  20604096.918   -22677552.797 9 -17649929.06548  20604097.897    20604105.9234
  23251367.957    -6121927.370 8  -4745512.50446  23251369.068    23251381.6914
  21442934.322   -16571006.821 9 -12894792.16647  21442937.558    21442945.6854
  23978974.532    -5796480.755 7  -4498837.13945  23978979.823    23978995.1644
 00  6 23  1 17 30.0000000  0  8 11 25 05 21 29 15 30 23
  23798518.960    -5455811.412 8  -4236103.97445  23798520.302    23798531.6084
  21341922.366   -21553715.775 9 -16779192.68047  21341924.200    21341932.0454
  22953955.827   -11821082.446 8  -9190699.06046  22953955.690    22953964.8034
  20719102.871   -23336982.174 9 -18167960.57847  20719106.790    20719115.8494
  20607132.312   -22661596.968 9 -17637495.97048  20607134.336    20607142.2034
  23268759.786    -6030525.998 8  -4674290.79846  23268762.370    23268774.9524
  21440378.464   -16584439.462 9 -12905259.13747  21440381.347    21440390.0584
  23999075.516    -5690889.744 7  -4416558.65245  23999074.356    23999087.9044
 00  6 23  1 18  0.0000000  0  8 11 25 05 21 29 15 30 23
  23800347.527    -5446166.831 7  -4228588.77945  23800355.475    23800365.3014
  21332430.302   -21603592.615 9 -16818057.69447  21332432.895    21332440.6504
  22965086.606   -11762573.174 8  -9145107.44446  22965089.553    22965098.9814
  20730464.459   -23277282.203 9 -18121441.18347  20730467.389    20730476.1204
  20610214.268   -22645394.988 9 -17624871.06748  20610217.404    20610225.4524
  23286189.436    -5938934.343 8  -4602920.79846  23286192.251    23286205.1654
  21437937.182   -16597269.436 9 -12915256.49347  21437940.152    21437948.1444
  24019197.018    -5585121.558 7  -4334142.13245  24019200.528    24019216.5514
 00  6 23  1 18 30.0000000  0  8 11 25 05 21 29 15 30 23
  23802281.891    -5436026.846 7  -4220687.61145  23802284.682    23802295.4834
  21323001.367   -21653139.023 9 -16856665.21847  21323004.520    21323012.2184
  22976313.329   -11703582.825 8  -9099140.97146  22976315.054    22976324.8514
  20741926.673   -23217056.100 9 -18074511.81147  20741928.237    20741936.9554
  20613344.851   -22628946.429 9 -17612054.02048  20613347.535    20613355.3994
  23303656.107    -5847155.583 8  -4531404.99746  23303657.344    23303670.0014
  21435611.718   -16609495.964 9 -12924783.63547  21435613.421    21435621.3974
  24039354.263    -5479178.362 7  -4251589.23045  24039361.927    24039377.1984
 00  6 23  1 19  0.0000000  0  8 11 25 05 21 29 15 30 23
  23804301.722    -5425392.397 7  -4212401.08045  23804308.593    23804319.3834
  21313635.649   -21702354.881 9 -16895015.18447  21313638.446    21313646.7334
  22987631.098   -11644113.357 8  -9052801.17246  22987631.090    22987641.4804
  20753486.626   -23156305.657 9 -18027173.81047  20753488.584    20753497.5194
  20616521.190   -22612250.775 9 -17599044.43148  20616524.780    20616532.2984
  23321156.429    -5755192.769 8  -4459745.79345  23321156.035    23321168.8984
  21433398.417   -16621118.090 9 -12933839.82047  21433401.454    21433409.9634
  24059545.455    -5373062.217 7  -4168901.55345  24059554.334    24059569.1444
 00  6 23  1 19 30.0000000  0  8 11 25 05 21 29 15 30 23
  23806422.994    -5414264.596 8  -4203730.10645  23806426.892    23806438.4754
  21304331.528   -21751240.153 9 -16933107.54347  21304335.796    21304344.3794
  22999036.830   -11584166.775 8  -9006089.60646  22999038.543    22999048.1054
  20765144.189   -23095031.830 9 -17979427.99947  20765148.354    20765157.6624
  20619746.348   -22595307.488 9 -17585841.87448  20619748.825    20619756.5224
  23338689.304    -5663049.453 8  -4387945.96346  23338691.989    23338703.2684
  21431300.359   -16632135.552 9 -12942424.84247  21431305.152    21431312.8824
  24079770.295    -5266774.945 7  -4086080.53544  24079780.051    24079794.7634
 00  6 23  1 20  0.0000000  0  8 11 25 05 21 29 15 30 23
  23808637.394    -5402644.751 8  -4194675.69945  23808637.429    23808649.9234
  21295094.955   -21799794.556 9 -16970942.08647  21295096.712    21295104.2754
  23010535.805   -11523745.029 8  -8959007.74846  23010537.143    23010546.2054
  20776906.208   -23033235.875 9 -17931275.28747  20776908.074    20776916.8694
  20623017.921   -22578116.207 9 -17572446.07848  20623020.307    20623027.9214
  23356255.802    -5570728.926 8  -4316007.99546  23356259.419    23356272.5954
  21429321.906   -16642547.487 9 -12950538.02247  21429324.070    21429331.7624
  24100044.856    -5160318.788 7  -4003127.90844  24100039.737    24100051.2474
 00  6 23  1 20 30.0000000  0  8 11 25 05 21 29 15 30 23
  23810938.674    -5390533.729 8  -4185238.62145  23810943.299    23810954.2024
  21285915.780   -21848018.168 9 -17008518.87247  21285920.207    21285927.4034
  23022119.738   -11462849.932 8  -8911557.05346  23022124.522    23022135.0624
  20788762.431   -22970919.662 9 -17882717.21447  20788766.424    20788775.1844
  20626335.864   -22560676.115 9 -17558856.40748  20626339.156    20626346.5794
  23373857.624    -5478234.474 8  -4243934.54145  23373860.779    23373873.1664
  21427452.722   -16652353.404 9 -12958178.98047  21427457.805    21427465.3304
  24120319.339    -5053695.916 7  -3920045.37445  24120329.990    24120344.5564
 00  6 23  1 21  0.0000000  0  8 11 25 05 21 29 15 30 23
  23813331.304    -5377932.983 7  -4175419.87545  23813340.597    23813350.2914
  21276804.899   -21895910.951 9 -17045837.87647  21276806.189    21276814.1974
  23033800.051   -11401483.313 8  -8863738.97946  23033802.222    23033813.1784
  20800720.707   -22908083.997 9 -17833754.37747  20800723.581    20800732.8184
  20629701.171   -22542986.986 9 -17545072.68148  20629705.092    20629712.8774
  23391489.487    -5385569.521 8  -4171728.22845  23391494.682    23391507.6834
  21425703.896   -16661552.668 9 -12965347.22047  21425707.252    21425715.2704
  24140654.932    -4946908.493 7  -3836834.60745  24140651.615    24140664.0634
 00  6 23  1 21 30.0000000  0  8 11 25 05 21 29 15 30 23
  23815829.433    -5364843.730 8  -4165220.49045  23815831.728    23815841.8094
  21267751.327   -21943472.841 9 -17082899.03647  21267755.355    21267763.4354
  23045566.760   -11339647.295 8  -8815555.10646  23045569.661    23045579.3524
  20812775.558   -22844730.224 9 -17784387.81847  20812779.244    20812788.6834
  20633113.639   -22525048.372 9 -17531094.54348  20633118.734    20633126.4044
  23409154.299    -5292737.645 8  -4099391.82945  23409159.373    23409173.4454
  21424070.765   -16670144.589 9 -12972042.20647  21424072.494    21424080.2514
  24161000.151    -4839958.462 7  -3753497.22845  24161001.802    24161019.1204
 00  6 23  1 22  0.0000000  0  8 11 25 05 21 29 15 30 23
  23818409.300    -5351267.066 8  -4154641.24445  23818414.996    23818425.0254
  21258762.631   -21990704.010 9 -17119702.49047  21258767.594    21258775.5564
  23057424.958   -11277343.928 8  -8767007.06146  23057425.281    23057435.1594
  20824932.799   -22780860.339 9 -17734619.12547  20824933.249    20824942.8054
  20636576.306   -22506859.630 9 -17516921.50048  20636580.218    20636587.7194
  23426851.125    -5199742.124 8  -4026927.91245  23426856.081    23426868.6064
  21422550.510   -16678128.750 9 -12978263.61947  21422553.603    21422561.2504
  24181387.265    -4732847.771 7  -3670034.57845  24181384.278    24181399.7974
 00  6 23  1 22 30.0000000  0  8 11 25 05 21 29 15 30 23
  23821094.163    -5337204.313 8  -4143683.28645  23821091.201    23821101.4164
  21249836.771   -22037604.019 9 -17156247.91247  21249842.834    21249850.6764
  23069368.967   -11214575.316 8  -8718096.50746  23069369.525    23069380.4294
  20837182.175   -22716476.078 9 -17684449.63947  20837185.242    20837194.5274
  20640085.618   -22488420.297 9 -17502553.19548  20640089.026    20640096.7584
  23444580.735    -5106585.851 8  -3954338.74845  23444583.652    23444595.9384
  21421145.869   -16685504.886 9 -12984011.23947  21421149.694    21421157.4154
  24201800.167    -4625578.803 7  -3586448.58345  24201798.405    24201813.4194
 00  6 23  1 23  0.0000000  0  8 11 25 05 21 29 15 30 23
  23823851.731    -5322656.670 8  -4132347.45045  23823858.997    23823870.0254
  21240977.297   -22084173.123 9 -17192535.48847  21240980.694    21240989.0494
  23081401.113   -11151343.214 8  -8668824.80346  23081402.715    23081413.3914
  20849531.364   -22651578.515 9 -17633880.15547  20849535.454    20849544.0524
  20643642.760   -22469729.944 9 -17487989.28648  20643645.282    20643653.6434
  23462337.123    -5013272.541 8  -3881627.20645  23462341.460    23462353.2424
  21419860.229   -16692272.228 9 -12989284.48147  21419861.594    21419869.6764
  24222244.578    -4518153.487 7  -3502740.72845  24222240.112    24222257.1644
 00  6 23  1 23 30.0000000  0  8 11 25 05 21 29 15 30 23
  23826715.055    -5307625.326 8  -4120634.76045  23826719.984    23826730.1574
  21232178.858   -22130411.375 9 -17228565.24547  21232181.758    21232190.3364
  23093522.698   -11087649.798 8  -8619193.62646  23093523.266    23093533.1394
  20861979.981   -22586168.762 9 -17582911.55447  20861982.746    20861991.2594
  20647244.728   -22450788.076 9 -17473229.39248  20647249.756    20647257.7774
  23480128.035    -4919805.271 8  -3808795.69345  23480127.693    23480140.0624
  21418686.400   -16698430.333 9 -12994082.99747  21418689.468    21418697.6114
  24242713.684    -4410573.926 7  -3418912.67845  24242713.412    24242728.3234
 00  6 23  1 24  0.0000000  0  8 11 25 05 21 29 15 30 23
  23829667.912    -5292111.680 8  -4108546.20345  23829672.452    23829682.4114
  21223441.278   -22176318.432 9 -17264336.93247  21223445.870    21223454.3054
  23105727.531   -11023497.186 8  -8569204.62346  23105731.193    23105740.0894
  20874523.818   -22520248.858 9 -17531545.41647  20874526.594    20874535.2044
  20650899.225   -22431594.138 9 -17458273.08248  20650902.351    20650910.1664
  23497939.079    -4826187.468 8  -3735846.89045  23497941.523    23497955.2034
  21417628.627   -16703978.857 9 -12998406.50847  21417633.764    21417641.5624
  24263219.553    -4302842.310 7  -3334966.12945  24263213.111    24263228.1304
 00  6 23  1 24 30.0000000  0  8 11 25 05 21 29 15 30 23
  23832716.828    -5276117.294 8  -4096083.05845  23832715.505    23832727.3864
  21214769.491   -22221894.337 9 -17299850.57147  21214772.986    21214781.3404
  23118021.695   -10958887.365 8  -8518859.34746  23118025.442    23118035.9804
  20887164.614   -22453820.001 9 -17479782.68747  20887167.425    20887176.5094
  20654600.251   -22412147.714 9 -17443120.02748  20654603.132    20654610.8094
  23515782.899    -4732422.305 8  -3662783.21945  23515784.523    23515797.6084
  21416689.954   -16708917.318 9 -13002254.64647  21416693.853    21416701.5114
  24283736.919    -4194960.632 7  -3250902.48445  24283742.213    24283757.5464
 00  6 23  1 25  0.0000000  0  8 11 25 05 21 29 15 30 23
  23835847.093    -5259643.320 8  -4083246.18645  23835851.380    23835861.5934
  21206161.492   -22267139.200 9 -17335106.25547  21206163.585    21206171.5234
  23130404.343   -10893822.330 8  -8468159.40446  23130407.543    23130417.9114
  20899903.162   -22386884.561 9 -17427625.22747  20899905.289    20899913.9984
  20658348.902   -22392448.242 9 -17427769.79647  20658351.623    20658359.2474
  23533651.071    -4638513.322 8  -3589607.52045  23533654.585    23533667.5424
  21415867.416   -16713245.697 9 -13005627.39147  21415870.230    21415877.9074
  24304313.860    -4086931.120 7  -3166723.71844  24304299.438    24304315.5234
 00  6 23  1 25 30.0000000  0  8 11 25 05 21 29 15 30 23
  23839078.400    -5242691.005 7  -4070036.63845  23839076.714    23839086.9774
  21197613.327   -22312052.827 9 -17370103.84547  21197616.810    21197624.3154
  23142872.166   -10828304.241 8  -8417106.41146  23142875.723    23142885.2584
  20912735.057   -22319443.483 9 -17375073.76847  20912738.735    20912747.3044
  20662145.525   -22372495.306 9 -17412222.06947  20662148.370    20662156.1834
  23551547.870    -4544463.962 8  -3516322.38345  23551551.481    23551564.6884
  21415160.302   -16716963.589 9 -13008524.43147  21415163.113    21415170.9134
  24324887.886    -3978755.993 7  -3082431.54044  24324885.936    24324900.6704
 00  6 23  1 26  0.0000000  0  7 11 25 05 21 29 15 30
  23842385.268    -5225261.902 7  -4056455.54745  23842391.707    23842403.4424
  21189129.231   -22356635.286 9 -17404843.37847  21189132.684    21189140.5134
  23155430.282   -10762335.067 8  -8365701.92546  23155429.093    23155438.7134
  20925665.181   -22251498.194 9 -17322129.41947  20925668.138    20925677.0404
  20665989.034   -22352288.376 9 -17396476.42147  20665993.580    20666001.6774
  23569472.350    -4450277.620 8  -3442930.55545  23569475.932    23569488.8884
  21414569.667   -16720070.329 9 -13010945.25447  21414571.655    21414579.4554
 00  6 23  1 26 30.0000000  0  7 11 25 05 21 29 15 30
  23845799.878    -5207357.337 8  -4042503.98645  23845799.778    23845810.4254
  21180709.041   -22400886.659 9 -17439324.91547  21180711.766    21180719.9534
  23168063.495   -10695917.182 8  -8313947.78746  23168067.470    23168077.6544
  20938692.035   -22183050.978 9 -17268793.96647  20938693.028    20938702.3744
  20669884.474   -22331827.041 9 -17380532.53248  20669887.796    20669895.5864
  23587419.247    -4355957.407 8  -3369434.39345  23587424.530    23587436.7804
  21414095.525   -16722565.678 9 -13012889.67447  21414096.794    21414104.5674
 00  6 23  1 27  0.0000000  0  7 11 25 05 21 29 15 30
  23849290.282    -5188978.704 8  -4028183.01945  23849298.381    23849309.5894
  21172349.262   -22444806.940 9 -17473548.46347  21172354.030    21172362.1984
  23180787.411   -10629052.715 8  -8261845.65146  23180791.132    23180801.9014
  20951811.669   -22114103.313 9 -17215068.57347  20951813.178    20951822.6024
  20673827.299   -22311110.487 9 -17364389.78348  20673830.078    20673837.8544
  23605396.659    -4261506.726 8  -3295836.56645  23605396.831    23605410.9874
  21413735.739   -16724449.280 9 -13014357.39847  21413738.536    21413746.0574
 00  6 23  1 27 30.0000000  0  7 11 25 05 21 29 15 30
  23852881.444    -5170127.349 8  -4013493.68945  23852885.326    23852895.0014
  21164057.023   -22488396.402 9 -17507514.23047  21164059.563    21164067.0594
  23193598.156   -10561743.782 8  -8209397.21046  23193599.229    23193610.6814
  20965024.614   -22044657.036 9 -17160954.66247  20965028.824    20965037.7154
  20677818.819   -22290138.632 9 -17348048.08948  20677820.412    20677828.6804
  23623393.561    -4166928.905 8  -3222139.68445  23623395.584    23623409.3944
  21413495.202   -16725721.124 9 -13015348.43647  21413496.484    21413504.3274
 00  6 23  1 28  0.0000000  0  7 11 25 05 21 29 15 30
  23856558.924    -5150804.991 8  -3998437.33745  23856562.538    23856572.9604
  21155825.458   -22531654.935 9 -17541222.13047  21155827.640    21155835.2754
  23206494.711   -10493992.591 8  -8156604.13946  23206493.225    23206502.9184
  20978335.110   -21974713.388 9 -17106453.16547  20978338.572    20978347.5114
  20681856.250   -22268910.809 9 -17331506.94647  20681860.085    20681868.0244
  23641405.282    -4072227.146 7  -3148346.24845  23641416.106    23641429.8614
  21413369.476   -16726381.063 9 -13015862.67447  21413370.939    21413378.7324
 00  6 23  1 28 30.0000000  0  7 11 25 05 21 29 15 30
  23860324.247    -5131012.834 8  -3983014.95345  23860329.288    23860338.4114
  21147654.838   -22574582.593 9 -17574672.21447  21147658.878    21147666.1094
  23219468.929   -10425801.220 8  -8103468.04846  23219469.198    23219479.4974
  20991739.168   -21904274.214 9 -17051565.54347  20991742.305    20991751.4384
  20685945.285   -22247426.459 9 -17314765.91647  20685948.515    20685956.3694
  23659455.339    -3977404.571 8  -3074458.65845  23659460.521    23659474.6404
  21413360.009   -16726428.852 9 -13015899.91047  21413361.974    21413369.7494
 00  6 23  1 29  0.0000000  0  7 11 25 05 21 29 15 30
  23864177.107    -5110752.531 8  -3967227.71345  23864183.536    23864194.4994
  21139550.879   -22617179.947 9 -17607864.91647  21139552.572    21139560.3284
  23232526.029   -10357171.690 8  -8049990.56046  23232528.702    23232539.8294
  21005238.493   -21833341.505 9 -16996293.34847  21005240.601    21005250.1024
  20690082.517   -22225685.145 9 -17297824.64847  20690085.756    20690093.4834
  23677522.845    -3882464.755 7  -3000479.68945  23677526.909    23677539.6324
  21413466.589   -16725864.256 9 -13015459.95947  21413469.255    21413477.1174
 00  6 23  1 29 30.0000000  0  7 11 25 05 21 29 15 30
  23868122.512    -5090025.674 8  -3951076.98045  23868127.908    23868139.2044
  21131505.458   -22659446.826 9 -17640800.09347  21131509.331    21131517.3124
  23245675.456   -10288106.406 8  -7996173.53446  23245671.833    23245682.9464
  21018830.215   -21761916.999 9 -16940637.93347  21018832.692    21018841.4304
  20694268.470   -22203686.367 9 -17280682.76247  20694272.130    20694279.5244
  23695615.071    -3787410.874 7  -2926411.85245  23695615.533    23695628.6724
  21413691.807   -16724687.056 9 -13014542.66247  21413693.243    21413700.8544
 00  6 23  1 30  0.0000000  0  7 11 25 05 21 29 15 30
  23872159.968    -5068833.782 8  -3934563.88745  23872160.889    23872171.2204
  21123525.040   -22701383.484 9 -17673477.96747  21123529.088    21123537.2474
  23258897.113   -10218607.466 8  -7942018.56746  23258897.984    23258907.8614
  21032514.288   -21690002.172 9 -16884600.47947  21032517.381    21032526.7174
  20698504.144   -22181429.784 9 -17263339.98647  20698507.185    20698515.0524
  23713724.260    -3692246.042 8  -2852257.54945  23713724.166    23713737.5584
  21414029.108   -16722897.424 9 -13013148.13047  21414033.443    21414041.4154
 00  6 23  1 30 30.0000000  0  7 11 25 05 21 29 15 30
  23876275.605    -5047178.362 7  -3917689.58545  23876282.103    23876292.8134
  21115608.497   -22742989.560 9 -17705898.24547  21115611.476    21115619.5794
  23272198.416   -10148676.989 8  -7887527.32046  23272204.745    23272214.6404
  21046292.340   -21617598.878 9 -16828182.41147  21046295.579    21046304.5454
  20702788.596   -22158914.661 9 -17245795.75347  20702791.773    20702799.6984
  23731852.607    -3596973.662 8  -2778019.52145  23731854.395    23731867.8844
  21414488.572   -16720495.060 9 -13011276.16447  21414490.724    21414498.9084
 00  6 23  1 31  0.0000000  0  7 11 25 05 21 29 15 30
  23880490.794    -5025060.918 7  -3900455.28645  23880489.906    23880502.0134
  21107755.037   -22784265.086 9 -17738060.95147  21107757.165    21107764.7204
  23285593.498   -10078317.256 8  -7832701.60746  23285593.582    23285603.5904
  21060161.102   -21544709.324 9 -16771385.38247  21060166.029    21060175.0164
  20707122.339   -22136140.731 9 -17228049.84847  20707125.308    20707133.2464
  23750002.227    -3501597.078 8  -2703700.22145  23750004.438    23750017.0144
  21415060.525   -16717480.014 9 -13008926.78647  21415064.606    21415072.4894
 00  6 23  1 31 30.0000000  0  7 11 25 05 21 29 15 30
  23884779.818    -5002483.158 7  -3882862.28245  23884786.403    23884798.0124
  21099962.251   -22825210.589 9 -17769966.49747  21099965.394    21099973.1074
  23299055.825   -10007530.625 8  -7777543.25546  23299063.412    23299075.0194
  21074124.652   -21471334.834 9 -16714210.48447  21074128.827    21074137.7294
  20711504.238   -22113107.411 9 -17210101.82147  20711508.230    20711516.4034
  23768172.580    -3406119.467 8  -2629302.19745  23768173.242    23768186.6324
  21415752.087   -16713852.368 9 -13006100.05847  21415755.113    21415762.5904
 00  6 23  1 32  0.0000000  0  7 11 25 05 21 29 15 30
  23889164.726    -4979446.627 7  -3864911.77045  23889170.637    23889181.0474
  21092230.874   -22865826.076 9 -17801614.88348  21092236.391    21092244.4264
  23312612.114    -9936319.353 8  -7722054.02746  23312615.775    23312626.0674
  21088180.986   -21397477.212 9 -16656659.14847  21088183.170    21088192.4304
  20715936.424   -22089814.078 9 -17191951.18747  20715940.701    20715948.9474
  23786359.923    -3310544.243 8  -2554828.11745  23786360.710    23786373.4394
  21416558.637   -16709612.059 9 -13002795.92547  21416561.747    21416569.7114
 00  6 23  1 32 30.0000000  0  7 11 25 05 21 29 15 30
  23893641.905    -4955952.809 8  -3846604.98845  23893642.220    23893652.3994
  21084566.643   -22906111.444 9 -17833006.03847  21084570.325    21084578.1394
  23326245.816    -9864685.531 8  -7666235.51346  23326246.675    23326257.4654
  21102326.711   -21323138.861 9 -16598733.24147  21102329.468    21102338.5234
  20720420.928   -22066260.424 9 -17173597.70547  20720423.385    20720431.3954
  23804567.007    -3214874.502 8  -2480280.38945  23804566.182    23804579.9674
  21417481.525   -16704758.841 9 -12999014.20747  21417485.365    21417493.1014
 00  6 23  1 33  0.0000000  0  7 11 25 05 21 29 15 30
  23898196.145    -4932003.724 8  -3827943.46845  23898199.921    23898209.2984
  21076962.573   -22946066.846 9 -17864140.08447  21076966.732    21076974.3594
  23339952.671    -9792631.209 8  -7610089.35046  23339957.677    23339969.1604
  21116563.071   -21248321.100 9 -16540433.76147  21116566.596    21116575.9794
  20724952.847   -22042446.080 9 -17155041.09047  20724955.272    20724963.0384
  23822783.672    -3119113.757 8  -2405661.77445  23822789.063    23822802.0294
  21418525.206   -16699293.030 9 -12994755.14447  21418525.809    21418533.3034
 00  6 23  1 33 30.0000000  0  7 11 25 05 21 29 15 30
  23902839.987    -4907600.717 8  -3808928.19845  23902842.587    23902854.7114
  21069425.394   -22985692.563 9 -17895017.22947  21069426.505    21069433.9394
  23353745.634    -9720158.987 8  -7553617.53846  23353748.447    23353760.3594
  21130890.652   -21173026.015 9 -16481762.30647  21130895.225    21130904.0614
  20729533.806   -22018370.198 9 -17136280.67047  20729536.645    20729544.3854
  23841025.882    -3023265.311 8  -2330974.79145  23841028.279    23841041.1694
  21419680.062   -16693214.580 9 -12990018.71047  21419682.488    21419689.9764
 00  6 23  1 34  0.0000000  0  7 11 25 05 21 29 15 30
  23907566.406    -4882745.654 7  -3789560.70545  23907572.232    23907583.8844
  21061946.175   -23024988.891 9 -17925637.70747  21061948.622    21061956.3914
  23367615.468    -9647271.002 8  -7496821.75746  23367620.326    23367630.3704
  21145309.955   -21097256.290 9 -16422721.00447  21145313.490    21145322.7324
  20734166.047   -21994032.663 9 -17117316.36547  20734168.288    20734175.5934
  23859278.981    -2927332.300 8  -2256221.95945  23859284.033    23859296.8764
  21420951.019   -16686523.783 9 -12984805.11747  21420955.705    21420963.0844
 00  6 23  1 34 30.0000000  0  7 11 25 05 21 29 15 30
  23912380.582    -4857440.217 7  -3769842.28545  23912387.784    23912399.4464
  21054530.910   -23063955.958 9 -17956001.61548  21054533.745    21054541.3504
  23381566.216    -9573969.564 8  -7439703.81146  23381568.652    23381579.1344
  21159820.972   -21021013.443 9 -16363311.03847  21159822.141    21159831.5364
  20738845.507   -21969432.692 9 -17098147.56347  20738849.401    20738856.9934
  23877552.691    -2831317.859 8  -2181405.61545  23877554.136    23877568.0154
  21422343.269   -16679220.681 9 -12979114.39847  21422345.651    21422352.9044
 00  6 23  1 35  0.0000000  0  7 11 25 05 21 29 15 30
  23917292.106    -4831686.147 8  -3749774.28245  23917289.619    23917300.1714
  21047179.307   -23102593.938 9 -17986109.09648  21047180.985    21047188.9164
  23395588.837    -9500256.936 8  -7382265.46246  23395595.838    23395605.8684
  21174418.056   -20944299.034 9 -16303533.61447  21174420.821    21174429.5404
  20743576.380   -21944569.872 9 -17078773.94947  20743580.191    20743588.3524
  23895839.567    -2735225.360 8  -2106528.48945  23895840.974    23895853.8124
  21423846.071   -16671305.365 9 -12972946.63747  21423850.915    21423859.5154
 00  6 23  1 35 30.0000000  0  7 11 25 05 21 29 15 30
  23922271.459    -4805484.959 8  -3729357.87445  23922275.114    23922288.0034
  21039887.964   -23140902.829 9 -18015960.13948  21039891.084    21039898.9444
  23409693.066    -9426135.352 8  -7324508.44246  23409699.862    23409709.9544
  21189105.926   -20867115.271 9 -16243390.44747  21189108.406    21189117.2524
  20748358.292   -21919443.934 9 -17059195.30447  20748361.427    20748369.5804
  23914141.857    -2639057.922 8  -2031592.97845  23914141.342    23914154.7974
  21425468.972   -16662778.319 9 -12966302.19147  21425473.720    21425482.2814
 00  6 23  1 36  0.0000000  0  7 11 25 05 21 29 15 30
  23927343.759    -4778838.590 8  -3708594.53045  23927346.530    23927356.4274
  21032659.646   -23178882.635 9 -18045554.76048  21032663.496    21032671.2854
  23423884.178    -9351607.212 8  -7266434.60945  23423881.969    23423892.0234
  21203883.690   -20789463.797 9 -16182882.82247  21203884.706    21203893.5884
  20753188.833   -21894054.187 9 -17039411.10047  20753193.137    20753201.1294
  23932448.236    -2542818.953 8  -1956601.71845  23932454.355    23932467.7974
  21427210.974   -16653639.578 9 -12959181.10547  21427213.547    21427220.7714
 00  6 23  1 36 30.0000000  0  7 11 25 05 21 29 15 30
  23932496.807    -4751748.829 8  -3687485.68845  23932500.759    23932511.5394
  21025495.898   -23216533.753 9 -18074893.25147  21025498.702    21025506.5204
  23438138.349    -9276674.928 8  -7208045.88846  23438141.528    23438152.0944
  21218747.561   -20711346.795 8 -16122012.45147  21218749.522    21218759.1244
  20758072.935   -21868400.073 9 -17019420.90047  20758075.056    20758082.9974
  23950781.557    -2446511.539 8  -1881557.09245  23950781.398    23950794.8374
  21429064.219   -16643889.449 9 -12951583.61247  21429068.430    21429076.2914
 00  6 23  1 37  0.0000000  0  7 11 25 05 21 29 15 30
  23937736.191    -4724217.469 7  -3666032.72945  23937739.405    23937750.8184
  21018394.358   -23253856.277 9 -18103975.70148  21018396.494    21018404.2824
  23452473.484    -9201340.920 8  -7149344.15246  23452477.529    23452487.4944
  21233701.936   -20632766.355 9 -16060780.96147  21233703.230    21233712.7244
  20763002.580   -21842481.477 9 -16999224.59547  20763007.269    20763015.2334
  23969109.881    -2350138.756 8  -1806461.55745  23969120.482    23969135.0844
  21431036.293   -16633528.046 9 -12943509.81047  21431039.864    21431047.7854
 00  6 23  1 37 30.0000000  0  7 11 25 05 21 29 15 30
  23943060.757    -4696246.162 8  -3644236.95645  23943062.204    23943073.8204
  21011355.008   -23290850.629 9 -18132802.44548  21011356.909    21011364.4194
  23466883.793    -9125607.513 8  -7090331.16446  23466888.944    23466898.8354
  21248738.517   -20553724.469 8 -15999189.90947  21248744.451    21248753.8894
  20767988.175   -21816297.637 9 -16978821.62047  20767990.239    20767997.8234
  23987464.324    -2253703.992 7  -1731317.67945  23987471.448    23987484.9944
  21433125.162   -16622555.686 9 -12934959.93347  21433128.154    21433136.2374
 00  6 23  1 38  0.0000000  0  7 11 25 05 21 29 15 30
  23948465.761    -4667836.832 8  -3622099.82745  23948468.929    23948479.2434
  21004375.439   -23327517.048 9 -18161373.65247  21004379.429    21004386.7824
  23481371.325    -9049477.087 8  -7031008.79345  23481375.892    23481385.6654
  21263870.414   -20474223.467 8 -15937241.09047  21263873.075    21263881.9684
  20773018.065   -21789848.205 9 -16958211.68847  20773022.879    20773030.8294
  24005828.598    -2157210.660 8  -1656128.21845  24005833.087    24005847.9804
  21435330.602   -16610972.736 9 -12925934.26347  21435332.592    21435340.4264
 00  6 23  1 38 30.0000000  0  7 11 25 05 21 29 15 30
  23953954.432    -4638991.211 7  -3599622.75945  23953957.906    23953968.4914
  20997462.177   -23363855.507 9 -18189689.30547  20997464.273    20997471.9504
  23495935.660    -8972951.943 8  -6971378.84545  23495937.296    23495948.5124
  21279085.937   -20394265.620 9 -15874936.27247  21279088.554    21279097.7154
  20778102.368   -21763132.652 9 -16937394.38347  20778106.744    20778114.7174
  24024204.680    -2060661.667 8  -1580895.35445  24024206.527    24024220.4304
  21437648.320   -16598779.559 9 -12916433.09047  21437652.399    21437660.8794
 00  6 23  1 39  0.0000000  0  7 11 25 05 21 29 15 30
  23959529.169    -4609711.378 8  -3576807.27345  23959529.779    23959540.3384
  20990607.216   -23399866.431 9 -18217749.73648  20990611.511    20990619.2554
  23510567.828    -8896034.521 8  -6911443.28846  23510574.525    23510586.5154
  21294386.901   -20313852.313 8 -15812276.55447  21294390.439    21294399.0744
  20783238.196   -21736150.404 9 -16916369.27347  20783241.257    20783249.1334
  24042584.084    -1964060.335 8  -1505621.73945  24042589.744    24042602.6004
  21440086.694   -16585976.536 9 -12906456.71647  21440088.864    21440096.8244
 00  6 23  1 39 30.0000000  0  7 11 25 05 21 29 15 30
  23965177.185    -4579999.108 7  -3553654.87945  23965184.568    23965194.5094
  20983819.786   -23435550.286 9 -18245555.30447  20983821.077    20983828.9864
  23525283.302    -8818727.143 8  -6851203.84246  23525286.398    23525297.7224
  21309776.788   -20232986.327 9 -15749264.12747  21309778.896    21309788.3634
  20788424.594   -21708901.169 9 -16895136.11947  20788426.317    20788434.5294
  24060976.704    -1867409.957 7  -1430309.88045  24060979.573    24060995.1564
  21442638.802   -16572564.258 9 -12896005.59847  21442640.929    21442649.2824
 00  6 23  1 40  0.0000000  0  7 11 25 05 21 29 15 30
  23970911.544    -4549856.262 7  -3530166.92245  23970919.712    23970931.1124
  20977090.076   -23470906.848 9 -18273105.84548  20977093.134    20977101.0234
  23540066.601    -8741032.104 8  -6790662.32045  23540071.514    23540081.4524
  21325247.186   -20151669.201 8 -15685900.16247  21325253.435    21325262.5414
  20793660.415   -21681384.472 9 -16873694.55247  20793662.758    20793670.4074
  24079375.305    -1770713.753 8  -1354962.32245  24079382.032    24079396.0744
  21445304.961   -16558542.818 9 -12885079.79847  21445308.978    21445317.6044
 00  6 23  1 40 30.0000000  0  7 11 25 05 21 29 15 30
  23976737.992    -4519284.902 7  -3506345.05645  23976737.325    23976749.1294
  20970424.008   -23505936.245 9 -18300401.45148  20970427.338    20970435.0234
  23554926.745    -8662951.934 8  -6729820.68745  23554928.965    23554940.4104
  21340808.127   -20069903.486 8 -15622186.63847  21340812.622    21340822.2684
  20798947.887   -21653599.777 9 -16852044.15647  20798950.179    20798957.5624
  24097790.730    -1673974.684 8  -1279581.38745  24097790.653    24097804.2674
  21448090.263   -16543912.812 9 -12873679.79247  21448092.874    21448100.9094
 00  6 23  1 41  0.0000000  0  7 11 25 05 21 29 15 30
  23982635.486    -4488286.780 8  -3482190.65145  23982635.444    23982646.1104
  20963821.142   -23540639.326 9 -18327442.77748  20963823.524    20963831.2244
  23569855.350    -8584488.826 8  -6668680.65445  23569860.130    23569870.9034
  21356459.212   -19987690.559 9 -15558124.64047  21356457.107    21356466.5304
  20804283.869   -21625546.617 9 -16830184.56047  20804288.150    20804296.1384
  24116201.393    -1577195.888 8  -1204169.48945  24116207.859    24116222.3114
  21450990.797   -16528674.830 9 -12861806.04147  21450992.789    21451001.0244
 00  6 23  1 41 30.0000000  0  7 11 25 05 21 29 15 30
  23988605.320    -4456863.885 7  -3457705.21845  23988613.415    23988624.9374
  20957279.334   -23575016.210 9 -18354229.93348  20957281.586    20957289.4814
  23584861.586    -8505645.327 8  -6607244.22145  23584863.626    23584875.2194
  21372181.429   -19905033.541 8 -15493716.59947  21372186.078    21372195.7184
  20809674.437   -21597224.624 9 -16808115.48447  20809677.960    20809686.0104
  24134630.594    -1480380.714 8  -1128729.22045  24134631.160    24134645.6954
  21454006.046   -16512829.214 9 -12849458.80847  21454007.995    21454016.2164
 00  6 23  1 42  0.0000000  0  7 11 25 05 21 29 15 30
  23994662.645    -4425018.162 7  -3432890.37145  23994674.098    23994685.8654
  20950799.433   -23609066.672 9 -18380762.73148  20950801.749    20950809.8354
  23599938.561    -8426423.839 8  -6545513.24145  23599939.189    23599950.5074
  21387996.858   -19821934.348 8 -15428964.05347  21387999.623    21388008.8704
  20815117.883   -21568633.195 9 -16785836.46547  20815118.827    20815126.9044
  24153052.510    -1383532.102 8  -1053262.93645  24153060.518    24153074.7444
  21457135.695   -16496376.609 9 -12836638.59947  21457138.912    21457147.7054
 00  6 23  1 42 30.0000000  0  7 11 25 05 21 29 15 30
  24000811.096    -4392751.674 7  -3407747.59545  24000815.230    24000827.6354
  20944379.525   -23642791.236 9 -18407041.58448  20944384.405    20944392.0304
  23615084.071    -8346826.832 8  -6483489.67145  23615086.052    23615096.9564
  21403893.605   -19738395.383 8 -15363868.77747  21403896.009    21403905.3174
  20820606.582   -21539772.058 9 -16763347.28147  20820610.807    20820619.0364
  24171498.563    -1286653.720 8   -977773.44845  24171496.216    24171510.0534
  21460380.174   -16479317.596 9 -12823345.86647  21460385.086    21460393.8144
 00  6 23  1 43  0.0000000  0  7 11 25 05 21 29 15 30
  24007034.208    -4360066.401 7  -3382278.56445  24007035.383    24007047.2404
  20938026.390   -23676190.602 9 -18433067.04048  20938028.956    20938036.3684
  23630294.191    -8266856.724 8  -6421175.35345  23630304.041    23630315.0244
  21419873.880   -19654418.657 8 -15298432.46747  21419876.783    21419886.4454
  20826153.217   -21510640.611 9 -16740647.45947  20826154.508    20826162.4964
  24189932.689    -1189748.264 8   -902262.84845  24189937.016    24189950.6504
  21463745.479   -16461652.623 9 -12809580.94647  21463746.842    21463754.8494
 00  6 23  1 43 30.0000000  0  8 11 25 20 05 21 29 15 30
  24013337.953    -4326964.421 8  -3356484.77645  24013335.679    24013346.5054
  20931731.048   -23709264.828 9 -18458839.14048  20931734.934    20931742.6294
  24632836.532     -949695.86317   -723024.51955  24632837.825    24632847.9394
  23645592.179    -8186515.947 8  -6358572.19746  23645592.493    23645604.0664
  21435936.440   -19570006.052 8 -15232656.51247  21435940.358    21435949.8604
  20831746.088   -21481238.527 9 -16717736.75447  20831749.606    20831757.2764
  24208371.819    -1092819.126 7   -826733.77945  24208381.720    24208395.3354
  21467218.135   -16443382.642 9 -12795344.58847  21467223.463    21467231.3884
 00  6 23  1 44  0.0000000  0  8 11 25 20 05 21 29 15 30
  24019708.636    -4293447.669 8  -3330367.85145  24019712.217    24019723.0484
  20925500.883   -23742014.005 9 -18484357.94248  20925502.886    20925510.4564
  24613084.873    -1053461.048 7   -803880.46945  24613091.283    24613102.0714
  23660948.122    -8105806.864 8  -6295682.07246  23660950.962    23660962.3694
  21452085.639   -19485159.933 8 -15166542.71447  21452086.035    21452095.5044
  20837392.917   -21451565.265 9 -16694614.73747  20837396.216    20837403.8934
  24226831.224     -995869.419 8   -751188.72545  24226831.014    24226845.4594
  21470814.419   -16424507.914 9 -12780637.00347  21470815.093    21470823.2444
 00  6 23  1 44 30.0000000  0  8 11 25 20 05 21 29 15 30
  24026164.651    -4259518.224 7  -3303929.31045  24026168.923    24026179.9304
  20919328.275   -23774438.254 9 -18509623.56548  20919332.567    20919340.4994
  24593374.008    -1157060.465 7   -884607.21145  24593376.260    24593389.3424
  23676381.135    -8024731.849 8  -6232506.81645  23676379.093    23676390.3054
  21468310.121   -19399882.782 8 -15100093.04947  21468313.350    21468322.9504
  20843091.973   -21421620.330 9 -16671281.03147  20843094.669    20843102.1154
  24245275.301     -898902.361 8   -675630.13145  24245283.109    24245297.5264
  21474521.389   -16405029.237 9 -12765458.81547  21474522.454    21474529.9444
 00  6 23  1 45  0.0000000  0  8 11 25 20 05 21 29 15 30
  24032698.769    -4225178.101 7  -3277170.81745  24032703.051    24032714.7244
  20913220.035   -23806538.144 9 -18534636.43348  20913224.376    20913232.0624
  24573696.298    -1260491.411 7   -965202.70345  24573694.455    24573705.3254
  23691873.078    -7943293.393 8  -6169048.34645  23691876.830    23691887.2654
  21484619.919   -19314176.688 8 -15033309.16047  21484623.235    21484632.4524
  20848840.379   -21391403.291 9 -16647735.29547  20848844.965    20848852.6504
  24263738.697     -801920.769 8   -600060.21145  24263738.670    24263752.2214
  21478340.953   -16384947.258 9 -12749810.51147  21478343.548    21478351.3824
 00  6 23  1 45 30.0000000  0  8 11 25 20 05 21 29 15 30
  24039314.229    -4190429.320 7  -3250093.83145  24039317.249    24039328.2164
  20907174.774   -23838313.909 9 -18559396.73848  20907177.702    20907185.3994
  24554046.665    -1363751.509 7  -1045665.09945  24554045.633    24554056.3264
  23707438.285    -7861494.070 8  -6105308.67145  23707442.461    23707453.6444
  21501010.824   -19228043.619 8 -14966192.53547  21501013.269    21501023.0974
  20854644.098   -21360913.731 9 -16623977.19847  20854647.363    20854654.7584
  24282191.991     -704927.974 7   -524481.59045  24282195.345    24282210.9114
  21482277.789   -16364262.663 9 -12733692.64147  21482279.639    21482287.6314
 00  6 23  1 46  0.0000000  0  8 11 25 20 05 21 29 15 30
  24046002.043    -4155273.995 7  -3222700.15745  24046006.558    24046016.3294
  20901189.099   -23869766.260 9 -18583905.03448  20901192.505    20901200.1424
  24534428.037    -1466838.077 7  -1125992.26745  24534429.146    24534439.7864
  23723069.607    -7779336.235 8  -6041289.64545  23723077.480    23723087.8854
  21517481.354   -19141486.007 8 -14898745.11047  21517485.518    21517494.6164
  20860497.573   -21330151.516 9 -16600006.65047  20860500.975    20860508.3424
  24300652.488     -607926.922 8   -448896.51645  24300655.095    24300669.0314
  21486326.700   -16342976.173 9 -12717105.76447  21486330.622    21486338.4874
 00  6 23  1 46 30.0000000  0  8 11 25 20 05 21 29 15 30
  24052767.950    -4119714.392 7  -3194991.43145  24052773.477    24052783.6214
  20895265.360   -23900895.275 9 -18608161.38948  20895268.735    20895276.1074
  24514846.027    -1569748.461 7  -1206182.10045  24514845.056    24514857.2004
  23738776.719    -7696822.388 8  -5976993.24045  23738778.681    23738789.7544
  21534034.113   -19054506.834 8 -14830969.20547  21534036.701    21534045.9984
  20866404.485   -21299115.677 9 -16575822.88547  20866406.676    20866414.3444
  24319117.641     -510920.765 8   -373307.51045  24319114.874    24319129.9424
  21490495.456   -16321088.693 9 -12700050.57847  21490495.956    21490503.7534
 00  6 23  1 47  0.0000000  0  8 11 25 20 05 21 29 15 30
  24059615.097    -4083752.432 7  -3166969.21245  24059616.695    24059627.2204
  20889403.017   -23931701.321 9 -18632166.06347  20889406.293    20889414.0104
  24495295.502    -1672480.414 7  -1286232.89545  24495296.098    24495306.8354
  23754546.124    -7613955.196 8  -5912421.47645  23754547.412    23754559.0654
  21550664.563   -18967108.288 8 -14762866.48046  21550667.695    21550676.7744
  20872359.179   -21267806.199 9 -16551425.89547  20872364.456    20872372.3074
  24337569.846     -413912.502 8   -297716.82245  24337574.796    24337589.3014
  21494769.071   -16298601.026 9 -12682527.71647  21494774.776    21494782.8224
 00  6 23  1 47 30.0000000  0  8 11 25 20 05 21 29 15 30
  24066536.927    -4047390.360 7  -3138635.21545  24066536.039    24066546.3684
  20883600.459   -23962184.853 9 -18655919.44148  20883605.777    20883613.1894
  24475776.199    -1775030.985 7  -1366142.36745  24475781.659    24475791.1644
  23770379.619    -7530737.077 8  -5847576.26445  23770382.875    23770394.4434
  21567377.842   -18879292.547 8 -14694438.67447  21567378.646    21567388.1514
  20878369.800   -21236222.547 9 -16526815.26347  20878374.273    20878382.5264
  24356037.689     -316905.524 7   -222127.14245  24356034.175    24356049.2054
  21499162.154   -16275513.685 9 -12664537.56347  21499167.742    21499176.2424
 00  6 23  1 48  0.0000000  0  8 11 25 20 05 21 29 15 30
  24073523.738    -4010630.169 8  -3109991.02445  24073530.286    24073541.7074
  20877862.820   -23992345.779 9 -18679421.44248  20877866.237    20877873.9844
  24456292.329    -1877397.709 7  -1445908.57945  24456302.145    24456311.0084
  23786287.126    -7447170.453 8  -5782459.49345  23786285.398    23786297.4604
  21584167.422   -18791061.932 8 -14625687.57747  21584168.885    21584177.6594
  20884433.061   -21204364.283 9 -16501990.64847  20884436.860    20884444.6614
  24374487.686     -219902.716 7   -146540.70445  24374493.458    24374507.6224
  21503672.673   -16251827.911 9 -12646081.10847  21503675.398    21503683.2894
 00  6 23  1 48 30.0000000  0  8 11 25 20 05 21 29 15 30
  24080596.989    -3973474.214 7  -3081038.45345  24080602.864    24080612.9194
  20872184.504   -24022184.645 9 -18702672.47748  20872188.079    20872196.0534
  24436853.534    -1979577.972 7  -1525529.46245  24436856.474    24436866.3214
  23802247.659    -7363257.373 8  -5717072.77045  23802253.280    23802265.9164
  21601032.129   -18702418.558 8 -14556614.81747  21601037.151    21601046.5284
  20890549.752   -21172230.758 9 -16476951.54947  20890552.108    20890559.4944
  24392953.500     -122907.233 8    -70959.92945  24392951.518    24392965.4104
  21508293.618   -16227544.401 9 -12627158.88347  21508296.889    21508304.4034
 00  6 23  1 49  0.0000000  0  8 11 25 20 05 21 29 15 30
  24087746.474    -3935924.308 7  -3051778.90145  24087747.030    24087758.8934
  20866568.926   -24051701.881 9 -18725672.89748  20866571.460    20866578.9484
  24417445.308    -2081569.120 7  -1605002.96945  24417446.831    24417458.0964
  23818290.002    -7279000.965 8  -5651418.51045  23818288.091    23818298.8874
  21617980.574   -18613365.188 8 -14487222.59547  21617983.139    21617992.8184
  20896714.147   -21139821.591 9 -16451697.65847  20896718.909    20896726.7044
  24411411.654      -25922.102 8      4612.71245  24411407.016    24411421.5264
  21513028.644   -16202663.970 9 -12607771.52547  21513031.310    21513038.8594
 00  6 23  1 49 30.0000000  0  8 11 25 20 05 21 29 15 30
  24094958.925    -3897982.762 7  -3022214.18245  24094967.039    24094977.5464
  20861013.252   -24080898.091 9 -18748423.16248  20861015.141    20861022.9604
  24398076.229    -2183368.808 7  -1684327.26945  24398074.867    24398086.2934
  23834379.690    -7194403.619 8  -5585498.55345  23834386.249    23834397.5044
  21635004.799   -18523903.865 8 -14417512.48247  21635007.570    21635015.8744
  20902936.537   -21107136.690 9 -16426228.91347  20902938.577    20902946.4104
  24429849.993       71049.620 8     80174.92945  24429860.028    24429874.6044
  21517873.803   -16177187.910 9 -12587920.03847  21517878.295    21517886.8854
 00  6 23  1 50  0.0000000  0  8 11 25 20 05 21 29 15 30
  24102262.057    -3859651.766 8  -2992345.92845  24102263.772    24102272.5114
  20855516.798   -24109773.468 9 -18770923.42948  20855520.168    20855527.8374
  24378740.795    -2284974.047 8  -1763500.10945  24378741.331    24378751.9744
  23850548.738    -7109467.749 8  -5519314.86545  23850549.240    23850560.1524
  21652110.059   -18434036.931 8 -14347486.26646  21652108.289    21652117.9074
  20909207.518   -21074175.411 9 -16400544.81147  20909210.706    20909218.7874
  24448311.901      168004.862 8    155724.36945  24448310.858    24448325.4854
  21522836.806   -16151116.816 9 -12567604.88947  21522839.652    21522847.7284
 00  6 23  1 50 30.0000000  0  8 11 25 20 05 21 29 15 30
  24109628.682    -3820933.717 7  -2962176.12045  24109631.019    24109641.1424
  20850085.385   -24138328.013 9 -18793173.69848  20850086.695    20850094.0154
  24359436.368    -2386382.227 7  -1842519.39045  24359443.611    24359456.2394
  23866775.798    -7024195.883 8  -5452869.34945  23866776.854    23866786.5504
  21669285.309   -18343767.233 8 -14277146.24347  21669286.191    21669295.3534
  20915530.781   -21040937.474 9 -16374645.13747  20915535.925    20915544.1924
  24466754.417      264940.560 8    231258.47245  24466757.253    24466771.5544
  21527911.602   -16124451.382 9 -12546826.62647  21527914.575    21527922.2414
 00  6 23  1 51  0.0000000  0  8 11 25 20 05 21 29 15 30
  24117070.282    -3781830.819 7  -2931706.43445  24117070.711    24117081.5784
  20844708.805   -24166562.797 9 -18815174.80648  20844714.068    20844721.0484
  24340181.462    -2487590.976 7  -1921383.25645  24340182.806    24340196.3554
  23883060.322    -6938590.577 8  -5386164.00445  23883065.803    23883075.8114
  21686534.454   -18253096.487 8 -14206493.69246  21686539.967    21686549.0324
  20921910.453   -21007422.258 9 -16348529.39847  20921913.697    20921922.0004
  24485195.145      361853.541 8    306774.94445  24485199.740    24485213.5324
  21533097.484   -16097193.164 9 -12525586.44347  21533101.353    21533108.9994
 00  6 23  1 51 30.0000000  0  8 11 25 20 05 21 29 15 30
  24124575.552    -3742345.310 7  -2900938.58745  24124584.946    24124595.5934
  20839399.327   -24194477.882 9 -18836926.80248  20839401.653    20839409.0764
  24320965.170    -2588597.412 7  -2000089.49545  24320964.712    24320974.7574
  23899423.944    -6852654.499 8  -5319200.92145  23899418.528    23899429.8594
  21703869.041   -18162027.788 8 -14135531.07647  21703870.126    21703879.5694
  20928340.506   -20973629.673 9 -16322197.52247  20928344.210    20928352.5894
  24503641.550      458741.060 8    382271.56245  24503635.077    24503651.3684
  21538397.271   -16069342.758 9 -12503884.82447  21538400.594    21538409.1034
 00  6 23  1 52  0.0000000  0  8 11 25 20 05 21 29 15 30
  24132160.011    -3702479.442 7  -2869874.33745  24132171.247    24132183.0344
  20834147.516   -24222073.569 9 -18858429.90548  20834150.339    20834157.9244
  24301778.560    -2689399.042 7  -2078636.17345  24301782.192    24301792.1804
  23915835.133    -6766390.247 8  -5251982.09445  23915834.439    23915845.0944
  21721273.184   -18070563.771 8 -14064260.45846  21721275.110    21721283.8104
  20934824.677   -20939558.891 9 -16295648.87047  20934828.041    20934835.3264
  24522058.296      555600.069 7    457745.92145  24522067.789    24522083.1464
  21543812.678   -16040901.306 9 -12481722.65247  21543813.370    21543821.0644
 00  6 23  1 52 30.0000000  0  7 11 25 20 05 21 29 30
  24139821.163    -3662235.442 7  -2838515.41545  24139829.842    24139840.9424
  20828957.030   -24249350.484 9 -18879684.62148  20828959.724    20828967.1104
  24282635.407    -2789993.211 7  -2157021.12345  24282637.932    24282649.5594
  23932309.558    -6679800.105 8  -5184509.35545  23932311.750    23932322.7624
  21738750.080   -17978706.637 8 -13992683.49346  21738754.785    21738763.5824
  20941361.783   -20905209.830 9 -16268883.38247  20941364.394    20941372.2504
  21549332.671   -16011869.852 9 -12459100.73647  21549337.669    21549345.4014
 00  6 23  1 53  0.0000000  0  7 11 25 20 05 21 29 30
  24147558.508    -3621615.193 7  -2806863.38245  24147558.366    24147570.1854
  20823826.337   -24276308.919 9 -18900691.17548  20823829.772    20823837.0974
  24263535.938    -2890377.132 7  -2235242.28245  24263536.659    24263546.8314
  23948851.659    -6592886.408 8  -5116784.50445  23948851.212    23948862.4274
  21756307.902   -17886458.390 8 -13920801.76546  21756309.156    21756318.5484
  20947950.421   -20870581.927 9 -16241900.61347  20947953.520    20947961.6524
  21554968.053   -15982249.490 8 -12436019.92447  21554973.381    21554982.0754
 00  6 23  1 53 30.0000000  0  7 11 25 20 05 21 29 30
  24155358.492    -3580621.444 7  -2774920.22645  24155360.312    24155371.8174
  20818757.490   -24302949.104 9 -18921449.74248  20818760.428    20818767.7064
  24244473.439    -2990548.270 7  -2313297.66045  24244474.676    24244484.6744
  23965448.338    -6505651.825 8  -5048809.59945  23965450.980    23965462.2594
  21773933.755   -17793822.262 8 -13848617.76846  21773936.771    21773946.4014
  20954593.126   -20835674.875 9 -16214700.33447  20954596.664    20954604.3344
  21560719.216   -15952041.437 9 -12412481.18047  21560722.156    21560731.0764
 00  6 23  1 54  0.0000000  0  7 11 25 20 05 21 29 30
  24163229.124    -3539256.655 7  -2742687.94645  24163232.000    24163242.9844
  20813745.455   -24329271.537 9 -18941960.71048  20813751.226    20813758.6494
  24225450.091    -3090504.148 7  -2391185.28345  24225454.192    24225464.4324
  23982108.101    -6418098.923 8  -4980586.66045  23982111.375    23982124.1754
  21791634.819   -17700800.781 8 -13776133.53646  21791638.019    21791648.5234
  20961289.971   -20800488.382 9 -16187282.30647  20961292.362    20961300.1134
  21566579.607   -15921246.704 9 -12388485.27347  21566582.477    21566590.9624
 00  6 23  1 54 30.0000000  0  7 11 25 20 05 21 29 30
  24171171.191    -3497522.837 7  -2710168.17545  24171173.078    24171183.7984
  20808799.277   -24355277.036 9 -18962224.71748  20808802.588    20808809.7724
  24206468.834    -3190241.886 7  -2468902.94245  24206473.654    24206485.6854
  23998830.083    -6330230.277 8  -4912117.66945  23998833.161    23998844.6284
  21809407.467   -17607395.582 8 -13703350.33846  21809412.916    21809422.7264
  20968037.580   -20765021.970 9 -16159646.15547  20968041.392    20968048.9584
  21572552.894   -15889866.579 9 -12364033.21947  21572553.962    21572562.5514
 00  6 23  1 55  0.0000000  0  7 11 25 20 05 21 29 30
  24179178.333    -3455422.406 7  -2677362.69745  24179184.705    24179194.9304
  20803909.456   -24380965.509 9 -18982241.69748  20803914.375    20803921.5134
  24187524.758    -3289758.800 7  -2546448.53945  24187535.831    24187546.6834
  24015610.093    -6242048.492 8  -4843404.66845  24015613.065    24015624.0284
  21827258.639   -17513609.841 8 -13630270.63246  21827259.626    21827270.0524
  20974839.226   -20729275.146 9 -16131791.49747  20974843.371    20974851.4634
  21578635.223   -15857901.891 9 -12339125.67847  21578636.526    21578645.0754
 00  6 23  1 55 30.0000000  0  7 11 25 20 05 21 29 30
  24187262.245    -3412957.856 7  -2644273.48545  24187264.874    24187275.4024
  20799084.373   -24406337.824 9 -19002012.31548  20799086.190    20799093.4314
  24168634.151    -3389052.339 7  -2623820.05045  24168641.109    24168652.2274
  24032449.013    -6153556.093 7  -4774449.65145  24032452.475    24032464.2294
  21845176.322   -17419445.968 8 -13556896.27546  21845179.447    21845188.4674
  20981695.665   -20693247.551 9 -16103718.06047  20981699.343    20981707.2494
  21584829.181   -15825354.172 9 -12313763.82047  21584830.457    21584838.4664
 00  6 23  1 56  0.0000000  0  7 11 25 20 05 21 29 30
  24195408.551    -3370131.166 7  -2610902.11545  24195416.036    24195427.3194
  20794315.921   -24431394.144 9 -19021536.70748  20794317.977    20794325.3274
  24149786.877    -3488119.856 7  -2701015.39645  24149788.929    24149800.3454
  24049352.449    -6064755.655 7  -4705254.62445  24049350.406    24049362.2504
  21863168.059   -17324906.376 8 -13483229.15546  21863169.407    21863178.9324
  20988606.405   -20656939.024 9 -16075425.71147  20988608.439    20988616.6444
  21591131.997   -15792224.432 9 -12287948.43547  21591135.160    21591142.7584
 00  6 23  1 56 30.0000000  0  7 11 25 20 05 21 29 30
  24203630.285    -3326944.863 7  -2577250.55045  24203632.796    24203644.6354
  20789606.792   -24456134.940 9 -19040815.22948  20789609.624    20789617.3634
  24130977.675    -3586958.559 7  -2778032.48745  24130981.234    24130992.3804
  24066300.858    -5975649.550 7  -4635821.39145  24066306.910    24066319.5724
  21881226.153   -17229994.048 8 -13409271.62446  21881230.774    21881239.8454
  20995567.207   -20620349.027 9 -16046914.04447  20995571.215    20995579.5454
  21597549.223   -15758514.192 9 -12261680.72547  21597549.936    21597557.0454
 00  6 23  1 57  0.0000000  0  7 11 25 20 05 21 29 30
  24211916.852    -3283401.338 7  -2543320.63045  24211920.684    24211931.1394
  20784959.430   -24480560.511 9 -19059848.12048  20784961.630    20784969.3204
  24112218.550    -3685565.749 7  -2854869.16945  24112216.853    24112226.9154
  24083320.735    -5886240.611 8  -4566152.16245  24083321.239    24083332.7484
  21899359.349   -17134711.503 8 -13335025.60946  21899362.360    21899371.8534
  21002583.150   -20583477.241 9 -16018182.79747  21002587.754    21002596.2564
  21604070.568   -15724224.446 9 -12234961.44647  21604074.587    21604082.7544
 00  6 23  1 57 30.0000000  0  7 11 25 20 05 21 29 30
  24220275.689    -3239503.010 7  -2509114.23145  24220272.586    24220284.3364
  20780371.598   -24504671.514 9 -19078635.90048  20780373.637    20780381.1754
  24093495.453    -3783938.904 7  -2931523.45945  24093495.784    24093507.6144
  24100384.431    -5796531.326 8  -4496248.91945  24100393.240    24100404.6294
  21917562.621   -17039061.106 8 -13260493.00746  21917563.502    21917573.3694
  21009654.870   -20546323.343 9 -15989231.72147  21009657.923    21009666.4414
  21610708.051   -15689356.675 9 -12207791.73647  21610710.125    21610717.5124
 00  6 23  1 58  0.0000000  0  7 11 25 20 05 21 29 30
  24228695.475    -3195252.296 7  -2474633.27645  24228694.080    24228704.0224
  20775842.656   -24528468.356 9 -19097178.88348  20775845.310    20775852.6314
  24074817.336    -3882075.302 7  -3007993.26145  24074822.320    24074832.7134
  24117519.775    -5706524.327 8  -4426113.67545  24117520.509    24117532.8474
  21935827.368   -16943045.168 8 -13185675.53946  21935835.197    21935844.6844
  21016777.598   -20508886.889 9 -15960060.46747  21016781.865    21016790.3114
  21617454.641   -15653911.932 9 -12180172.46847  21617455.346    21617462.8954
 00  6 23  1 58 30.0000000  0  7 11 25 20 05 21 29 30
  24237180.182    -3150651.587 7  -2439879.57345  24237181.592    24237193.1744
  20771371.987   -24551951.760 9 -19115477.62848  20771376.593    20771383.8564
  24056191.592    -3979972.121 7  -3084276.37945  24056194.047    24056203.9864
  24134699.628    -5616222.077 8  -4355748.39945  24134704.738    24134716.6914
  21954174.688   -16846666.692 8 -13110575.59046  21954176.028    21954185.4284
  21023958.539   -20471167.493 9 -15930668.74047  21023959.568    21023967.8104
  21624306.474   -15617891.537 9 -12152104.62647  21624309.389    21624317.8414
 00  6 23  1 59  0.0000000  0  8 11 25 20 22 05 21 29 30
  24245730.805    -3105703.354 7  -2404855.07845  24245733.975    24245745.4194
  20766964.825   -24575121.973 9 -19133532.32848  20766967.102    20766974.7854
  24037607.238    -4077626.892 8  -3160370.79645  24037610.329    24037621.0624
  24525560.166    -3702241.21417  -2870990.50955  24525561.482    24525576.6074
  24151944.836    -5525627.111 8  -4285155.01245  24151944.883    24151956.1444
  21972582.683   -16749928.288 8 -13035195.20446  21972584.446    21972593.9184
  21031187.327   -20433164.964 9 -15901056.38547  21031190.999    21031199.3834
  21631272.232   -15581297.125 9 -12123589.49547  21631273.357    21631280.9474
 00  6 23  1 59 30.0000000  0  8 11 25 20 22 05 21 29 30
  24254350.293    -3060410.033 7  -2369561.70945  24254352.545    24254365.1074
  20762613.970   -24597979.323 9 -19151343.23948  20762617.543    20762625.0484
  24019074.564    -4175036.811 8  -3236274.51645  24019073.709    24019082.7444
  24502523.673    -3823302.460 7  -2965323.72945  24502525.042    24502539.3544
  24169238.884    -5434741.884 8  -4214335.46545  24169239.685    24169251.6924
  21991057.105   -16652832.329 8 -12959536.20046  21991061.741    21991071.2934
  21038472.489   -20394878.648 9 -15871222.90147  21038476.854    21038485.0974
  21638344.016   -15544129.964 9 -12094628.07347  21638345.465    21638353.3264
 00  6 23  2  0  0.0000000  0  8 11 25 20 22 05 21 29 30
  24263037.836    -3014773.976 7  -2334001.21245  24263038.204    24263049.1804
  20758324.189   -24620524.681 9 -19168911.03548  20758327.213    20758334.9504
  24000578.395    -4272199.338 7  -3311985.43045  24000582.730    24000592.9724
  24479482.078    -3944346.510 7  -3059643.39145  24479490.158    24479505.4054
  24186587.252    -5343569.213 8  -4143291.92845  24186589.611    24186601.2894
  22009602.931   -16555381.110 8 -12883600.35846  22009605.772    22009615.6944
  21045814.300   -20356308.448 9 -15841168.21847  21045816.714    21045824.6214
  21645526.033   -15506391.450 9 -12065221.43847  21645527.399    21645534.9024
 00  6 23  2  0 30.0000000  0  8 11 25 20 22 05 21 29 30
  24271788.420    -2968797.706 8  -2298175.68045  24271786.952    24271799.0224
  20754091.431   -24642758.342 9 -19186235.96548  20754096.346    20754103.8464
  23982138.872    -4369111.765 7  -3387501.42445  23982141.185    23982152.2804
  24456456.160    -4065370.561 7  -3153947.60845  24456460.923    24456475.8184
  24203987.691    -5252111.440 8  -4072026.23745  24203993.126    24204005.9314
  22028212.306   -16457577.965 8 -12807390.29746  22028217.782    22028227.4804
  21053206.259   -20317454.196 9 -15810892.18547  21053210.313    21053218.4204
  21652815.222   -15468082.912 9 -12035370.63647  21652817.256    21652825.1444
 00  6 23  2  1  0.0000000  0  8 11 25 20 22 05 21 29 30
  24280593.330    -2922483.793 7  -2262087.06845  24280600.195    24280611.9324
  20749921.343   -24664680.578 9 -19203318.22548  20749924.832    20749932.1134
  23963743.664    -4465771.288 7  -3462820.39945  23963748.392    23963757.8254
  24433441.768    -4186372.005 7  -3248234.19045  24433433.236    24433449.2784
  24221451.437    -5160371.202 8  -4000540.44145  24221450.871    24221463.0024
  22046892.488   -16359425.064 8 -12730907.71246  22046895.710    22046905.6214
  21060656.830   -20278315.276 9 -15780394.33847  21060658.578    21060666.2404
  21660211.979   -15429205.883 9 -12005076.83747  21660215.025    21660222.9904
 00  6 23  2  1 30.0000000  0  8 11 25 20 22 05 21 29 30
  24289475.820    -2875834.600 7  -2225737.20045  24289477.608    24289488.1414
  20745809.609   -24686292.231 9 -19220158.47148  20745812.075    20745819.7254
  23945398.492    -4562175.259 8  -3537940.26145  23945403.266    23945412.2034
  24410406.830    -4307348.707 7  -3342501.51645  24410413.355    24410428.3494
  24238959.842    -5068351.152 8  -3928836.62045  24238962.529    24238973.2864
  22065638.974   -16260924.998 8 -12654154.59246  22065639.267    22065649.5114
  21068156.131   -20238891.532 9 -15749674.55647  21068160.614    21068168.6014
  21667720.101   -15389761.736 9 -11974341.13447  21667720.940    21667728.7944
 00  6 23  2  2  0.0000000  0  8 11 25 20 22 05 21 29 30
  24298415.625    -2828852.490 8  -2189127.86445  24298418.296    24298430.2304
  20741756.118   -24707593.433 9 -19236756.80148  20741758.460    20741766.1944
  23927101.297    -4658320.935 8  -3612858.88245  23927106.708    23927116.5904
  24387385.505    -4428298.133 7  -3436747.55545  24387397.930    24387410.4784
  24256520.322    -4976053.701 8  -3856916.61245  24256526.370    24256536.9104
  22084447.593   -16162080.839 8 -12577133.36046  22084449.279    22084458.9414
  21075713.293   -20199182.481 9 -15718732.44847  21075716.653    21075724.9814
  21675334.201   -15349752.104 9 -11943164.79647  21675334.664    21675342.2864
 00  6 23  2  2 30.0000000  0  8 11 25 20 22 05 21 29 30
  24307423.361    -2781540.044 7  -2152261.10845  24307421.951    24307432.6114
  20737759.304   -24728585.264 9 -19253114.08048  20737763.944    20737771.4744
  23908857.629    -4754205.795 8  -3687574.22945  23908860.607    23908869.5444
  24364385.763    -4549217.366 7  -3530970.09445  24364386.221    24364400.2874
  24274140.064    -4883481.608 8  -3784782.61145  24274141.552    24274153.5804
  22103321.654   -16062895.364 8 -12499846.15846  22103323.852    22103333.2104
  21083324.371   -20159187.884 9 -15687567.83347  21083327.601    21083335.7114
  21683055.021   -15309178.286 9 -11911548.83047  21683055.976    21683063.5204
 00  6 23  2  3  0.0000000  0  8 11 25 20 22 05 21 29 30
  24316486.295    -2733899.658 7  -2115138.84745  24316487.295    24316498.5374
  20733825.422   -24749267.436 9 -19269230.05648  20733828.351    20733835.8604
  23890665.564    -4849827.084 8  -3762084.26845  23890663.761    23890673.6194
  24341391.824    -4670103.496 7  -3625166.82645  24341383.065    24341397.1914
  24291805.869    -4790637.415 7  -3712436.59745  24291808.928    24291820.7354
  22122260.934   -15963371.023 8 -12422294.90246  22122262.486    22122273.0074
  21090990.215   -20118907.396 9 -15656180.43647  21090992.910    21091000.5944
  21690881.775   -15268041.894 9 -11879494.50447  21690883.740    21690891.1614
 00  6 23  2  3 30.0000000  0  8 11 25 20 22 05 21 29 30
  24325612.448    -2685934.046 7  -2077763.15645  24325614.304    24325625.7184
  20729948.379   -24769641.289 9 -19285105.79348  20729951.547    20729959.1364
  23872521.709    -4945182.060 7  -3836386.76845  23872517.369    23872528.5974
  24318389.481    -4790954.073 7  -3719335.81645  24318385.474    24318398.4844
  24309524.527    -4697523.711 8  -3639880.55745  24309528.408    24309539.8184
  22141260.209   -15863510.279 8 -12344481.53146  22141265.770    22141274.9864
  21098709.976   -20078340.729 9 -15624570.04847  21098712.544    21098720.1364
  21698818.839   -15226344.457 9 -11847002.98847  21698818.020    21698825.9754
 00  6 23  2  4  0.0000000  0  8 11 25 20 22 05 21 29 30
  24334797.693    -2637645.659 7  -2040135.92745  24334804.208    24334815.4444
  20726129.937   -24789706.903 9 -19300741.34248  20726133.254    20726140.7344
  23854428.507    -5040267.902 8  -3910479.52245  23854425.983    23854435.4644
  24295389.226    -4911766.909 7  -3813475.48545  24295397.206    24295409.3784
  24327293.896    -4604143.064 8  -3567116.51045  24327298.096    24327308.6604
  22160329.949   -15763315.717 8 -12266407.98246  22160332.494    22160342.6824
  21106485.063   -20037487.571 9 -15592736.42047  21106486.963    21106494.7444
  21706854.945   -15184087.827 9 -11814075.74947  21706859.260    21706867.4134
 00  6 23  2  4 30.0000000  0  8 11 25 20 22 05 21 29 30
  24344046.426    -2589037.009 7  -2002259.12945  24344053.728    24344065.1274
  20722370.607   -24809464.891 9 -19316137.18248  20722373.235    20722380.6524
  23836378.677    -5135082.194 8  -3984360.75445  23836381.853    23836390.8064
  24272410.193    -5032539.507 7  -3907583.81145  24272411.932    24272426.8724
  24345123.296    -4510498.070 8  -3494146.50145  24345119.068    24345129.4674
  22179458.698   -15662790.572 8 -12188076.87546  22179461.968    22179472.3654
  21114310.975   -19996347.602 9 -15560679.29647  21114315.353    21114323.3114
  21715002.905   -15141273.201 9 -11780713.70947  21715006.622    21715014.8164
 00  6 23  2  5  0.0000000  0  8 11 25 20 22 05 21 29 30
  24353369.184    -2540110.751 7  -1964134.84345  24353365.238    24353375.1264
  20718668.503   -24828915.712 9 -19331293.66848  20718671.820    20718679.4164
  23818383.584    -5229622.161 8  -4058028.23945  23818390.918    23818400.8964
  24249438.668    -5153268.859 7  -4001658.36845  24249438.344    24249452.7604
  24362991.405    -4416591.270 8  -3420972.46845  24362989.166    24362999.9194
  22198657.443   -15561937.883 8 -12109490.54946  22198653.138    22198663.6034
  21122196.749   -19954920.705 9 -15528398.58547  21122198.651    21122206.5684
  21723256.157   -15097902.310 9 -11746918.20847  21723259.450    21723267.9124
 00  6 23  2  5 30.0000000  0  8 11 25 20 22 05 21 29 30
  24362726.102    -2490869.235 7  -1925764.84145  24362734.057    24362746.7844
  20715027.161   -24848059.820 9 -19346211.16248  20715029.173    20715036.4944
  23800453.087    -5323885.025 8  -4131479.74545  23800453.467    23800463.8424
  24226464.938    -5273951.974 7  -4095696.99545  24226473.006    24226486.4614
  24380910.402    -4322425.221 8  -3347596.42545  24380908.611    24380919.0894
  22217900.166   -15460759.442 8 -12030650.36946  22217905.988    22217916.9374
  21130133.673   -19913206.400 9 -15495893.93147  21130136.242    21130144.4264
  21731613.587   -15053976.965 9 -11712690.67447  21731618.462    21731626.8034
 00  6 23  2  6  0.0000000  0  8 11 25 20 22 05 21 29 30
  24372160.655    -2441315.151 7  -1887151.25845  24372164.603    24372176.5154
  20711442.490   -24866897.681 9 -19360890.02948  20711444.502    20711451.7074
  23782561.720    -5417867.979 8  -4204713.16145  23782568.383    23782578.0614
  24203514.523    -5394586.366 7  -4189697.51545  24203517.979    24203530.7454
  24398883.129    -4228002.425 8  -3274020.30445  24398876.309    24398887.5364
  22237227.574   -15359258.211 8 -11951558.67046  22237221.717    22237232.8474
  21138126.818   -19871204.306 9 -15463165.02247  21138129.055    21138137.1574
  21740079.709   -15009498.499 9 -11678032.13947  21740082.741    21740090.5584
 00  6 23  2  6 30.0000000  0  8 11 25 20 22 05 21 29 30
  24381646.541    -2391450.974 7  -1848296.07745  24381653.626    24381665.4494
  20707915.567   -24885430.290 9 -19375331.02548  20707917.566    20707925.1884
  23764735.653    -5511568.344 8  -4277726.34745  23764739.139    23764749.1784
  24180571.977    -5515170.059 7  -4283658.62845  24180569.874    24180583.7934
  24416892.308    -4133325.700 8  -3200246.30645  24416892.450    24416904.3624
  22256590.287   -15257437.057 8 -11872217.66446  22256598.492    22256608.7834
  21146174.232   -19828914.478 9 -15430211.88247  21146176.619    21146184.5024
  21748649.486   -14964468.582 9 -11642943.90247  21748651.796    21748659.6274
 00  6 23  2  7  0.0000000  0  8 11 25 20 22 05 21 29 30
  24391194.876    -2341279.473 7  -1809201.42545  24391200.424    24391210.9394
  20704445.679   -24903657.850 9 -19389534.32748  20704449.010    20704456.6674
  23746959.648    -5604983.749 8  -4350517.48145  23746962.387    23746972.3654
  24157635.798    -5635700.286 7  -4377578.09845  24157635.058    24157648.2714
  24434956.706    -4038397.544 8  -3126276.39145  24434957.506    24434968.0394
  22276030.441   -15155298.865 8 -11792629.63646  22276034.510    22276045.4604
  21154276.010   -19786336.328 9 -15397034.08947  21154279.172    21154286.9474
  21757321.179   -14918889.022 9 -11607427.37247  21757324.845    21757332.8004
 00  6 23  2  7 30.0000000  0  8 11 25 20 22 05 21 29 30
  24400800.484    -2290803.101 7  -1769869.20145  24400806.179    24400818.1124
  20701034.106   -24921580.870 9 -19403500.32348  20701038.265    20701045.8154
  23729243.683    -5698111.232 8  -4423084.31045  23729240.533    23729250.3824
  24134695.156    -5756173.910 7  -4471453.41445  24134708.633    24134721.8524
  24453070.712    -3943220.538 8  -3052112.55845  24453068.589    24453079.6494
  22295526.708   -15052845.913 8 -11712796.28746  22295530.909    22295540.6584
  21162430.127   -19743469.621 9 -15363631.45847  21162436.005    21162443.9874
  21766100.577   -14872761.479 9 -11571483.84047  21766103.024    21766110.6594
 00  6 23  2  8  0.0000000  0  8 11 25 20 22 05 21 29 30
  24410467.297    -2240024.586 8  -1730301.53845  24410469.093    24410481.3214
  20697681.610   -24939200.054 9 -19417229.56948  20697685.463    20697692.9274
  23711572.005    -5790948.156 8  -4495424.69245  23711574.320    23711585.1144
  24111787.275    -5876588.343 7  -4565282.64545  24111793.738    24111806.5994
  24471231.564    -3847797.279 7  -2977756.83845  24471226.416    24471239.1334
  22315083.108   -14950081.447 8 -11632720.21446  22315086.388    22315097.3304
  21170645.056   -19700314.280 9 -15330003.91347  21170648.089    21170656.1774
  21774982.773   -14826088.007 9 -11535114.91347  21774984.283    21774992.0934
 00  6 23  2  8 30.0000000  0  8 11 25 20 22 05 21 29 30
  24420187.451    -2188946.473 8  -1690500.40345  24420188.831    24420200.4234
  20694387.595   -24956516.040 9 -19430722.55448  20694390.425    20694397.7784
  23693958.656    -5883491.851 8  -4567536.52945  23693964.338    23693973.7734
  24088892.804    -5996940.964 7  -4659063.70245  24088892.173    24088905.3514
  24489425.565    -3752130.015 7  -2903210.93645  24489431.682    24489442.8634
  22334697.733   -14847008.128 8 -11552403.45546  22334700.012    22334710.6894
  21178913.456   -19656869.921 9 -15296151.15947  21178915.692    21178923.6884
  21783966.754   -14778869.920 9 -11498321.63147  21783970.017    21783977.7244
 00  6 23  2  9  0.0000000  0  8 11 25 20 22 05 21 29 30
  24429961.303    -2137571.357 8  -1650467.85345  24429965.762    24429976.2034
  20691147.803   -24973528.996 9 -19443979.40548  20691152.975    20691160.1234
  23676405.646    -5975739.490 8  -4639417.75945  23676410.767    23676420.1624
  24066004.254    -6117229.604 8  -4752794.91445  24066003.602    24066015.2504
  24507675.673    -3656221.510 7  -2828477.08245  24507682.793    24507693.3324
  22354373.563   -14743628.995 8 -11471848.43446  22354373.153    22354384.0644
  21187235.769   -19613136.534 9 -15262073.18947  21187237.865    21187246.0094
  21793058.294   -14731109.132 9 -11461105.44147  21793058.250    21793066.2254
 00  6 23  2  9 30.0000000  0  8 11 25 20 22 05 21 29 30
  24439794.496    -2085901.918 7  -1610205.95445  24439797.035    24439808.7754
  20687971.354   -24990239.778 9 -19457000.80148  20687972.881    20687980.3344
  23658907.267    -6067688.579 8  -4711066.30145  23658912.955    23658923.3064
  24043124.964    -6237451.495 8  -4846474.12845  24043124.808    24043136.5684
  24525981.690    -3560074.346 7  -2753557.25645  24525978.338    24525990.6654
  22374101.214   -14639946.329 8 -11391056.87746  22374103.173    22374113.7454
  21195611.865   -19569113.381 9 -15227769.44047  21195615.223    21195622.9524
  21802249.545   -14682807.391 9 -11423467.74747  21802250.342    21802258.1794
 00  6 23  2 10  0.0000000  0  8 11 25 20 22 05 21 29 30
  24449682.435    -2033940.684 8  -1569716.70745  24449685.240    24449697.2024
  20684846.612   -25006648.903 9 -19469787.14448  20684850.697    20684857.9024
  23641469.603    -6159336.245 8  -4782479.98045  23641472.332    23641483.3334
  24020261.361    -6357603.631 7  -4940098.97945  24020259.308    24020273.0254
  24544315.652    -3463691.063 7  -2678453.48745  24544320.177    24544331.0274
  22393887.547   -14535963.049 8 -11310031.03546  22393890.513    22393901.4104
  21204044.152   -19524800.663 9 -15193240.05747  21204047.581    21204055.3344
  21811539.095   -14633966.364 9 -11385409.81547  21811544.217    21811552.4564
 00  6 23  2 10 30.0000000  0  8 11 25 20 22 05 21 29 30
  24459627.984    -1981690.360 7  -1529002.20145  24459628.708    24459640.0944
  20681781.853   -25022756.817 9 -19482338.76248  20681785.212    20681792.7464
  23624091.037    -6250679.910 8  -4853656.77645  23624090.788    23624100.2144
  23997408.238    -6477683.077 8  -5033667.15845  23997409.997    23997421.5824
  24562702.817    -3367074.359 7  -2603167.78645  24562705.467    24562715.8014
  22413728.533   -14431682.087 8 -11228773.23746  22413735.111    22413746.1674
  21212533.671   -19480197.962 9 -15158484.72447  21212535.622    21212543.5024
  21820936.511   -14584588.016 9 -11346933.20347  21820940.530    21820948.7884
 00  6 23  2 11  0.0000000  0  8 11 25 20 22 05 21 29 30
  24469622.547    -1929153.605 7  -1488064.52645  24469625.024    24469637.1164
  20678774.817   -25038564.185 9 -19494656.19848  20678777.319    20678784.7374
  23606758.665    -6341716.803 8  -4924594.57545  23606766.650    23606776.2394
  23974557.824    -6597687.654 7  -5127177.02745  23974571.887    23974585.9254
  24581133.742    -3270226.667 7  -2527702.10145  24581134.161    24581145.9784
  22433634.679   -14327106.332 8 -11147285.70546  22433635.051    22433645.6154
  21221073.898   -19435305.017 9 -15123503.23547  21221077.959    21221086.0584
  21830438.397   -14534674.226 9 -11308039.36047  21830439.743    21830447.3704
 00  6 23  2 11 30.0000000  0  8 11 25 20 22 05 21 29 30
  24479672.810    -1876333.056 7  -1446905.70845  24479676.774    24479689.9634
  20675823.763   -25054071.804 9 -19506740.06048  20675826.647    20675833.7274
  23589497.042    -6432444.460 8  -4995291.37045  23589500.773    23589510.7264
  23951739.649    -6717614.942 7  -5220626.61145  23951750.712    23951763.7234
  24599596.600    -3173150.688 7  -2452058.52145  24599607.266    24599620.2054
  22453585.847   -14222238.383 8 -11065570.49646  22453590.088    22453601.7714
  21229672.450   -19390121.802 9 -15088295.56847  21229676.149    21229683.9284
  21840036.283   -14484226.753 9 -11268729.66747  21840038.796    21840047.0954
 00  6 23  2 12  0.0000000  0  8 11 25 20 22 05 21 29 30
  24489776.135    -1823231.465 7  -1405527.91145  24489781.468    24489794.0394
  20672931.143   -25069279.687 9 -19518590.36648  20672932.621    20672939.7824
  23572292.350    -6522860.014 8  -5065744.98045  23572296.278    23572305.5344
  23928948.928    -6837462.105 7  -5314013.79945  23928944.884    23928957.3064
  24618128.381    -3075849.024 7  -2376239.04745  24618123.256    24618134.9354
  22473600.953   -14117081.048 8 -10983629.81046  22473601.539    22473612.3254
  21238325.345   -19344647.947 9 -15052861.43347  21238329.555    21238337.3894
  21849739.368   -14433247.328 9 -11229005.46947  21849739.817    21849748.0884
 00  6 23  2 12 30.0000000  0  7 11 25 20 22 21 29 30
  24499940.964    -1769851.501 8  -1363933.20045  24499939.877    24499952.7544
  20670091.470   -25084188.921 9 -19530207.95748  20670095.203    20670102.7724
  23555144.906    -6612960.684 8  -5135953.21446  23555149.495    23555161.2824
  23906156.731    -6957226.063 8  -5407336.13345  23906154.123    23906167.3494
  22493653.727   -14011637.225 8 -10901465.86646  22493666.595    22493677.8684
  21247034.871   -19298883.220 9 -15017200.64047  21247038.330    21247046.5684
  21859537.546   -14381737.932 9 -11188868.30047  21859541.790    21859549.8084
 00  6 23  2 13  0.0000000  0  7 11 25 20 22 21 29 30
  24510142.128    -1716195.747 7  -1322123.62545  24510149.668    24510162.6044
  20667312.506   -25098800.011 9 -19541593.22348  20667314.929    20667322.6114
  23538063.201    -6702744.015 8  -5205914.18345  23538064.532    23538074.0254
  23883380.875    -7076904.212 7  -5500591.58945  23883381.313    23883393.4484
  22513786.888   -13905909.507 8 -10819080.70046  22513786.332    22513797.2704
  21255799.847   -19252827.341 9 -14981312.98247  21255802.537    21255810.5914
  21869441.409   -14329700.652 9 -11148319.79647  21869443.918    21869451.7754
 00  6 23  2 13 30.0000000  0  6 25 20 22 21 29 30
  20664589.375   -25113113.517 9 -19552746.60748  20664591.208    20664598.7594
  23521039.272    -6792207.013 8  -5275625.56245  23521039.879    23521050.6624
  23860619.135    -7196494.171 8  -5593778.32845  23860623.613    23860635.5044
  22533954.885   -13799900.899 8 -10736476.64846  22533959.473    22533969.7884
  21264618.266   -19206480.186 9 -14945198.35047  21264621.815    21264629.6194
  21879443.544   -14277137.310 9 -11107361.37547  21879446.932    21879454.7864
 00  6 23  2 14  0.0000000  0  6 25 20 22 21 29 30
  20661920.882   -25127129.902 9 -19563668.46848  20661923.842    20661931.3904
  23504076.563    -6881347.165 8  -5345085.36046  23504078.066    23504088.2844
  23837886.713    -7315993.523 8  -5686894.47245  23837883.352    23837895.9274
  22554179.040   -13693614.339 8 -10653656.02646  22554185.170    22554196.0324
  21273492.944   -19159841.655 9 -14908856.67447  21273497.112    21273504.9264
  21889544.880   -14224049.865 8 -11065994.56447  21889548.991    21889556.6544
 00  6 23  2 14 30.0000000  0  6 25 20 22 21 29 30
  20659309.740   -25140849.883 9 -19574359.35948  20659312.879    20659320.3554
  23487170.458    -6970161.734 8  -5414291.45745  23487176.195    23487185.9384
  23815167.169    -7435399.303 8  -5779937.67845  23815161.257    23815173.4944
  22574458.302   -13587052.677 8 -10570621.04546  22574462.600    22574473.8664
  21282423.976   -19112911.500 9 -14872287.75047  21282427.827    21282435.5174
  21899749.807   -14170440.089 8 -11024220.74747  21899750.620    21899758.7364
 00  6 23  2 15  0.0000000  0  6 25 20 22 21 29 30
  20656754.279   -25154273.872 9 -19584819.61148  20656758.269    20656765.7674
  23470337.066    -7058648.076 8  -5483241.83346  23470338.959    23470349.6944
  23792455.885    -7554708.424 8  -5872905.58545  23792456.566    23792469.2484
  22594789.528   -13480218.786 8 -10487373.97546  22594792.692    22594803.6274
  21291412.501   -19065689.470 9 -14835491.40147  21291413.703    21291421.8184
  21910048.996   -14116310.114 9 -10982041.57947  21910051.263    21910059.3284
 00  6 23  2 15 30.0000000  0  6 25 20 22 21 29 30
  20654258.462   -25167402.448 9 -19595049.67248  20654260.178    20654267.5644
  23453564.214    -7146803.633 8  -5551934.44045  23453561.831    23453572.4964
  23769766.422    -7673918.469 8  -5965796.26345  23769772.214    23769784.4804
  22615169.458   -13373115.084 8 -10403916.63646  22615174.320    22615184.9444
  21300453.934   -19018175.332 9 -14798467.42747  21300455.627    21300463.4244
  21920446.755   -14061662.045 8 -10939458.69247  21920450.500    21920458.6254
 00  6 23  2 16  0.0000000  0  6 25 20 22 21 29 30
  20651813.421   -25180236.392 9 -19605050.15548  20651817.911    20651825.3294
  23436849.364    -7234625.630 8  -5620367.09345  23436851.562    23436860.8124
  23747093.610    -7793027.011 7  -6058607.89045  23747105.912    23747117.9314
  22635606.263   -13265744.971 8 -10320251.70846  22635606.892    22635616.7894
  21309551.077   -18970369.003 9 -14761215.77747  21309552.914    21309560.3834
  21930946.322   -14006497.406 8 -10896473.31447  21930948.072    21930955.3104
 00  6 23  2 16 30.0000000  0  6 25 20 22 21 29 30
  20649428.313   -25192776.380 9 -19614821.57248  20649431.731    20649439.1384
  23420200.942    -7322111.462 8  -5688537.80345  23420202.474    23420212.8934
  23724461.072    -7912031.448 8  -6151338.38545  23724458.983    23724471.4914
  22656084.810   -13158111.036 8 -10236381.20246  22656088.724    22656098.9794
  21318700.729   -18922270.372 9 -14723736.36447  21318705.779    21318713.4314
  21941540.523   -13950818.383 8 -10853087.08647  21941542.768    21941551.2614
 00  6 23  2 17  0.0000000  0  6 25 20 22 21 29 30
  20647097.961   -25205022.999 9 -19624364.39048  20647101.341    20647108.5924
  23403615.667    -7409258.282 8  -5756444.37945  23403619.721    23403628.1724
  23701832.312    -8030928.934 8  -6243985.52045  23701834.567    23701845.6784
  22676621.647   -13050216.157 8 -10152307.40946  22676620.102    22676630.8754
  21327909.431   -18873879.289 9 -14686029.05947  21327914.185    21327922.0454
  21952234.968   -13894627.285 8 -10809301.86547  21952235.796    21952243.6734
 00  6 23  2 17 30.0000000  0  6 25 20 22 21 29 30
  20644822.759   -25216976.873 9 -19633679.08748  20644826.511    20644833.6904
  23387105.649    -7496063.623 8  -5824084.86045  23387100.714    23387110.5344
  23679227.261    -8149716.414 8  -6336546.98045  23679230.502    23679240.6364
  22697195.559   -12942063.195 8 -10068032.48346  22697201.344    22697211.9684
  21337175.567   -18825195.413 9 -14648093.60447  21337178.280    21337186.8554
  21963022.712   -13837925.970 8 -10765119.05447  21963025.399    21963034.4964
 00  6 23  2 18  0.0000000  0  6 25 20 22 21 29 30
  20642604.541   -25228638.334 9 -19642765.93348  20642607.402    20642614.8094
  23370641.032    -7582524.713 8  -5891457.05446  23370649.532    23370657.6524
  23656643.489    -8268391.259 8  -6429020.62745  23656646.291    23656657.1934
  22717829.761   -12833655.285 8  -9983558.90846  22717830.218    22717840.8284
  21346493.943   -18776218.703 9 -14609929.97647  21346498.282    21346506.8064
  21973907.929   -13780716.695 8 -10720540.44347  21973911.975    21973920.5644
 00  6 23  2 18 30.0000000  0  6 25 20 22 21 29 30
  20640438.855   -25240008.143 9 -19651625.51848  20640443.856    20640451.2494
  23354255.486    -7668638.935 8  -5958559.03146  23354260.495    23354269.9014
  23634075.708    -8386951.175 8  -6521404.73045  23634084.690    23634095.6264
  22738511.369   -12724994.834 8  -9898888.56546  22738508.064    22738518.6564
  21355872.844   -18726949.166 9 -14571538.16147  21355874.082    21355882.2834
  21984889.872   -13723001.176 8 -10675567.32847  21984894.660    21984903.9394
 00  6 23  2 19  0.0000000  0  6 25 20 22 21 29 30
  20638333.233   -25251087.045 9 -19660258.41848  20638335.625    20638342.9794
  23337943.230    -7754403.558 8  -6025388.53646  23337940.035    23337950.2884
  23611550.001    -8505393.600 8  -6613697.29345  23611544.793    23611557.2344
  22759232.894   -12616084.916 8  -9814023.84346  22759232.250    22759243.5724
  21365303.538   -18677386.471 9 -14532917.91147  21365305.353    21365313.6814
  21995968.172   -13664781.868 8 -10630201.68247  21995974.093    21995982.8594
 00  6 23  2 19 30.0000000  0  6 25 20 22 21 29 30
  20636278.479   -25261875.397 9 -19668664.91848  20636282.720    20636290.0254
  23321686.391    -7839816.186 8  -6091943.77346  23321687.241    23321695.6724
  23589029.994    -8623715.436 8  -6705895.87945  23589029.205    23589039.9934
  22779997.072   -12506928.836 8  -9728967.30445  22780004.778    22780015.3314
  21374789.122   -18627530.661 9 -14494069.26747  21374792.850    21374801.1084
  22007144.353   -13606060.574 8 -10584444.84847  22007148.170    22007157.3014
 00  6 23  2 20  0.0000000  0  6 25 20 22 21 29 30
  20634280.272   -25272374.335 9 -19676845.90348  20634284.663    20634292.0534
  23305493.701    -7924873.912 8  -6158222.49045  23305501.013    23305509.5314
  23566538.068    -8741913.814 8  -6797998.25445  23566537.351    23566548.6544
  22800825.495   -12397529.396 8  -9643721.10746  22800822.370    22800833.5604
  21384333.272   -18577381.506 9 -14454992.04247  21384336.100    21384344.4044
  22018416.712   -13546839.561 8 -10538298.65047  22018418.020    22018426.1604
 00  6 23  2 20 30.0000000  0  6 25 20 22 21 29 30
  20632337.356   -25282584.044 9 -19684801.51748  20632341.716    20632349.3834
  23289381.638    -8009574.321 8  -6224222.72646  23289382.524    23289391.9554
  23544071.556    -8859986.120 8  -6890002.42845  23544069.139    23544079.1814
  22821681.000   -12287888.761 8  -9558287.00846  22821685.655    22821698.7424
  21393931.246   -18526938.771 8 -14415686.04447  21393934.991    21393942.8314
  22029779.482   -13487120.909 8 -10491764.66447  22029781.478    22029791.1154
 00  6 23  2 21  0.0000000  0  6 25 20 22 21 29 30
  20630448.357   -25292505.385 9 -19692532.42348  20630453.670    20630461.4094
  23273333.389    -8093914.521 8  -6289942.32946  23273334.544    23273342.1554
  23521616.425    -8977930.121 7  -6981906.58945  23521623.782    23521636.3264
  22842596.342   -12178010.352 8  -9472667.63246  22842595.624    22842607.2904
  21403585.585   -18476202.694 8 -14376151.47047  21403589.646    21403597.5114
  22041237.435   -13426906.846 8 -10444844.66847  22041240.562    22041248.4314
 00  6 23  2 21 30.0000000  0  7 25 20 22 21 06 29 30
  20628618.153   -25302138.896 9 -19700039.05048  20628620.529    20628627.8564
  23257350.532    -8177892.156 8  -6355379.42546  23257352.790    23257361.9144
  23499195.354    -9095743.047 7  -7073708.63545  23499204.141    23499216.5674
  22863544.000   -12067896.959 8  -9386865.10746  22863550.954    22863561.2344
  24856410.498    -2208047.02817  -1710347.91555  24856415.727    24856428.5254
  21413296.577   -18425172.877 9 -14336388.01347  21413300.330    21413308.3124
  22052785.725   -13366199.630 8 -10397540.38847  22052792.475    22052800.4644
 00  6 23  2 22  0.0000000  0  7 25 20 22 21 06 29 30
  20626839.716   -25311485.527 9 -19707322.13748  20626841.689    20626849.3904
  23241442.267    -8261504.405 8  -6420531.75946  23241442.196    23241452.3564
  23476810.925    -9213421.868 8  -7165406.15845  23476811.225    23476822.5114
  22884544.382   -11957551.695 8  -9300881.90946  22884548.186    22884559.2384
  24844800.454    -2269085.680 8  -1757910.28545  24844802.286    24844814.1744
  21423063.990   -18373849.141 9 -14296395.53047  21423066.859    21423074.1364
  22064433.587   -13305001.104 8 -10349853.26347  22064438.760    22064446.4284
 00  6 23  2 22 30.0000000  0  7 25 20 22 21 06 29 30
  20625113.443   -25320545.139 9 -19714381.57448  20625117.694    20625125.6714
  23225596.986    -8344748.537 8  -6485397.29246  23225601.323    23225609.8964
  23454443.804    -9330963.693 8  -7256996.97645  23454443.619    23454454.1924
  22905583.483   -11846977.600 8  -9214720.45046  22905589.534    22905601.3894
  24833224.785    -2329920.493 7  -1805313.74645  24833224.505    24833236.3164
  21432884.707   -18322231.696 8 -14256174.16647  21432889.610    21432897.3214
  22076173.777   -13243313.821 8 -10301785.28247  22076177.941    22076184.5464
 00  6 23  2 23  0.0000000  0  7 25 20 22 21 06 29 30
  20623445.499   -25329318.641 9 -19721218.07148  20623448.314    20623455.9574
  23209826.886    -8427622.133 8  -6549974.08946  23209829.928    23209840.9234
  23432094.899    -9448366.010 8  -7348479.06745  23432101.816    23432112.9994
  22926675.370   -11736177.083 8  -9128382.52445  22926674.674    22926686.5034
  24821680.211    -2390548.665 7  -1852556.17545  24821686.748    24821699.7404
  21442767.246   -18270320.391 9 -14215723.81647  21442768.486    21442775.5314
  22088005.361   -13181139.742 8 -10253337.98947  22088008.315    22088017.3664
 00  6 23  2 23 30.0000000  0  7 25 20 22 21 06 29 30
  20621830.131   -25337806.810 9 -19727832.21948  20621833.057    20621840.5444
  23194129.009    -8510122.556 8  -6614260.09846  23194131.162    23194141.4254
  23409786.511    -9565626.465 8  -7439850.65745  23409788.961    23409799.3384
  22947795.498   -11625152.974 8  -9041870.37746  22947802.043    22947812.6104
  24810181.623    -2450967.451 7  -1899635.49545  24810189.945    24810203.2294
  21452698.507   -18218115.000 9 -14175044.31947  21452702.243    21452710.2844
  22099930.852   -13118481.330 8 -10204513.29247  22099931.685    22099940.5624
 00  6 23  2 24  0.0000000  0  7 25 20 22 21 06 29 30
  20620269.185   -25346010.330 9 -19734224.56948  20620271.938    20620279.4954
  23178500.472    -8592247.204 8  -6678253.30446  23178502.288    23178513.2284
  23387497.956    -9682742.316 8  -7531109.53745  23387502.328    23387513.3464
  22968968.789   -11513908.478 8  -8955186.46945  22968971.272    22968982.4004
  24798729.748    -2511174.220 7  -1946549.59645  24798732.098    24798745.2384
  21462690.355   -18165615.646 9 -14134135.77047  21462692.714    21462700.6944
  22111946.628   -13055340.548 8 -10155312.72547  22111947.123    22111955.9274
 00  6 23  2 24 30.0000000  0  7 25 20 22 21 06 29 30
  20618760.743   -25353929.966 9 -19740395.70448  20618764.998    20618772.5964
  23162945.584    -8673993.306 8  -6741951.54746  23162948.405    23162957.0324
  23365244.944    -9799710.511 8  -7622253.36646  23365243.892    23365254.9914
  22990176.882   -11402446.513 8  -8868333.11745  22990181.724    22990193.3944
  24787309.362    -2571166.199 7  -1993296.44745  24787316.828    24787329.6574
  21472737.230   -18112822.168 9 -14092998.03447  21472739.400    21472747.3914
  22124050.052   -12991719.701 8 -10105738.09046  22124053.331    22124062.8664
 00  6 23  2 25  0.0000000  0  7 25 20 22 21 06 29 30
  20617308.713   -25361566.275 9 -19746346.07348  20617312.050    20617319.3654
  23147461.052    -8755358.521 8  -6805353.00846  23147463.834    23147474.6484
  23343010.187    -9916528.259 8  -7713279.98446  23343013.232    23343025.1864
  23011426.259   -11290770.168 8  -8781312.69846  23011433.412    23011444.4354
  24775943.671    -2630940.552 7  -2039873.69945  24775940.748    24775950.4804
  21482839.984   -18059734.517 8 -14051631.07247  21482841.563    21482849.5054
  22136251.258   -12927621.071 8 -10055791.14447  22136251.803    22136260.2084
 00  6 23  2 25 30.0000000  0  7 25 20 22 21 06 29 30
  20615911.132   -25368919.244 9 -19752075.65048  20615912.821    20615919.9814
  23132051.429    -8836340.095 8  -6868455.51746  23132054.709    23132064.1844
  23320813.363   -10033193.047 8  -7804187.42545  23320813.626    23320823.1894
  23032723.475   -11178881.885 8  -8694127.12946  23032725.211    23032736.7074
  24764608.345    -2690494.641 7  -2086279.36645  24764608.342    24764620.4384
  21492993.845   -18006352.562 8 -14010034.77647  21492999.484    21493007.6304
  22148535.437   -12863047.123 8 -10005473.82847  22148538.940    22148548.6774
 00  6 23  2 26  0.0000000  0  7 25 20 22 21 06 29 30
  20614563.498   -25375990.049 9 -19757585.36948  20614567.035    20614574.4534
  23116713.795    -8916935.501 8  -6931257.09546  23116717.309    23116726.2914
  23298640.500   -10149702.532 8  -7894973.88346  23298642.267    23298652.3444
  23054057.637   -11066785.200 8  -8606779.20945  23054055.944    23054068.0654
  24753314.365    -2749825.626 7  -2132511.13045  24753317.804    24753327.7064
  21503212.203   -17952676.477 9 -13968209.28447  21503213.750    21503221.4234
  22160911.794   -12797999.757 8  -9954787.59846  22160917.648    22160925.7124
 00  6 23  2 26 30.0000000  0  7 25 20 22 21 06 29 30
  20613271.537   -25382779.552 9 -19762875.87648  20613275.277    20613282.7014
  23101451.197    -8997142.103 8  -6993755.72846  23101454.484    23101462.8904
  23276489.683   -10266053.804 8  -7985637.05345  23276500.246    23276511.2274
  23075421.581   -10954482.643 8  -8519270.89445  23075426.432    23075438.1474
  24742068.388    -2808930.996 7  -2178567.12045  24742070.997    24742082.6264
  21513478.995   -17898705.925 8 -13926154.32947  21513483.879    21513492.2094
  22173382.396   -12732481.500 8  -9903734.44746  22173385.330    22173394.1894
 00  6 23  2 27  0.0000000  0  7 25 20 22 21 06 29 30
  20612032.461   -25389287.823 9 -19767947.24748  20612036.695    20612044.2654
  23086264.513    -9076957.375 8  -7055949.41146  23086265.871    23086275.9794
  23254389.333   -10382243.740 8  -8076174.50646  23254390.426    23254402.2054
  23096835.322   -10841977.364 8  -8431604.57545  23096836.357    23096847.1744
  24730867.070    -2867807.999 8  -2224445.10945  24730866.881    24730879.5714
  21523809.143   -17844441.174 8 -13883870.13647  21523810.235    21523818.2544
  22185941.241   -12666494.489 8  -9852316.05546  22185942.047    22185951.0454
 00  6 23  2 27 30.0000000  0  7 25 20 22 21 06 29 30
  20610847.134   -25395515.535 9 -19772800.00048  20610851.649    20610859.1474
  23071150.505    -9156378.878 8  -7117836.24346  23071152.825    23071162.8784
  23232303.877   -10498269.655 8  -8166584.16345  23232311.254    23232322.2514
  23118281.489   -10729271.893 8  -8343782.27545  23118282.841    23118294.7374
  24719702.491    -2926453.551 7  -2270142.73445  24719707.037    24719719.4884
  21534188.388   -17789882.054 8 -13841356.56947  21534192.312    21534200.2164
  22198586.818   -12600041.015 8  -9800534.16446  22198587.918    22198596.0504
 00  6 23  2 28  0.0000000  0  7 25 20 22 21 06 29 30
  20609717.994   -25401463.938 9 -19777435.10048  20609719.506    20609727.2474
  23056112.418    -9235403.867 8  -7179414.09846  23056114.949    23056123.9954
  23210269.524   -10614129.136 8  -8256864.11246  23210264.442    23210274.8414
  23139764.920   -10616369.640 8  -8255806.65545  23139768.013    23139778.9604
  24708586.440    -2984865.164 7  -2315658.08945  24708589.597    24708603.9994
  21544627.175   -17735028.589 8 -13798613.63747  21544630.742    21544639.1154
  22211317.278   -12533123.738 8  -9748390.87746  22211322.111    22211330.5284
 00  6 23  2 28 30.0000000  0  7 25 20 22 21 06 29 30
  20608636.112   -25407133.778 9 -19781853.13648  20608640.513    20608648.3004
  23041147.951    -9314029.694 8  -7240680.92546  23041152.986    23041161.6804
  23188248.416   -10729819.701 8  -8347012.50146  23188248.705    23188259.3274
  23161293.192   -10503273.075 8  -8167679.64445  23161289.609    23161301.5554
  24697512.408    -3043040.018 7  -2360988.98745  24697520.448    24697533.6714
  21555122.575   -17679880.782 8 -13755641.34447  21555125.137    21555132.7584
  22224136.935   -12465744.827 8  -9695887.86246  22224143.675    22224152.8414
 00  6 23  2 29  0.0000000  0  7 25 20 22 21 06 29 30
  20607611.792   -25412524.878 9 -19786053.97148  20607614.663    20607622.3484
  23026260.724    -9392253.878 8  -7301634.79946  23026265.465    23026276.6004
  23166257.167   -10845338.565 8  -8437027.05946  23166265.517    23166276.3244
  23182841.593   -10389985.526 8  -8079403.80445  23182847.151    23182859.0964
  24686489.422    -3100975.561 7  -2406133.48445  24686497.734    24686505.9164
  21565672.260   -17624438.684 8 -13712439.73347  21565675.254    21565683.2574
  22237049.330   -12397906.567 8  -9643026.92946  22237053.450    22237061.5004
 00  6 23  2 29 30.0000000  0  7 25 20 22 21 06 29 30
  20606637.078   -25417638.568 9 -19790038.64348  20606641.422    20606649.2434
  23011453.751    -9470074.051 8  -7362273.80946  23011458.016    23011468.4304
  23144316.624   -10960682.508 8  -8526905.34846  23144316.290    23144326.7814
  23204439.353   -10276509.683 8  -7990981.28945  23204440.378    23204452.9234
  24675511.138    -3158669.081 7  -2451089.39445  24675517.293    24675526.4144
  21576278.073   -17568702.205 8 -13669008.73247  21576281.101    21576289.7124
  22250044.589   -12329611.491 8  -9589810.01546  22250048.856    22250057.7684
 00  6 23  2 30  0.0000000  0  7 25 20 22 21 06 29 30
  20605717.999   -25422475.613 9 -19793807.74748  20605721.176    20605728.8074
  22996724.304    -9547487.591 8  -7422595.98646  22996727.000    22996735.8614
  23122400.014   -11075848.870 8  -8616645.26046  23122401.452    23122412.0334
  23226060.304   -10162848.854 8  -7902414.61245  23226070.335    23226082.0554
  24664583.527    -3216118.012 8  -2495854.68145  24664583.929    24664596.6574
  21586940.675   -17512671.485 8 -13625348.45547  21586943.968    21586951.7534
  22263130.612   -12260861.701 8  -9536238.80046  22263131.853    22263140.5354
 00  6 23  2 30 30.0000000  0  7 25 20 22 21 06 29 30
  20604850.890   -25427036.033 9 -19797361.30648  20604853.229    20604860.8474
  22982071.466    -9624492.009 8  -7482599.35946  22982072.841    22982082.2124
  23100521.492   -11190835.311 8  -8706244.94146  23100520.035    23100530.2314
  23247731.961   -10049005.929 8  -7813706.04645  23247734.816    23247746.7004
  24653695.088    -3273319.459 7  -2540427.08445  24653698.993    24653711.5024
  21597659.283   -17456346.459 8 -13581458.84447  21597661.737    21597670.8454
  22276300.169   -12191659.794 8  -9482315.26946  22276300.504    22276308.4224
 00  6 23  2 31  0.0000000  0  7 25 20 22 21 06 29 30
  20604035.134   -25431320.701 9 -19800699.98948  20604037.615    20604045.4724
  22967496.787    -9701084.819 8  -7542281.99946  22967498.709    22967508.4964
  23078663.719   -11305639.342 8  -8795702.52346  23078674.100    23078684.2464
  23269427.436    -9934983.445 8  -7724857.54645  23269432.506    23269444.1914
  24642853.968    -3330270.835 7  -2584804.62345  24642860.610    24642874.2074
  21608432.328   -17399727.253 8 -13537340.02147  21608436.222    21608445.2144
  22289556.833   -12122008.023 8  -9428041.19246  22289555.342    22289563.2494
 00  6 23  2 31 30.0000000  0  7 25 20 22 21 06 29 30
  20603268.681   -25435330.202 9 -19803824.25448  20603274.542    20603282.3324
  22953002.596    -9777263.261 8  -7601641.78646  22953003.169    22953011.3404
  23056861.194   -11420257.976 8  -8885015.65246  23056862.452    23056872.9984
  23291154.234    -9820784.170 8  -7635871.28045  23291163.550    23291175.8114
  24632065.447    -3386969.396 7  -2628985.16145  24632071.659    24632084.2934
  21619263.691   -17342813.747 8 -13492991.86547  21619266.935    21619274.7264
  22302890.379   -12051908.907 8  -9373418.54646  22302894.027    22302902.8114
 00  6 23  2 32  0.0000000  0  7 25 20 22 21 06 29 30
  20602560.932   -25439065.056 9 -19806734.50848  20602563.919    20602571.8034
  22938578.808    -9853025.226 8  -7660677.01346  22938584.683    22938593.6354
  23035079.748   -11534688.143 8  -8974181.89446  23035087.455    23035097.4174
  23312923.953    -9706411.463 7  -7546749.89445  23312927.608    23312940.3684
  24621331.966    -3443412.201 7  -2672966.45345  24621331.112    24621342.9344
  21630149.896   -17285606.284 8 -13448414.65747  21630153.597    21630161.4274
  22316316.736   -11981364.844 8  -9318449.19046  22316319.538    22316327.3644
 00  6 23  2 32 30.0000000  0  7 25 20 22 21 06 29 30
  20601902.427   -25442526.190 9 -19809431.47748  20601905.457    20601913.0504
  22924252.620    -9928368.098 8  -7719385.71346  22924248.395    22924256.6004
  23013345.868   -11648927.259 8  -9063199.29046  23013348.368    23013358.3504
  23334724.099    -9591868.011 8  -7457495.51045  23334725.931    23334737.4394
  24610636.107    -3499596.933 8  -2716746.65245  24610640.502    24610651.5094
  21641091.353   -17228104.547 8 -13403608.14747  21641095.711    21641103.5814
  22329823.930   -11910378.094 8  -9263134.87246  22329826.814    22329835.0844
 00  6 23  2 33  0.0000000  0  7 25 20 22 21 06 29 30
  20601294.804   -25445714.484 9 -19811915.84348  20601298.701    20601306.3674
  22909988.318   -10003289.310 8  -7777765.83846  22909990.975    22909998.4814
  22991644.989   -11762973.000 8  -9152066.01146  22991645.309    22991656.2634
  23356543.094    -9477157.291 8  -7368110.71245  23356553.871    23356566.1344
  24599984.715    -3555520.800 8  -2760323.57245  24599997.353    24600009.3834
  21652087.874   -17170308.841 8 -13358572.57347  21652093.643    21652101.9224
  22343413.033   -11838951.407 8  -9207477.74946  22343419.280    22343427.4144
 00  6 23  2 33 30.0000000  0  7 25 20 22 21 06 29 30
  20600740.906   -25448630.431 9 -19814187.99248  20600743.880    20600751.5174
  22895814.081   -10077786.465 8  -7835815.54746  22895814.655    22895823.1754
  22969975.254   -11876822.729 8  -9240780.00146  22969981.604    22969990.6164
  23378416.544    -9362281.843 8  -7278597.53645  23378414.866    23378426.8004
  24589410.762    -3611181.197 7  -2803695.19145  24589405.414    24589418.3814
  21663144.079   -17112219.144 8 -13313307.91847  21663147.395    21663156.2804
  22357092.556   -11767087.081 8  -9151479.62346  22357094.375    22357103.2854
 00  6 23  2 34  0.0000000  0  7 25 20 22 21 06 29 30
  20600237.860   -25451274.579 9 -19816248.35048  20600240.876    20600248.0724
  22881719.455   -10151856.900 8  -7893532.73646  22881719.402    22881728.1884
  22948352.167   -11990473.407 8  -9329338.89646  22948354.072    22948364.3734
  23400296.032    -9247244.356 7  -7188958.12745  23400305.667    23400317.6964
  24578865.250    -3666575.438 7  -2846859.40745  24578864.044    24578876.6454
  21674255.448   -17053835.541 8 -13267814.24447  21674257.985    21674265.8594
  22370848.166   -11694787.199 8  -9095142.07946  22370853.040    22370860.4824
 00  6 23  2 34 30.0000000  0  7 25 20 22 21 06 29 30
  20599787.535   -25453647.343 9 -19818097.25048  20599789.192    20599796.4734
  22867702.616   -10225498.431 8  -7950915.74346  22867706.918    22867715.2554
  22926770.302   -12103922.084 8  -9417740.38846  22926765.148    22926775.3504
  23422228.938    -9132048.369 8  -7099195.20745  23422226.152    23422238.8964
  24568373.656    -3721700.782 7  -2889814.01845  24568374.187    24568388.4314
  21685419.866   -16995158.228 8 -13222091.71147  21685423.797    21685432.5264
  22384686.977   -11622054.543 8  -9038467.30546  22384692.655    22384702.1914
 00  6 23  2 35  0.0000000  0  7 25 20 22 21 06 29 30
  20599385.911   -25455749.807 9 -19819735.52348  20599389.139    20599396.5364
  22853774.640   -10298708.564 8  -8007962.58346  22853774.785    22853783.1614
  22905205.791   -12217166.239 8  -9505982.50446  22905214.919    22905225.6524
  23444177.845    -9016696.397 8  -7009310.74745  23444177.948    23444190.1254
  24557927.312    -3776554.661 7  -2932557.13745  24557935.493    24557947.7974
  21696642.219   -16936187.261 8 -13176140.34447  21696645.637    21696653.6954
  22398613.693   -11548891.547 8  -8981457.23946  22398615.717    22398624.3844
 00  6 23  2 35 30.0000000  0  7 25 20 22 21 06 29 30
  20599035.711   -25457582.370 9 -19821163.48748  20599040.350    20599047.9424
  22839923.918   -10371484.749 8  -8064671.27446  22839925.343    22839934.8104
  22883707.457   -12330203.563 8  -9594063.43046  22883704.436    22883715.6184
  23466154.445    -8901191.286 8  -6919306.93245  23466157.394    23466170.8744
  24547553.025    -3831134.496 8  -2975086.77945  24547549.970    24547561.2444
  21707916.882   -16876922.650 8 -13129960.17347  21707923.117    21707931.3664
  22412616.249   -11475300.854 8  -8924113.86746  22412619.273    22412628.2354
 00  6 23  2 36  0.0000000  0  7 25 20 22 21 06 29 30
  20598739.755   -25459146.098 9 -19822381.95348  20598742.649    20598750.1854
  22826153.906   -10443824.386 8  -8121039.77746  22826159.702    22826168.5344
  22862231.033   -12443031.344 8  -9681981.12146  22862235.285    22862244.9414
  23488163.990    -8785536.255 8  -6829186.34645  23488166.032    23488179.0164
  24537215.751    -3885437.601 7  -3017400.77745  24537216.454    24537228.4464
  21719252.875   -16817364.571 8 -13083551.31747  21719257.098    21719265.0514
  22426697.965   -11401284.846 8  -8866439.11246  22426704.613    22426713.2734
 00  6 23  2 36 30.0000000  0  7 25 20 22 21 06 29 30
  20598493.641   -25460441.391 9 -19823391.26948  20598496.094    20598503.7154
  22812473.926   -10515725.383 8  -8177066.50146  22812477.188    22812486.3074
  22840807.393   -12555646.544 8  -9769733.15046  22840804.266    22840814.2384
  23510194.222    -8669734.091 8  -6738951.07645  23510202.917    23510215.9324
  24526933.081    -3939461.400 7  -3059497.14845  24526935.581    24526945.8494
  21730642.960   -16757513.213 8 -13036913.92747  21730646.294    21730654.2794
  22440866.484   -11326846.043 8  -8808434.88746  22440869.909    22440878.5374
 00  6 23  2 37  0.0000000  0  7 25 20 22 21 06 29 30
  20598297.935   -25461468.853 9 -19824191.88048  20598300.806    20598308.3734
  22798874.533   -10587185.214 8  -8232749.43846  22798878.504    22798888.0584
  22819412.216   -12668046.265 8  -9857317.26646  22819415.188    22819424.9794
  23532264.246    -8553787.715 8  -6648603.44145  23532266.190    23532278.4824
  24516699.721    -3993203.240 7  -3101373.79445  24516707.592    24516718.9444
  21742086.301   -16697368.626 8 -12990048.06047  21742091.639    21742099.5014
  22455111.953   -11251986.791 8  -8750103.05046  22455115.213    22455123.8144
 00  6 23  2 37 30.0000000  0  7 25 20 22 21 06 29 30
  20598152.828   -25462228.988 9 -19824784.18848  20598156.274    20598163.7114
  22785361.783   -10658201.405 8  -8288086.68546  22785365.438    22785373.4034
  22798063.684   -12780228.012 8  -9944731.56346  22798067.627    22798077.9984
  23554345.902    -8437700.069 8  -6558145.70345  23554357.966    23554369.3914
  24506535.204    -4046660.557 7  -3143028.77645  24506535.219    24506547.4964
  21753587.060   -16636930.943 8 -12942953.81747  21753592.147    21753600.2874
  22469437.602   -11176709.547 8  -8691445.48446  22469439.866    22469448.9564
 00  6 23  2 38  0.0000000  0  7 25 20 22 21 06 29 30
  20598058.732   -25462722.263 9 -19825168.55648  20598062.349    20598069.9084
  22771934.562   -10728771.708 8  -8343076.44646  22771936.544    22771945.3944
  22776760.293   -12892189.544 8 -10031974.24646  22776761.622    22776772.1514
  23576468.204    -8321474.527 8  -6467580.53145  23576474.407    23576487.5214
  24496411.757    -4099830.714 7  -3184459.97645  24496418.415    24496430.1064
  21765148.896   -16576200.229 8 -12895631.23647  21765148.947    21765156.7854
  22483835.065   -11101016.913 8  -8632464.26046  22483843.577    22483853.0744
 00  6 23  2 38 30.0000000  0  7 25 20 22 21 06 29 30
  20598014.589   -25462949.578 9 -19825345.67448  20598018.952    20598026.2644
  22758590.337   -10798893.702 8  -8397716.89846  22758591.994    22758600.8884
  22755495.690   -13003927.992 8 -10119043.09346  22755499.334    22755509.3584
  23598610.046    -8205113.635 8  -6376909.90245  23598618.161    23598631.2354
  24486357.915    -4152710.943 8  -3225665.23445  24486356.196    24486367.3834
  21776756.956   -16515176.830 8 -12848080.60247  21776761.514    21776769.7484
  22498325.201   -11024911.429 8  -8573161.33346  22498326.261    22498335.1254
 00  6 23  2 39  0.0000000  0  7 25 20 22 21 06 29 30
  20598023.832   -25462911.474 9 -19825315.98048  20598026.322    20598033.6244
  22745333.403   -10868564.912 8  -8452006.07746  22745333.642    22745342.9504
  22734277.766   -13115440.305 8 -10205935.73346  22734278.929    22734289.1014
  23620786.450    -8088620.628 8  -6286136.32245  23620785.810    23620798.6044
  24476341.793    -4205298.997 7  -3266642.81345  24476347.948    24476360.9984
  21788428.363   -16453860.848 8 -12800301.97547  21788430.042    21788438.2044
  22512883.448   -10948395.756 8  -8513538.76846  22512886.940    22512895.5194
 00  6 23  2 39 30.0000000  0  7 25 20 22 21 06 29 30
  20598080.168   -25462609.023 9 -19825080.28748  20598083.802    20598091.2374
  22732157.038   -10937783.270 8  -8505942.36546  22732161.749    22732171.1064
  22713099.046   -13226723.713 8 -10292650.02846  22713102.360    22713113.1434
  23642977.070    -7971998.412 8  -6195262.06545  23642979.126    23642991.5844
  24466389.788    -4257592.217 7  -3307390.67245  24466396.173    24466409.2234
  21800147.941   -16392252.301 8 -12752295.38647  21800153.253    21800162.4114
  22527523.491   -10871472.415 8  -8453598.53846  22527524.557    22527533.7884
 00  6 23  2 40  0.0000000  0  7 25 20 22 21 06 29 30
  20598189.421   -25462042.559 9 -19824638.87548  20598191.481    20598198.9224
  22719074.285   -11006546.258 8  -8559523.84346  22719076.989    22719085.0564
  22691971.454   -13337775.796 8 -10379184.05146  22691969.810    22691979.9734
  23665190.595    -7855249.881 7  -6104289.39945  23665194.785    23665207.9014
  24456505.377    -4309587.979 7  -3347906.71745  24456502.012    24456513.7294
  21811932.244   -16330351.654 8 -12704061.16947  21811933.349    21811940.8924
  22542237.323   -10794143.830 8  -8393342.54346  22542239.648    22542248.8704
 00  6 23  2 40 30.0000000  0  7 25 20 22 21 06 29 30
  20598345.868   -25461212.745 9 -19823992.27248  20598349.650    20598356.5404
  22706076.692   -11074851.414 8  -8612748.60446  22706078.999    22706087.9424
  22670872.847   -13448594.310 8 -10465536.06346  22670881.025    22670891.8704
  23687433.325    -7738377.410 7  -6013220.11645  23687435.113    23687447.3414
  24446662.380    -4361283.644 8  -3388188.94445  24446665.276    24446675.2734
  21823764.807   -16268158.640 8 -12655599.14847  21823767.872    21823776.0474
  22557029.190   -10716412.424 8  -8332772.65046  22557031.136    22557040.7154
 00  6 23  2 41  0.0000000  0  7 25 20 22 21 06 29 30
  20598554.449   -25460120.256 9 -19823140.97548  20598557.268    20598564.5524
  22693167.360   -11142696.681 8  -8665614.94346  22693167.630    22693177.0934
  22649838.294   -13559176.248 8 -10551703.73446  22649838.104    22649848.7484
  23709703.076    -7621384.454 7  -5922056.99545  23709697.806    23709711.0734
  24436882.783    -4412676.651 8  -3428235.38745  24436885.637    24436896.4214
  21835654.533   -16205673.842 8 -12606909.75947  21835658.124    21835666.5854
  22571892.798   -10638280.846 8  -8271890.95746  22571898.654    22571908.8134
 00  6 23  2 41 30.0000000  0  7 25 20 22 21 06 29 30
  20598810.035   -25458765.872 9 -19822085.60248  20598814.835    20598822.4424
  22680344.122   -11210079.635 8  -8718121.07746  22680346.054    22680353.7404
  22628838.326   -13669518.570 8 -10637684.66946  22628840.956    22628851.6894
  23731983.279    -7504273.862 8  -5830802.15645  23731984.989    23731995.6614
  24427156.253    -4463764.677 7  -3468044.12045  24427163.826    24427175.6044
  21847601.720   -16142897.254 8 -12557992.99747  21847603.958    21847612.3444
  22586842.775   -10559751.891 8  -8210699.61046  22586843.475    22586852.4764
 00  6 23  2 42  0.0000000  0  7 25 20 22 21 06 29 30
  20599120.277   -25457150.197 9 -19820826.63148  20599122.398    20599129.7464
  22667610.933   -11276997.819 8  -8770265.05846  22667611.946    22667619.6634
  22607888.837   -13779618.586 8 -10723476.82546  22607890.684    22607899.6004
  23754287.101    -7387048.041 7  -5739457.48445  23754291.630    23754304.5074
  24417497.918    -4514545.195 8  -3507613.24345  24417500.988    24417512.2444
  21859604.117   -16079829.185 8 -12508849.12347  21859605.543    21859614.5004
  22601862.447   -10480827.977 8  -8149200.49946  22601862.013    22601870.9684
 00  6 23  2 42 30.0000000  0  7 25 20 22 21 06 29 30
  20599475.358   -25455273.883 9 -19819364.55748  20599479.564    20599486.8734
  22654962.914   -11343449.124 8  -8822045.27246  22654966.428    22654974.5744
  22586978.873   -13889473.999 8 -10809078.35446  22586985.166    22586995.2194
  23776610.648    -7269710.752 7  -5648025.99345  23776619.412    23776633.2014
  24407888.762    -4565015.628 7  -3546940.71445  24407895.540    24407907.5864
  21871658.887   -16016469.792 8 -12459478.21847  21871662.172    21871670.6354
  22616951.980   -10401511.602 8  -8087395.58446  22616955.696    22616964.1884
 00  6 23  2 43  0.0000000  0  7 25 20 22 21 06 29 30
  20599883.048   -25453137.638 9 -19817699.94248  20599886.291    20599893.4544
  22642410.020   -11409431.340 8  -8873459.92946  22642409.574    22642419.5924
  22566124.933   -13999082.441 8 -10894487.44246  22566126.944    22566136.7794
  23798965.627    -7152264.607 7  -5556509.68045  23798969.738    23798982.5874
  24398347.230    -4615173.419 7  -3586024.56445  24398351.313    24398363.4564
  21883772.102   -15952819.424 8 -12409880.60046  21883774.448    21883782.9304
  22632123.722   -10321805.216 8  -8025286.75146  22632123.005    22632131.6444
 00  6 23  2 43 30.0000000  0  7 25 20 22 21 06 29 30
  20600338.989   -25450741.964 9 -19815833.17948  20600342.074    20600349.2634
  22629938.575   -11474942.128 8  -8924507.25446  22629943.961    22629953.1894
  22545313.515   -14108440.961 8 -10979701.75246  22545317.143    22545326.9334
  23821341.496    -7034712.449 7  -5464910.78745  23821338.351    23821352.3554
  24388865.612    -4665015.901 7  -3624862.74145  24388865.813    24388876.1694
  21895940.057   -15888878.213 8 -12360056.33846  21895942.761    21895950.1774
  22647361.033   -10241711.466 8  -7962876.08946  22647364.125    22647373.2174
 00  6 23  2 44  0.0000000  0  7 25 20 22 21 06 29 30
  20600843.869   -25448087.337 9 -19813764.63548  20600847.384    20600854.4954
  22617566.911   -11539979.250 8  -8975185.51646  22617567.569    22617576.7834
  22524554.288   -14217546.563 8 -11064718.99746  22524554.142    22524564.7704
  23843720.705    -6917057.043 7  -5373231.39045  23843727.777    23843741.4904
  24379433.217    -4714540.656 7  -3663453.38745  24379440.862    24379452.6884
  21908162.919   -15824646.379 8 -12310005.62446  21908165.650    21908173.8724
  22662674.963   -10161233.207 8  -7900165.82946  22662678.755    22662688.0854
 00  6 23  2 44 30.0000000  0  7 25 20 22 21 06 29 30
  20601397.513   -25445174.715 9 -19811495.04948  20601401.037    20601408.8704
  22605278.888   -11604540.544 8  -9025493.03246  22605280.856    22605290.9024
  22503833.381   -14326396.549 8 -11149537.06046  22503840.134    22503850.2684
  23866128.908    -6799301.657 8  -5281474.09445  23866136.527    23866148.9244
  24370076.874    -4763745.387 8  -3701794.63945  24370079.354    24370089.8064
  21920440.216   -15760124.244 8 -12259728.69746  21920444.461    21920451.4364
  22678061.784   -10080372.889 8  -7837157.84146  22678066.619    22678074.7194
 00  6 23  2 45  0.0000000  0  7 25 20 22 21 06 29 30
  20601999.722   -25442004.591 9 -19809024.81348  20602004.046    20602012.0964
  22593083.106   -11668623.610 8  -9075427.87146  22593087.026    22593097.0684
  22483174.971   -14434988.652 8 -11234154.15046  22483176.501    22483185.9694
  23888563.228    -6681449.416 8  -5189641.30445  23888562.944    23888575.9854
  24360769.611    -4812627.504 7  -3739884.51945  24360775.412    24360786.8814
  21932772.779   -15695312.041 8 -12209225.74247  21932777.578    21932785.5344
  22693528.465    -9999132.999 8  -7773854.06046  22693526.465    22693534.0884
 00  6 23  2 45 30.0000000  0  7 25 20 22 21 06 29 30
  20602653.529   -25438577.848 9 -19806354.62248  20602656.781    20602664.1374
  22580983.616   -11732226.282 8  -9124988.39546  22580984.245    22580993.2954
  22462554.783   -14543320.431 8 -11318568.43646  22462560.455    22462570.9214
  23911005.421    -6563502.957 7  -5097735.13845  23911007.234    23911020.9454
  24351526.017    -4861184.441 7  -3777720.96245  24351535.385    24351547.2124
  21945166.866   -15630209.956 8 -12158496.91947  21945166.280    21945174.6454
  22709052.699    -9917516.367 8  -7710256.75646  22709057.433    22709065.5644
 00  6 23  2 46  0.0000000  0  7 25 20 22 21 06 29 30
  20603354.281   -25434895.116 9 -19803484.95148  20603357.194    20603365.0884
  22568972.945   -11795346.467 8  -9174172.95846  22568972.219    22568981.4954
  22441995.448   -14651389.041 8 -11402777.61146  22441995.932    22442005.9474
  23933450.483    -6445464.884 7  -5005757.54445  23933468.877    23933482.4764
  24342352.964    -4909413.911 7  -3815302.20945  24342356.362    24342368.5664
  21957605.078   -15564818.349 8 -12107542.49547  21957609.579    21957618.2804
  22724653.494    -9835525.547 8  -7646367.84446  22724659.167    22724667.3354
 00  6 23  2 46 30.0000000  0  7 25 20 22 21 06 29 30
  20604104.040   -25430956.826 9 -19800416.14748  20604106.584    20604114.6264
  22557049.313   -11857981.945 8  -9222979.82946  22557053.346    22557061.6114
  22421480.537   -14759191.472 8 -11486779.37946  22421481.895    22421492.1884
  23955945.886    -6327338.333 7  -4913711.05845  23955949.201    23955961.2774
  24333236.631    -4957313.423 7  -3852626.36345  24333242.380    24333255.1634
  21970108.027   -15499137.510 8 -12056362.70947  21970108.610    21970117.7004
  22740328.705    -9753163.078 8  -7582189.36246  22740332.234    22740341.6104
 00  6 23  2 47  0.0000000  0  7 25 20 22 21 06 29 30
  20604901.118   -25426763.568 9 -19797148.66548  20604904.727    20604912.3594
  22545227.251   -11920130.621 8  -9271407.37746  22545227.525    22545236.3614
  22401012.159   -14866725.116 8 -11570571.71546  22401019.318    22401028.8624
  23978440.390    -6209126.489 7  -4821598.08545  23978443.443    23978457.2354
  24324187.098    -5004880.628 7  -3889691.57945  24324190.179    24324201.8564
  21982659.848   -15433167.727 8 -12004957.76047  21982662.780    21982670.4614
  22756077.069    -9670431.555 8  -7517723.31046  22756075.623    22756083.8864
 00  6 23  2 47 30.0000000  0  7 25 20 22 21 06 29 30
  20605748.148   -25422316.358 9 -19793683.29848  20605751.164    20605758.6974
  22533491.068   -11981790.159 8  -9319453.76946  22533494.008    22533503.8484
  22380609.170   -14973987.713 8 -11654152.80046  22380607.419    22380617.4654
  24000950.608    -6090831.878 7  -4729420.66445  24000954.620    24000968.0344
  24315202.912    -5052113.012 8  -3926495.95045  24315203.015    24315214.0244
  21995267.042   -15366909.201 8 -11953327.80847  21995270.677    21995279.3414
  22771885.192    -9587333.505 8  -7452971.64446  22771888.668    22771896.5084
 00  6 23  2 48  0.0000000  0  7 25 20 22 21 06 29 30
  20606642.261   -25417615.245 9 -19790020.08648  20606645.875    20606653.2084
  22521852.195   -12042958.596 8  -9367117.47646  22521853.444    22521862.2564
  22360247.177   -15080976.849 8 -11737520.81246  22360248.482    22360258.0364
  24023476.070    -5972457.616 7  -4637181.16845  24023479.981    24023494.3004
  24306276.437    -5099008.123 8  -3963037.47745  24306279.382    24306290.6274
  22007933.605   -15300362.277 8 -11901473.14646  22007934.177    22007942.5934
  22787764.874    -9503871.864 8  -7387936.65346  22787770.648    22787779.2384
 00  6 23  2 48 30.0000000  0  7 25 20 22 21 06 29 30
  20607586.160   -25412661.156 9 -19786159.74548  20607588.581    20607595.9384
  22510307.298   -12103633.647 8  -9414396.71646  22510307.903    22510317.0094
  22339934.247   -15187689.568 8 -11820673.44846  22339941.354    22339950.6844
  24046019.671    -5854006.535 7  -4544881.82645  24046021.167    24046035.1164
  24297409.228    -5145563.661 7  -3999314.40745  24297419.346    24297431.8494
  22020644.269   -15233527.400 8 -11849394.09246  22020652.262    22020660.8374
  22803716.805    -9420048.877 8  -7322620.11446  22803722.174    22803730.4434
 00  6 23  2 49  0.0000000  0  7 25 20 22 21 06 29 30
  20608576.181   -25407454.977 9 -19782102.97248  20608579.182    20608586.4874
  22498853.469   -12163813.352 8  -9461289.98646  22498855.647    22498863.8724
  22319688.786   -15294122.967 8 -11903608.40846  22319687.768    22319697.7574
  24068582.616    -5735481.656 7  -4452524.98545  24068576.351    24068589.1844
  24288622.918    -5191777.158 7  -4035324.80045  24288624.870    24288636.0714
  22033422.004   -15166404.864 8 -11797090.89646  22033425.367    22033433.6994
  22819740.400    -9335867.204 8  -7257024.06146  22819741.331    22819749.8034
 00  6 23  2 49 30.0000000  0  7 25 20 22 21 06 29 30
  20609614.457   -25401997.063 9 -19777850.04148  20609617.567    20609625.2454
  22487496.091   -12223495.348 8  -9507795.42346  22487499.031    22487507.6704
  22299483.520   -15400274.481 8 -11986323.71746  22299487.077    22299497.6464
  24091141.026    -5616885.460 7  -4360112.59945  24091144.809    24091157.5664
  24279894.713    -5237646.130 8  -4071066.68945  24279897.352    24279907.2514
  22046253.009   -15098994.905 8 -11744563.73946  22046253.219    22046261.0624
  22835827.850    -9251329.904 8  -7191150.92746  22835827.497    22835837.0624
 00  6 23  2 50  0.0000000  0  7 25 20 22 21 06 29 30
  20610702.590   -25396287.953 9 -19773401.36948  20610703.949    20610711.6304
  22476232.223   -12282677.888 8  -9553911.64846  22476236.205    22476245.3824
  22279339.809   -15506141.960 8 -12068817.72546  22279341.875    22279351.7134
  24113716.743    -5498221.408 7  -4267647.32145  24113725.479    24113739.8374
  24271234.588    -5283168.347 8  -4106538.39945  24271233.255    24271244.5074
  22059131.069   -15031297.885 8 -11691812.89946  22059135.802    22059144.0514
  22851981.154    -9166439.382 8  -7125002.54346  22851982.379    22851991.0104
 00  6 23  2 50 30.0000000  0  7 25 20 22 21 06 29 30
  20611836.456   -25390328.539 9 -19768757.66148  20611837.877    20611845.2874
  22465066.036   -12341358.883 8  -9599637.03346  22465069.564    22465079.1604
  22259245.688   -15611722.853 8 -12151088.41446  22259250.608    22259260.1054
  24136324.550    -5379492.356 7  -4175131.44445  24136319.077    24136333.8044
  24262638.731    -5328341.302 8  -4141737.97545  24262637.928    24262648.8644
  22072070.758   -14963314.137 8 -11638838.62446  22072072.607    22072080.9554
  22868198.206    -9081198.331 8  -7058581.01246  22868203.725    22868212.1484
 00  6 23  2 51  0.0000000  0  7 25 20 22 21 06 29 30
  20613016.994   -25384119.148 9 -19763919.15948  20613019.408    20613026.9954
  22453996.142   -12399536.000 8  -9644969.80246  22453998.567    22454008.3954
  22239214.570   -15717014.185 8 -12233133.48546  22239213.884    22239223.5044
  24158923.708    -5260700.870 7  -4082566.91145  24158924.469    24158937.7314
  24254110.039    -5373162.849 8  -4176663.71845  24254108.923    24254119.2504
  22085059.530   -14895043.970 8 -11585641.17646  22085063.371    22085072.9564
  22884481.913    -8995609.322 8  -6991888.35346  22884490.004    22884498.9934
 00  6 23  2 51 30.0000000  0  7 25 20 22 21 06 29 30
  20614245.196   -25377660.623 9 -19758886.52848  20614248.678    20614256.0364
  22443021.844   -12457207.359 8  -9689908.47046  22443024.938    22443034.5054
  22219232.384   -15822013.232 8 -12314950.78046  22219233.124    22219242.9214
  24181543.789    -5141849.881 7  -3989956.01945  24181540.377    24181555.5484
  24245640.415    -5417630.522 7  -4211313.71445  24245646.485    24245657.8984
  22098104.646   -14826488.020 8 -11532221.03646  22098109.514    22098118.1834
  22900842.658    -8909675.013 8  -6924926.62946  22900843.742    22900851.5474
 00  6 23  2 52  0.0000000  0  7 25 20 22 21 06 29 30
  20615521.053   -25370953.633 9 -19753660.28448  20615524.493    20615532.2904
  22432143.974   -12514370.972 8  -9734451.43546  22432146.175    22432156.4244
  22199307.209   -15926717.489 8 -12396538.35446  22199308.411    22199318.1454
  24204176.135    -5022942.428 7  -3897301.12745  24204167.512    24204182.6464
  24237248.726    -5461742.166 7  -4245686.31145  24237252.585    24237261.9904
  22111205.457   -14757646.481 8 -11478578.34246  22111209.302    22111218.3694
  22917261.892    -8823398.064 8  -6857697.90346  22917261.093    22917269.7474
 00  6 23  2 52 30.0000000  0  7 25 20 22 21 06 29 30
  20616845.809   -25363998.804 9 -19748240.90448  20616848.122    20616855.7084
  22421361.802   -12571024.829 8  -9778597.21646  22421366.498    22421375.5714
  22179434.340   -16031124.772 8 -12477894.52946  22179440.246    22179450.2874
  24226804.309    -4903981.146 7  -3804604.30645  24226804.776    24226818.7804
  24228921.157    -5505495.277 7  -4279779.52945  24228924.779    24228936.1644
  22124360.625   -14688519.683 8 -11424713.36846  22124364.331    22124372.1484
  22933737.641    -8736781.052 8  -6790204.22846  22933743.203    22933752.0804
 00  6 23  2 53  0.0000000  0  7 25 20 22 21 06 29 30
  20618215.271   -25356796.822 9 -19742628.94848  20618218.878    20618226.1994
  22410682.152   -12627167.056 8  -9822344.31546  22410682.524    22410690.8224
  22159627.335   -16135232.497 8 -12559017.28846  22159628.901    22159638.3144
  24249456.767    -4784968.984 7  -3711867.79845  24249454.043    24249466.7734
  24220661.775    -5548887.759 7  -4313591.74745  24220668.080    24220679.0264
  22137569.489   -14619108.253 8 -11370626.59146  22137573.030    22137581.9844
  22950284.782    -8649826.773 8  -6722447.73146  22950290.711    22950298.9134
 00  6 23  2 53 30.0000000  0  6 25 20 22 06 29 30
  20619633.399   -25349348.265 9 -19736824.85748  20619636.116    20619643.4304
  22400095.297   -12682795.630 8  -9865691.17046  22400096.588    22400104.5384
  22139870.855   -16239037.605 8 -12639904.24146  22139875.829    22139884.9424
  24212477.735    -5591917.031 8  -4347120.98145  24212481.249    24212491.1484
  22150830.584   -14549412.307 8 -11316318.14646  22150836.278    22150843.9324
  22966900.561    -8562537.820 8  -6654430.44846  22966901.580    22966909.8104
 00  6 23  2 54  0.0000000  0  6 25 20 22 06 29 30
  20621097.394   -25341653.634 9 -19730829.02148  20621099.985    20621107.7914
  22389606.920   -12737908.632 8  -9908636.28146  22389609.532    22389617.2874
  22120174.685   -16342537.629 8 -12720553.49446  22120180.106    22120189.0864
  24204353.960    -5634580.934 7  -4380365.46745  24204360.689    24204372.0094
  22164151.086   -14479432.394 8 -11261788.41446  22164152.954    22164161.6484
  22983569.014    -8474916.996 8  -6586154.55146  22983574.969    22983584.0144
 00  6 23  2 54 30.0000000  0  6 25 20 22 06 29 30
  20622608.937   -25333713.479 9 -19724641.87248  20622611.191    20622618.9004
  22379215.809   -12792504.107 8  -9951178.12346  22379219.720    22379228.3534
  22100540.151   -16445729.992 8 -12800962.99046  22100542.766    22100551.6374
  24196303.911    -5676877.103 7  -4413323.44545  24196311.447    24196323.1234
  22177517.839   -14409168.927 8 -11207037.72846  22177522.791    22177531.7214
  23000312.545    -8386966.842 8  -6517622.05846  23000310.857    23000319.6034
 00  6 23  2 55  0.0000000  0  6 25 20 22 06 29 30
  20624166.570   -25325528.552 9 -19718263.99348  20624168.768    20624176.2974
  22368927.632   -12846579.943 8  -9993315.06746  22368928.845    22368938.5344
  22080960.989   -16548612.654 8 -12881131.20246  22080964.910    22080973.9154
  24188326.199    -5718803.464 7  -4445993.21045  24188334.457    24188344.1214
  22190942.361   -14338622.363 8 -11152066.46246  22190947.821    22190956.3654
  23017112.149    -8298689.861 8  -6448834.89046  23017109.988    23017118.9914
 00  6 23  2 55 30.0000000  0  6 25 20 22 06 29 30
  20625770.383   -25317099.330 9 -19711695.74748  20625773.088    20625780.2754
  22358734.040   -12900134.504 8 -10035045.82246  22358737.127    22358746.3354
  22061444.246   -16651182.861 8 -12961055.92146  22061446.820    22061455.4094
  24180421.995    -5760357.531 8  -4478372.90145  24180427.489    24180437.4134
  22204429.101   -14267793.061 8 -11096874.86146  22204427.045    22204434.5854
  23033968.799    -8210089.063 8  -6379795.39046  23033970.369    23033979.8584
 00  6 23  2 56  0.0000000  0  6 25 20 22 06 29 30
  20627420.085   -25308426.852 9 -19704937.96448  20627423.220    20627430.5374
  22348642.368   -12953165.679 8 -10076368.72746  22348646.767    22348654.8404
  22041986.198   -16753437.726 8 -13040734.93546  22041988.024    22041997.0554
  24172590.107    -5801537.119 8  -4510460.76245  24172590.866    24172600.9574
  22217956.516   -14196681.547 8 -11041463.34446  22217958.401    22217966.8684
  23050890.066    -8121166.864 8  -6310505.45546  23050891.465    23050901.1834
 00  6 23  2 56 30.0000000  0  6 25 20 22 06 29 30
  20629117.313   -25299511.462 9 -19697990.89748  20629119.981    20629127.0614
  22338652.700   -13005671.818 8 -10117282.55646  22338655.659    22338663.0194
  22022586.704   -16855374.637 8 -13120166.20146  22022590.448    22022598.9004
  24164818.890    -5842340.239 7  -4542255.27545  24164825.413    24164836.1734
  22231544.512   -14125288.205 8 -10985832.26946  22231543.937    22231552.4814
  23067873.178    -8031925.766 8  -6240967.01546  23067873.725    23067882.4794
 00  6 23  2 57  0.0000000  0  6 25 20 22 06 29 30
  20630859.788   -25290353.534 9 -19690854.84348  20630862.872    20630869.7024
  22328762.516   -13057651.002 8 -10157785.76546  22328763.863    22328771.9894
  22003251.184   -16956991.375 8 -13199347.98046  22003252.694    22003262.1604
  24157131.082    -5882764.696 8  -4573754.74745  24157133.387    24157143.8604
  22245180.031   -14053613.641 8 -10929982.02846  22245183.114    22245192.6174
  23084911.999    -7942368.964 8  -6171182.57346  23084915.393    23084925.5304
 00  6 23  2 57 30.0000000  0  6 25 20 22 06 29 30
  20632647.591   -25280954.033 9 -19683530.55248  20632651.477    20632658.3754
  22318968.052   -13109101.443 8 -10197876.95646  22318972.443    22318980.5514
  21983978.697   -17058285.694 8 -13278278.53146  21983977.517    21983986.0554
  24149508.877    -5922808.192 8  -4604957.41545  24149513.258    24149523.0784
  22258870.001   -13981658.149 8 -10873912.92046  22258875.779    22258884.6824
  23102005.144    -7852498.922 8  -6101154.06546  23102017.292    23102027.5054
 00  6 23  2 58  0.0000000  0  6 25 20 22 06 29 30
  20634482.302   -25271313.419 9 -19676018.37848  20634486.000    20634492.9574
  22309280.906   -13160021.141 8 -10237554.58946  22309282.873    22309291.1984
  21964759.837   -17159254.867 8 -13356955.72846  21964763.224    21964772.0114
  24141961.733    -5962468.599 8  -4635861.53245  24141965.860    24141976.2374
  22272616.464   -13909422.396 8 -10817625.39046  22272622.294    22272630.8374
  23119177.349    -7762318.296 8  -6030883.50946  23119178.668    23119187.6604
 00  6 23  2 58 30.0000000  0  6 25 20 22 06 29 30
  20636363.703   -25261432.426 9 -19668318.89648  20636366.191    20636373.1714
  22299694.205   -13210408.444 8 -10276817.40146  22299696.341    22299702.9264
  21945610.303   -17259896.038 8 -13435377.31646  21945611.393    21945621.0594
  24134491.294    -6001743.622 8  -4666465.33845  24134492.700    24134503.9944
  22286416.656   -13836906.779 8 -10761119.78046  22286421.942    22286429.7714
  23136397.919    -7671829.406 8  -5960372.75946  23136397.415    23136406.8214
 00  6 23  2 59  0.0000000  0  6 25 20 22 06 29 30
  20638289.821   -25251311.427 9 -19660432.40548  20638292.427    20638299.2754
  22290207.577   -13260261.522 8 -10315663.92146  22290208.410    22290216.1954
  21926519.161   -17360206.661 8 -13513541.36446  21926523.437    21926532.0724
  24127081.681    -6040631.173 7  -4696767.22845  24127091.761    24127103.7144
  22300272.884   -13764111.682 8 -10704396.41846  22300273.263    22300283.0684
  23153673.382    -7581035.087 8  -5889624.01546  23153676.484    23153684.2034
 00  6 23  2 59 30.0000000  0  6 25 20 22 06 29 30
  20640259.968   -25240951.223 9 -19652359.52248  20640263.789    20640270.8194
  22280819.239   -13309578.589 8 -10354092.76846  22280822.571    22280831.0494
  21907498.442   -17460184.584 8 -13591446.17047  21907497.945    21907506.9174
  24119761.955    -6079129.200 8  -4726765.57645  24119766.476    24119776.4904
  22314175.493   -13691037.693 8 -10647455.73746  22314179.246    22314189.3644
  23171011.333    -7489938.118 8  -5818639.40346  23171011.349    23171020.8584
 00  6 23  3  0  0.0000000  0  6 25 20 22 06 29 30
  20642276.684   -25230352.624 9 -19644100.87448  20642280.548    20642287.7244
  22271536.156   -13358357.918 8 -10392102.60446  22271540.537    22271548.9414
  21888536.022   -17559827.528 8 -13669089.94947  21888536.459    21888545.6814
  24112517.177    -6117235.597 8  -4756458.80045  24112514.652    24112524.9674
  22328137.782   -13617685.486 8 -10590298.27346  22328138.429    22328146.3684
  23188394.428    -7398541.302 8  -5747421.19646  23188402.789    23188412.4544
 00  6 23  3  0 30.0000000  0  6 25 20 22 06 29 30
  20644340.176   -25219515.587 9 -19635656.43548  20644342.845    20644349.7994
  22262360.358   -13406597.901 8 -10429692.16446  22262360.877    22262369.2834
  21869633.714   -17659132.854 8 -13746470.64447  21869639.280    21869648.6024
  24105341.982    -6154948.270 8  -4785845.20445  24105338.223    24105348.4334
  22342140.942   -13544055.455 8 -10532924.30146  22342149.062    22342158.1644
  23205848.674    -7306847.287 8  -5675971.39346  23205851.912    23205860.6934
 00  6 23  3  1  0.0000000  0  6 25 20 22 06 29 30
  20646447.297   -25208441.203 9 -19627027.03848  20646450.200    20646457.0684
  22253281.646   -13454296.679 8 -10466860.02446  22253284.471    22253292.5644
  21850804.207   -17758097.668 8 -13823586.02347  21850807.175    21850816.1114
  24098235.513    -6192264.873 8  -4814922.99045  24098237.200    24098247.9424
  22356208.757   -13470148.038 8 -10475334.20146  22356213.393    22356222.3044
  23223354.855    -7214858.688 8  -5604292.00346  23223356.979    23223365.9534
 00  6 23  3  1 30.0000000  0  6 25 20 22 06 29 30
  20648601.195   -25197129.903 9 -19618213.04148  20648602.735    20648609.7244
  22244311.270   -13501452.692 8 -10503604.94446  22244310.838    22244319.0584
  21832035.954   -17856719.650 8 -13900434.27047  21832039.893    21832048.9654
  24091208.726    -6229183.539 8  -4843690.73145  24091213.035    24091221.4324
  22370327.818   -13395963.885 8 -10417528.43946  22370330.462    22370339.2244
  23240918.336    -7122578.059 8  -5532385.09246  23240917.169    23240927.0184
 00  6 23  3  2  0.0000000  0  6 25 20 22 06 29 30
  20650796.493   -25185582.006 9 -19609214.67448  20650799.743    20650807.2924
  22235438.963   -13548064.270 8 -10539925.63046  22235440.522    22235449.4304
  21813337.723   -17954996.663 8 -13977013.72447  21813338.621    21813347.5854
  24084253.347    -6265702.162 8  -4872146.77045  24084262.742    24084272.8494
  22384499.023   -13321503.544 8 -10359507.45646  22384500.224    22384508.6774
  23258525.801    -7030008.260 8  -5460252.85446  23258533.608    23258542.3824
 00  6 23  3  2 30.0000000  0  6 25 20 22 06 29 30
  20653040.002   -25173798.275 9 -19600032.54648  20653042.500    20653049.6014
  22226671.464   -13594129.743 8 -10575820.75346  22226674.170    22226683.5124
  21794697.759   -18052926.446 8 -14053322.61847  21794703.125    21794712.0984
  24077382.527    -6301818.679 8  -4900289.47445  24077390.192    24077400.2224
  22398718.579   -13246767.657 8 -10301271.77146  22398721.372    22398731.3154
  23276196.701    -6937152.010 8  -5387897.37846  23276202.557    23276211.9214
 00  6 23  3  3  0.0000000  0  7 25 20 22 06 29 16 30
  20655325.965   -25161779.536 9 -19590667.29348  20655329.623    20655336.6984
  22218010.565   -13639647.455 8 -10611289.06847  22218013.351    22218021.6144
  21776130.796   -18150506.170 8 -14129358.73847  21776133.790    21776143.3734
  24070590.213    -6337531.179 8  -4928117.31045  24070593.371    24070604.7734
  22412985.540   -13171756.720 8 -10242821.79546  22412995.468    22413005.5904
  24651998.794    -1649555.59418  -1264316.95555  24652001.126    24652011.7564
  23293928.061    -6844011.719 8  -5315320.58746  23293926.242    23293936.8844
 00  6 23  3  3 30.0000000  0  7 25 20 22 06 29 16 30
  20657658.167   -25149526.299 9 -19581119.31248  20657661.361    20657668.3044
  22209451.667   -13684615.765 8 -10646329.27246  22209455.738    22209463.8114
  21757630.170   -18247733.178 8 -14205120.00747  21757631.663    21757641.7914
  24063874.656    -6372837.568 8  -4955628.69745  24063875.509    24063885.2084
  22427324.712   -13096471.170 8 -10184157.80846  22427322.905    22427330.8234
  24634620.856    -1740886.668 7  -1335484.01945  24634619.370    24634631.8454
  23311703.686    -6750590.214 8  -5242524.69646  23311705.101    23311714.6444
 00  6 23  3  4  0.0000000  0  7 25 20 22 06 29 16 30
  20660034.205   -25137039.039 9 -19571388.96848  20660037.262    20660044.5194
  22201001.837   -13729033.166 8 -10680940.17046  22201003.181    22201011.6204
  21739194.301   -18344605.104 8 -14280604.59447  21739198.105    21739207.3504
  24057231.117    -6407735.815 8  -4982822.02145  24057233.938    24057244.9524
  22441701.043   -13020911.834 8 -10125280.47846  22441701.638    22441710.2944
  24617293.815    -1831917.545 7  -1406417.21445  24617296.479    24617310.9134
  23329533.103    -6656889.912 8  -5169511.53846  23329535.484    23329545.4724
 00  6 23  3  4 30.0000000  0  7 25 20 22 06 29 16 30
  20662454.292   -25124318.258 9 -19561476.67248  20662458.363    20662465.0814
  22192653.549   -13772898.002 8 -10715120.53047  22192656.375    22192664.9154
  21720834.589   -18441119.930 8 -14355810.94447  21720832.063    21720840.6574
  24050665.682    -6442223.860 8  -5009695.74045  24050671.786    24050681.8544
  22456127.039   -12945079.264 8 -10066190.26546  22456131.050    22456140.4594
  24600030.309    -1922645.258 7  -1477114.08545  24600032.617    24600044.5064
  23347415.259    -6562913.731 8  -5096283.39246  23347418.505    23347427.7574
 00  6 23  3  5  0.0000000  0  7 25 20 22 06 29 16 30
  20664920.251   -25111364.594 9 -19551382.90748  20664922.959    20664930.2384
  22184409.944   -13816208.946 8 -10748869.26447  22184413.571    22184422.6414
  21702535.437   -18537275.438 9 -14430737.32047  21702534.707    21702542.7624
  24044177.729    -6476299.710 8  -5036248.30545  24044187.144    24044197.3964
  22470610.683   -12868973.932 8 -10006887.50546  22470613.910    22470623.3964
  24582833.310    -2013067.591 7  -1547573.13145  24582824.320    24582836.5444
  23365353.381    -6468664.390 8  -5022842.39546  23365354.010    23365363.2744
 00  6 23  3  5 30.0000000  0  7 25 20 22 06 29 16 30
  20667427.604   -25098178.712 9 -19541108.19248  20667432.345    20667439.5134
  22176276.823   -13858964.282 8 -10782185.05947  22176278.154    22176286.7354
  21684302.916   -18633068.696 8 -14505381.42447  21684305.416    21684314.5174
  24037777.414    -6509961.419 8  -5062478.13345  24037781.405    24037791.7914
  22485142.640   -12792596.555 8  -9947372.77746  22485147.841    22485156.9974
  24565671.852    -2103181.760 7  -1617792.05045  24565677.612    24565688.2474
  23383342.984    -6374144.462 8  -4949190.55546  23383340.983    23383349.6534
 00  6 23  3  6  0.0000000  0  7 25 20 22 06 29 16 30
  20669981.710   -25084761.224 9 -19530653.00348  20669985.760    20669992.7904
  22168245.474   -13901162.478 8 -10815066.71947  22168247.773    22168255.5794
  21666143.715   -18728497.188 9 -14579741.28347  21666146.425    21666155.2124
  24031450.501    -6543207.032 8  -5088383.72845  24031455.263    24031464.9284
  22499726.758   -12715947.783 8  -9887646.57646  22499733.656    22499742.3794
  24548585.469    -2192984.724 7  -1687768.38345  24548587.061    24548599.8744
  23401377.076    -6279356.520 8  -4875329.86746  23401377.795    23401387.3414
 00  6 23  3  6 30.0000000  0  7 25 20 22 06 29 16 30
  20672579.909   -25071112.644 9 -19520017.74448  20672583.292    20672590.0314
  22160321.370   -13942802.057 8 -10847513.08247  22160323.651    22160331.9234
  21648054.763   -18823558.713 8 -14653815.18647  21648056.555    21648065.2894
  24025201.230    -6576034.789 8  -5113963.70445  24025207.231    24025217.9264
  22514371.630   -12639028.011 8  -9827709.21346  22514371.554    22514380.6104
  24531557.497    -2282474.277 7  -1757500.58545  24531558.971    24531572.7434
  23419459.631    -6184303.390 8  -4801262.52746  23419465.986    23419475.3004
 00  6 23  3  7  0.0000000  0  7 25 20 22 06 29 16 30
  20675220.952   -25057233.166 9 -19509202.56048  20675224.324    20675231.3684
  22152507.017   -13983881.632 8 -10879523.10047  22152508.060    22152516.0354
  21630036.858   -18918251.185 9 -14727601.51247  21630037.560    21630046.5144
  24019035.014    -6608442.677 8  -5139216.55445  24019040.552    24019049.8824
  22529057.464   -12561838.146 8  -9767561.38446  22529060.565    22529069.7204
  24514578.748    -2371647.503 7  -1826986.32945  24514590.403    24514603.3624
  23437602.040    -6088987.610 8  -4726990.56146  23437604.882    23437613.9784
 00  6 23  3  7 30.0000000  0  7 25 20 22 06 29 16 30
  20677906.217   -25043123.403 9 -19498207.93648  20677909.582    20677916.4074
  22144794.272   -14024399.753 8 -10911095.60647  22144796.227    22144805.7244
  21612085.722   -19012572.297 9 -14801098.47947  21612088.679    21612097.2474
  24012950.382    -6640428.736 8  -5164140.71745  24012954.427    24012963.5374
  22543791.789   -12484378.823 8  -9707203.57546  22543800.101    22543809.6034
  24497682.632    -2460501.863 7  -1896223.53645  24497681.444    24497694.2664
  23455787.613    -5993411.950 8  -4652516.08946  23455791.344    23455801.0734
 00  6 23  3  8  0.0000000  0  7 25 20 22 06 29 16 30
  20680634.192   -25028784.087 9 -19487034.43548  20680638.129    20680645.1324
  22137189.025   -14064355.034 8 -10942229.53347  22137192.933    22137202.3634
  21594206.174   -19106519.312 8 -14874303.95947  21594210.814    21594219.5314
  24006941.264    -6671990.996 8  -5188734.63845  24006947.074    24006958.7564
  22558592.972   -12406650.522 8  -9646636.18446  22558591.917    22558601.1154
  24480835.408    -2549034.578 7  -1965210.09845  24480835.639    24480846.3824
  23474027.122    -5897578.850 8  -4577840.98846  23474027.610    23474037.6354
 00  6 23  3  8 30.0000000  0  7 25 20 22 06 29 16 30
  20683407.794   -25014216.138 9 -19475682.78548  20683410.364    20683417.3114
  22129696.112   -14103746.072 8 -10972923.80747  22129696.930    22129706.1394
  21576404.443   -19200089.739 8 -14947215.97647  21576404.852    21576413.7674
  24001013.383    -6703127.870 8  -5212997.05845  24001021.567    24001032.4484
  22573429.357   -12328654.134 8  -9585859.89946  22573432.756    22573443.4054
  24464052.978    -2637243.192 7  -2033944.09045  24464050.155    24464061.9304
  23492304.589    -5801491.281 8  -4502967.57745  23492312.906    23492322.3984
 00  6 23  3  9  0.0000000  0  8 25 20 22 06 29 16 30 01
  20686223.612   -24999419.657 9 -19464153.04448  20686225.880    20686232.9624
  22122306.565   -14142571.412 8 -11003177.27547  22122308.764    22122318.0744
  21558670.833   -19293281.400 9 -15019832.84347  21558670.937    21558680.9434
  23995179.622    -6733837.369 8  -5236926.51245  23995178.116    23995189.0264
  22588319.305   -12250390.224 8  -9524875.15846  22588326.907    22588336.7304
  24447319.023    -2725124.677 7  -2102423.17245  24447324.156    24447337.5724
  23510644.893    -5705151.844 8  -4427897.93046  23510646.270    23510655.9034
  24770781.662    -1486731.92017  -1138206.05155  24770779.593    24770790.5314
 00  6 23  3  9 30.0000000  0  8 25 20 22 06 29 16 30 01
  20689080.575   -24984395.117 9 -19452445.60948  20689084.910    20689092.1204
  22115025.948   -14180829.900 8 -11032989.05447  22115028.154    22115037.4994
  21541004.895   -19386092.456 9 -15092153.14047  21541009.892    21541019.0044
  23989417.092    -6764117.656 8  -5260521.51645  23989415.688    23989425.9574
  22603271.252   -12171859.437 8  -9463682.45546  22603271.911    22603280.8614
  24430665.766    -2812676.802 7  -2170645.58045  24430664.744    24430675.9814
  23529029.044    -5608563.048 8  -4352634.00746  23529026.608    23529036.7154
  24752769.198    -1581364.343 7  -1211945.48845  24752771.367    24752781.8724
 00  6 23  3 10  0.0000000  0  8 25 20 22 06 29 16 30 01
  20691983.392   -24969143.379 9 -19440561.13248  20691987.094    20691994.1334
  22107854.624   -14218520.068 8 -11062357.97447  22107856.042    22107865.1804
  21523417.243   -19478520.398 9 -15164174.90247  21523421.188    21523430.1114
  23983734.365    -6793966.950 7  -5283780.70645  23983735.152    23983745.9374
  22618263.372   -12093062.498 8  -9402282.35646  22618265.814    22618275.8424
  24414076.361    -2899896.928 7  -2238609.27745  24414066.680    24414080.8584
  23547443.972    -5511727.408 8  -4277177.71346  23547453.308    23547463.4924
  24734756.254    -1676020.201 7  -1285703.20445  24734757.897    24734770.3404
 00  6 23  3 10 30.0000000  0  8 25 20 22 06 29 16 30 01
  20694929.953   -24953664.808 9 -19428499.90248  20694932.463    20694939.7034
  22100789.057   -14255640.436 8 -11091282.89147  22100792.212    22100801.4694
  21505904.864   -19570562.577 9 -15235896.08047  21505906.532    21505914.9884
  23978139.503    -6823383.259 8  -5306702.47345  23978138.606    23978147.8194
  22633304.209   -12014000.053 8  -9340675.39746  22633310.922    22633320.8304
  24397530.054    -2986782.076 7  -2306311.90745  24397533.227    24397545.4254
  23565923.593    -5414647.758 8  -4201531.24346  23565926.723    23565936.7184
  24716741.441    -1770698.066 7  -1359478.03245  24716742.604    24716753.2194
 00  6 23  3 11  0.0000000  0  8 25 20 22 06 29 16 30 01
  20697917.571   -24937959.841 9 -19416262.26348  20697920.985    20697928.2674
  22093835.352   -14292189.963 8 -11119762.99847  22093837.301    22093845.7114
  21488463.112   -19662216.654 9 -15307314.82147  21488465.018    21488474.1504
  23972618.652    -6852364.759 8  -5329285.40745  23972623.253    23972633.6864
  22648401.408   -11934672.942 8  -9278862.19746  22648406.164    22648416.5144
  24381059.655    -3073329.734 7  -2373751.50445  24381063.691    24381074.9944
  23584440.396    -5317326.776 8  -4125696.75646  23584445.971    23584456.6954
  24698709.996    -1865397.093 7  -1433269.36145  24698721.240    24698732.5754
 00  6 23  3 11 30.0000000  0  8 25 20 22 06 29 16 30 01
  20700948.021   -24922029.292 9 -19403848.84348  20700952.290    20700959.7624
  22086987.362   -14328167.186 8 -11147797.16747  22086991.038    22086999.2604
  21471095.793   -19753480.492 9 -15378429.47947  21471097.371    21471107.0484
  23967189.967    -6880909.942 8  -5351528.32345  23967191.527    23967201.5854
  22663547.974   -11855081.852 8  -9216843.25946  22663551.963    22663561.9564
  24364655.408    -3159537.573 7  -2440926.26645  24364658.992    24364670.0844
  23603010.428    -5219766.946 8  -4049676.16946  23603011.128    23603021.5594
  24680688.593    -1960116.094 7  -1507076.22445  24680695.595    24680708.3374
 00  6 23  3 12  0.0000000  0  8 25 20 22 06 29 16 30 01
  20704023.193   -24905873.613 9 -19391259.99648  20704026.410    20704034.0634
  22080253.001   -14363571.034 8 -11175384.54347  22080253.996    22080262.1774
  21453800.141   -19844352.238 8 -15449238.60947  21453805.224    21453814.2214
  23961840.527    -6909017.170 8  -5373430.03545  23961842.547    23961852.9664
  22678746.620   -11775227.439 8  -9154619.15046  22678748.066    22678758.0944
  24348313.974    -3245402.691 8  -2507834.01045  24348320.832    24348332.0814
  23621617.593    -5121971.126 8  -3973471.68046  23621621.682    23621631.0874
  24662672.640    -2054853.832 7  -1580897.69945  24662667.895    24662679.8034
 00  6 23  3 12 30.0000000  0  8 25 20 22 06 29 16 30 01
  20707139.187   -24889493.341 9 -19378496.14248  20707143.406    20707151.0724
  22073625.527   -14398400.326 8 -11202524.21947  22073626.139    22073633.5764
  21436586.201   -19934829.494 9 -15519740.34047  21436588.518    21436597.0214
  23956573.688    -6936684.485 8  -5394988.95045  23956577.716    23956587.7684
  22693988.950   -11695110.508 8  -9092190.49946  22693993.656    22694003.8434
  24332041.533    -3330922.394 7  -2574472.56245  24332046.616    24332057.7934
  23640277.415    -5023942.013 8  -3897085.39345  23640275.485    23640285.3434
  24644638.657    -2149608.968 8  -1654732.72545  24644637.550    24644649.4824
 00  6 23  3 13  0.0000000  0  8 25 20 22 06 29 16 30 01
  20710300.060   -24872889.089 9 -19365557.75648  20710302.910    20710310.6504
  22067103.524   -14432653.611 8 -11229215.05647  22067107.572    22067115.8404
  21419445.470   -20024909.523 9 -15589932.54947  21419446.965    21419455.8054
  23951393.274    -6963910.149 8  -5416203.71345  23951396.889    23951406.2254
  22709284.981   -11614731.599 8  -9029557.68446  22709289.721    22709299.8174
  24315834.175    -3416094.604 7  -2640840.32245  24315837.589    24315847.8804
  23658969.429    -4925681.955 8  -3820519.14345  23658973.736    23658983.8084
  24626604.598    -2244380.512 7  -1728580.53345  24626602.547    24626613.5634
 00  6 23  3 13 30.0000000  0  8 25 20 22 06 29 16 30 01
  20713502.315   -24856061.134 9 -19352445.05648  20713505.077    20713512.9754
  22060696.628   -14466329.816 8 -11255456.21947  22060699.309    22060708.6554
  21402381.524   -20114590.102 9 -15659813.48247  21402380.816    21402390.4004
  23946295.979    -6990692.419 8  -5437072.98945  23946300.890    23946310.5374
  22724631.830   -11534091.779 8  -8966721.58146  22724634.367    22724644.8974
  24299690.721    -3500916.453 8  -2706935.10945  24299696.935    24299708.2684
  23677702.022    -4827193.594 8  -3743775.01545  23677715.324    23677725.5184
  24608567.244    -2339167.083 8  -1802440.02845  24608565.423    24608577.7724
 00  6 23  3 14  0.0000000  0  8 25 20 22 06 29 16 30 01
  20716746.019   -24839009.880 9 -19339158.35948  20716749.981    20716757.6754
  22054395.765   -14499427.868 8 -11281246.86547  22054401.141    22054410.5594
  21385392.134   -20203869.272 9 -15729381.62547  21385391.816    21385401.1474
  23941282.413    -7017029.571 8  -5457595.43345  23941288.626    23941297.9504
  22740027.112   -11453191.641 8  -8903682.64146  22740030.374    22740039.8254
  24283619.271    -3585385.107 7  -2772754.68345  24283623.103    24283634.6474
  23696492.442    -4728479.624 8  -3666855.08945  23696500.369    23696510.4144
  24590522.205    -2433967.304 8  -1876310.17845  24590525.959    24590537.6484
 00  6 23  3 14 30.0000000  0  8 25 20 22 06 29 16 30 01
  20720034.018   -24821735.960 9 -19325698.15748  20720037.263    20720044.7624
  22048210.792   -14531946.693 8 -11306586.16047  22048213.496    22048221.8834
  21368476.923   -20292745.187 9 -15798635.53047  21368479.061    21368488.2624
  23936363.587    -7042919.885 8  -5477769.64045  23936362.491    23936372.0044
  22755469.765   -11372032.008 8  -8840441.47546  22755474.246    22755483.4484
  24267611.046    -3669498.198 8  -2838297.11245  24267616.214    24267627.3974
  23715328.367    -4629542.707 8  -3589761.40445  23715327.341    23715337.0734
  24572481.370    -2528780.134 7  -1950190.16545  24572482.094    24572494.0344
 00  6 23  3 15  0.0000000  0  8 25 20 22 06 29 16 30 01
  20723362.705   -24804240.289 9 -19312065.15948  20723366.666    20723374.3644
  22042133.936   -14563885.069 8 -11331473.14347  22042135.663    22042144.1204
  21351641.759   -20381215.334 9 -15867573.25447  21351643.638    21351652.7364
  23931515.827    -7068361.770 8  -5497594.43045  23931520.981    23931530.2454
  22770965.670   -11290613.518 8  -8776998.58946  22770968.573    22770977.0484
  24251679.355    -3753252.981 8  -2903560.35745  24251678.855    24251689.5574
  23734195.954    -4530385.366 8  -3512495.97345  23734195.471    23734206.7334
  24554435.953    -2623604.319 7  -2024078.97645  24554438.283    24554448.5964
 00  6 23  3 15 30.0000000  0  8 25 20 22 06 29 16 30 01
  20726734.844   -24786522.747 9 -19298259.27948  20726738.283    20726745.6904
  22036163.662   -14595241.883 8 -11355906.96347  22036168.080    22036177.0654
  21334886.897   -20469277.255 9 -15936192.89147  21334886.609    21334894.7164
  23926762.766    -7093353.721 8  -5517068.64345  23926765.069    23926775.1294
  22786503.965   -11208937.092 8  -8713354.73446  22786509.705    22786518.9254
  24235809.382    -3836646.911 7  -2968542.36545  24235808.377    24235819.7434
  23753101.207    -4431010.348 8  -3435060.92745  23753106.248    23753117.1354
  24536386.039    -2718438.500 7  -2097975.62245  24536392.065    24536402.2254
 00  6 23  3 16  0.0000000  0  8 25 20 22 06 29 16 30 01
  20730147.954   -24768584.178 9 -19284281.17048  20730152.050    20730159.2494
  22030308.879   -14626016.286 8 -11379886.95147  22030312.494    22030320.2114
  21318205.607   -20556928.727 9 -16004492.70247  21318206.696    21318215.6014
  23922087.591    -7117894.178 8  -5536191.01845  23922094.768    23922104.1844
  22802099.671   -11127003.596 8  -8649510.54246  22802101.694    22802110.9124
  24220004.180    -3919677.766 8  -3033241.60645  24220008.940    24220020.5364
  23772051.867    -4331420.058 8  -3357458.12945  23772057.845    23772068.9754
  24518341.392    -2813281.405 8  -2171879.05745  24518344.877    24518354.4264
 00  6 23  3 16 30.0000000  0  8 25 20 22 06 29 16 30 01
  20733605.562   -24750425.218 9 -19270131.32148  20733607.902    20733614.8764
  22024565.450   -14656206.910 8 -11403412.04747  22024567.224    22024575.5574
  21301604.770   -20644167.948 9 -16072471.26547  21301605.780    21301613.9164
  23917506.790    -7141981.620 8  -5554960.39045  23917510.831    23917521.7764
  22817736.296   -11044813.741 8  -8585466.62946  22817742.372    22817751.7864
  24204273.994    -4002342.976 7  -3097655.93645  24204277.964    24204288.2314
  23791039.624    -4231617.417 8  -3279689.86545  23791049.725    23791060.9804
  24500292.884    -2908131.997 8  -2245788.47845  24500294.657    24500305.6724
 00  6 23  3 17  0.0000000  0  8 25 20 22 06 29 16 30 01
  20737101.101   -24732045.937 9 -19255809.79148  20737105.289    20737112.5154
  22018930.879   -14685812.852 8 -11426481.53647  22018933.413    22018941.1084
  21285082.357   -20730992.981 9 -16140127.08347  21285083.192    21285092.0484
  23913011.144    -7165614.393 8  -5573375.51245  23913014.537    23913024.4694
  22833424.223   -10962368.432 8  -8521223.66146  22833430.689    22833440.9514
  24188612.883    -4084639.652 7  -3161783.03845  24188616.874    24188629.0084
  23810069.819    -4131604.887 8  -3201758.04745  23810082.080    23810092.8244
  24482244.994    -3002988.871 8  -2319702.81145  24482243.201    24482253.2694
 00  6 23  3 17 30.0000000  0  8 25 20 22 06 29 16 30 01
  20740641.359   -24713447.109 9 -19241317.19448  20740644.440    20740651.7554
  22013410.123   -14714833.287 8 -11449094.78947  22013410.183    22013418.4984
  21268635.124   -20817401.323 9 -16207458.21147  21268640.035    21268648.9794
  23908605.760    -7188790.807 8  -5591435.04645  23908603.896    23908614.2354
  22849168.864   -10879668.299 8  -8456782.13146  22849168.104    22849178.8324
  24173023.088    -4166565.386 8  -3225621.14545  24173027.643    24173038.7664
  23829154.275    -4031384.896 8  -3123664.57545  23829152.894    23829163.8694
  24464189.593    -3097850.643 8  -2393620.95845  24464191.600    24464202.4454
 00  6 23  3 18  0.0000000  0  8 25 20 22 06 29 16 30 01
  20744223.886   -24694629.547 9 -19226654.14848  20744225.523    20744232.2154
  22007997.262   -14743267.039 8 -11471250.89647  22007999.589    22008008.1444
  21252276.095   -20903390.585 9 -16274462.78547  21252277.106    21252285.8324
  23904275.350    -7211509.447 8  -5609137.85345  23904281.069    23904289.3124
  22864952.941   -10796714.191 8  -8392142.68346  22864954.802    22864964.6034
  24157504.315    -4248117.612 7  -3289168.19645  24157507.414    24157519.6194
  23848258.643    -3930960.030 8  -3045411.45645  23848262.757    23848273.5084
  24446134.563    -3192716.159 7  -2467541.99145  24446137.717    24446151.0894
 00  6 23  3 18 30.0000000  0  8 25 20 22 06 29 16 30 01
  20747845.333   -24675593.109 9 -19211820.55148  20747848.160    20747854.7904
  22002699.057   -14771113.399 8 -11492949.28347  22002700.666    22002709.2094
  21235991.658   -20988958.621 9 -16341139.13247  21235993.881    21236002.8594
  23900039.743    -7233768.549 8  -5626482.57245  23900043.663    23900054.2404
  22880786.758   -10713507.163 8  -8327306.17446  22880788.517    22880797.5534
  24142054.321    -4329293.835 8  -3352422.30545  24142060.860    24142072.4584
  23867401.686    -3830333.218 8  -2967000.97245  23867411.892    23867422.0054
  24428081.840    -3287584.038 7  -2541464.88745  24428085.790    24428096.3994
 00  6 23  3 19  0.0000000  0  8 25 20 22 06 29 16 30 01
  20751509.108   -24656338.429 9 -19196816.89648  20751511.947    20751518.9934
  21997509.100   -14798371.306 8 -11514189.13747  21997513.655    21997521.5914
  21219787.894   -21074103.886 9 -16407486.04347  21219790.945    21219799.9734
  23895894.746    -7255566.667 8  -5643468.09545  23895895.342    23895905.6744
  22896664.610   -10630047.998 8  -8262273.17446  22896670.639    22896679.7304
  24126688.735    -4410091.747 7  -3415381.66445  24126685.103    24126696.7104
  23886599.731    -3729506.797 8  -2888434.92445  23886598.585    23886608.8194
  24410027.420    -3382452.863 7  -2615388.53945  24410033.452    24410043.0354
 00  6 23  3 19 30.0000000  0  8 25 20 22 06 29 16 30 01
  20755214.981   -24636866.038 9 -19181643.59348  20755217.210    20755224.5044
  21992438.319   -14825039.899 8 -11534969.80947  21992438.617    21992447.1364
  21203667.203   -21158824.330 9 -16473501.94047  21203669.097    21203678.0494
  23891832.872    -7276902.457 8  -5660093.36645  23891835.301    23891845.1484
  22912595.842   -10546337.509 8  -8197044.36546  22912599.089    22912610.1884
  24111378.554    -4490508.361 8  -3478043.89045  24111381.990    24111393.8914
  23905827.658    -3628483.124 8  -2809715.21045  23905822.847    23905832.8104
  24391972.253    -3477321.391 7  -2689311.93645  24391979.427    24391991.5214
 00  6 23  3 20  0.0000000  0  8 25 20 22 06 29 16 30 01
  20758959.707   -24617176.595 9 -19166301.16148  20758963.711    20758971.0874
  21987472.208   -14851118.327 8 -11555290.60447  21987475.778    21987484.8894
  21187624.945   -21243117.534 9 -16539184.91847  21187628.841    21187637.6404
  23887859.079    -7297774.310 8  -5676357.15845  23887864.361    23887872.7694
  22928572.098   -10462376.560 8  -8131620.39946  22928576.377    22928585.9254
  24096149.656    -4570541.310 8  -3540407.25045  24096154.117    24096164.8724
  23925075.471    -3527264.992 7  -2730843.98645  23925083.839    23925094.0484
  24373924.478    -3572188.220 7  -2763234.01045  24373927.771    24373939.3264
 00  6 23  3 20 30.0000000  0  8 25 20 22 06 29 16 30 01
  20762748.076   -24597270.406 9 -19150789.83748  20762751.551    20762758.9404
  21982623.632   -14876605.744 8 -11575150.87247  21982626.053    21982633.4764
  21171668.454   -21326981.079 9 -16604533.09447  21171670.196    21171679.5124
  23883978.483    -7318180.941 8  -5692258.45345  23883980.805    23883989.3374
  22944597.372   -10378166.094 8  -8066001.97846  22944601.392    22944611.2574
  24080998.032    -4650188.325 8  -3602469.82645  24080996.412    24081006.9954
  23944381.881    -3425855.141 8  -2651823.34545  23944381.737    23944391.7964
  24355873.629    -3667052.146 8  -2837153.81645  24355876.250    24355886.1094
 00  6 23  3 21  0.0000000  0  8 25 20 22 06 29 16 30 01
  20766576.720   -24577148.104 9 -19135110.11748  20766580.818    20766588.2644
  21977885.923   -14901501.368 8 -11594550.01247  21977888.050    21977897.6134
  21155787.963   -21410413.221 9 -16669545.10747  21155793.713    21155802.9134
  23880179.836    -7338120.874 8  -5707796.07045  23880186.182    23880195.6054
  22960674.748   -10293706.898 8  -8000189.75946  22960674.208    22960684.2524
  24065913.055    -4729446.759 8  -3664229.64345  24065913.509    24065925.7794
  23963711.524    -3324255.959 8  -2572655.17545  23963715.324    23963725.6214
  24337816.085    -3761911.712 7  -2911070.25345  24337824.712    24337835.4234
 00  6 23  3 21 30.0000000  0  8 25 20 22 06 29 16 30 01
  20770447.455   -24556810.083 9 -19119262.30248  20770450.987    20770458.3954
  21973262.629   -14925804.360 8 -11613487.37247  21973263.453    21973272.2254
  21140000.273   -21493412.126 9 -16734219.54247  21139999.527    21140008.5594
  23876483.121    -7357592.708 8  -5722968.94145  23876480.905    23876489.2884
  22976785.742   -10208999.829 8  -7934184.42346  22976793.421    22976802.6704
  24050902.143    -4808313.986 8  -3725684.56245  24050906.214    24050916.9444
  23983081.548    -3222470.146 8  -2493341.55645  23983084.536    23983095.0014
  24319769.759    -3856765.456 7  -2984982.19445  24319775.025    24319785.7804
 00  6 23  3 22  0.0000000  0  8 25 20 22 06 29 16 30 01
  20774359.899   -24536256.570 9 -19103246.56548  20774362.242    20774369.6784
  21968750.687   -14949513.998 8 -11631962.37947  21968752.058    21968760.7604
  21124284.599   -21575975.901 9 -16798554.91647  21124287.768    21124296.7954
  23872862.519    -7376595.003 8  -5737775.93445  23872865.562    23872874.3134
  22992956.826   -10124045.968 8  -7867986.72446  22992959.971    22992969.3444
  24035968.749    -4886787.459 8  -3786832.69045  24035971.978    24035984.8994
  24002481.166    -3120500.288 7  -2413884.55445  24002488.034    24002499.8544
  24301724.074    -3951612.089 8  -3058888.53045  24301726.020    24301736.4064
 00  6 23  3 22 30.0000000  0  8 25 20 22 06 29 16 30 01
  20778311.492   -24515488.380 9 -19087063.55548  20778314.219    20778321.7084
  21964349.005   -14972629.397 8 -11649974.35947  21964353.165    21964361.3004
  21108659.276   -21658102.170 9 -16862549.38747  21108659.848    21108668.3154
  23869335.348    -7395126.385 8  -5752215.98445  23869338.846    23869348.4304
  23009164.429   -10038846.242 8  -7801597.48546  23009171.713    23009182.8354
  24021113.252    -4964865.039 8  -3847672.33345  24021116.321    24021127.3984
  24021930.562    -3018348.905 8  -2334286.13345  24021927.570    24021937.6814
  24283672.917    -4046450.282 7  -3132788.35345  24283677.595    24283690.0814
 00  6 23  3 23  0.0000000  0  8 25 20 22 06 29 16 30 01
  20782304.073   -24494505.815 9 -19070713.50348  20782307.375    20782314.5064
  21960065.267   -14995149.994 8 -11667522.85247  21960067.861    21960075.7514
  21093112.488   -21739788.714 9 -16926201.21847  21093115.266    21093124.1974
  23865899.050    -7413185.512 8  -5766288.02045  23865902.462    23865911.9334
  23025432.927    -9953401.363 8  -7735017.22546  23025432.265    23025442.3044
  24006329.017    -5042544.203 8  -3908201.50745  24006333.530    24006344.3564
  24041398.685    -2916018.275 7  -2254548.01645  24041400.000    24041410.5304
  24265628.555    -4141278.542 8  -3206680.37645  24265633.354    24265643.9864
 00  6 23  3 23 30.0000000  0  8 25 20 22 06 29 16 30 01
  20786338.331   -24473309.161 9 -19054196.62648  20786340.935    20786348.0524
  21955892.454   -15017075.047 8 -11684607.29747  21955895.526    21955904.0524
  21077654.461   -21821033.633 9 -16989508.93747  21077654.950    21077663.3614
  23862553.893    -7430771.035 8  -5779991.03645  23862556.645    23862565.5954
  23041734.993    -9867712.410 8  -7668246.76446  23041738.592    23041748.4774
  23991622.209    -5119822.035 8  -3968417.97345  23991627.385    23991638.2304
  24060893.550    -2813511.012 8  -2174672.24545  24060906.832    24060917.2794
  24247585.570    -4236095.386 8  -3280563.54745  24247589.560    24247600.0584
 00  6 23  3 24  0.0000000  0  8 25 20 22 06 29 16 30 01
  20790410.495   -24451899.107 9 -19037513.46848  20790414.656    20790422.1794
  21951833.467   -15038403.901 9 -11701227.17647  21951836.972    21951845.3154
  21062275.074   -21901835.455 9 -17052471.37747  21062278.725    21062287.5664
  23859295.085    -7447881.632 8  -5793323.97045  23859299.370    23859309.3384
  23058082.554    -9781780.091 8  -7601286.62546  23058090.304    23058101.3984
  23976997.800    -5196696.442 8  -4028320.05045  23976999.836    23977011.3624
  24080440.461    -2710829.734 8  -2094660.89045  24080446.521    24080457.5594
  24229546.780    -4330899.645 8  -3354436.92745  24229548.497    24229558.8674
 00  6 23  3 24 30.0000000  0  8 25 20 22 06 29 16 30 01
  20794526.525   -24430276.014 9 -19020664.31048  20794529.471    20794536.7414
  21947888.147   -15059135.851 8 -11717381.94547  21947892.234    21947899.7574
  21046988.022   -21982192.207 9 -17115087.01147  21046987.631    21046996.1424
  23856135.110    -7464516.066 8  -5806285.85745  23856134.176    23856144.8084
  23074486.228    -9695605.636 8  -7534137.82846  23074489.040    23074499.8524
  23962436.997    -5273165.156 8  -4087905.95445  23962446.820    23962459.5954
  24100017.068    -2607976.859 8  -2014515.83745  24100019.115    24100028.7474
  24211513.100    -4425689.667 8  -3428299.21445  24211512.017    24211523.0724
 00  6 23  3 25  0.0000000  0  8 25 20 22 06 29 16 30 01
  20798681.416   -24408440.297 9 -19003649.46448  20798684.882    20798692.0814
  21944057.469   -15079270.396 9 -11733071.20347  21944059.988    21944068.2264
  21031777.382   -22062101.411 9 -17177353.90247  21031781.176    21031790.3434
  23853058.568    -7480673.074 8  -5818875.73045  23853059.552    23853069.2234
  23090935.878    -9609189.823 8  -7466800.96146  23090934.222    23090944.9934
  23947976.274    -5349225.548 8  -4147173.77445  23947973.863    23947984.4854
  24119617.903    -2504955.206 7  -1934239.25345  24119623.319    24119633.0774
  24193477.312    -4520464.024 7  -3502149.24245  24193475.448    24193488.5324
 00  6 23  3 25 30.0000000  0  8 25 20 22 06 29 16 30 01
  20802878.804   -24386392.210 9 -18986469.14248  20802880.581    20802887.6884
  21940340.979   -15098806.869 9 -11748294.43547  21940342.611    21940350.8454
  21016659.935   -22141561.097 9 -17239270.52647  21016660.384    21016669.8044
  23850071.955    -7496351.443 8  -5831092.59245  23850076.199    23850087.2894
  23107427.253    -9522533.695 8  -7399276.89046  23107425.004    23107435.0784
  23933572.464    -5424875.156 7  -4206121.45245  23933576.843    23933589.2364
  24139260.668    -2401766.993 7  -1853832.90445  24139259.202    24139269.7784
  24175442.504    -4615221.496 8  -3575986.12545  24175444.095    24175456.1834
 00  6 23  3 26  0.0000000  0  8 25 20 22 06 29 16 30 01
  20807112.934   -24364132.460 9 -18969123.88548  20807116.442    20807123.4964
  21936737.119   -15117744.682 9 -11763051.18947  21936739.010    21936747.2264
  21001622.378   -22220569.451 9 -17300835.46747  21001625.742    21001634.7754
  23847183.044    -7511549.838 8  -5842935.49145  23847183.806    23847194.4134
  23123954.889    -9435638.180 8  -7331566.22746  23123960.362    23123971.4504
  23919261.860    -5500111.844 8  -4264747.35745  23919261.288    23919273.3774
  24158926.935    -2298414.803 8  -1773298.77545  24158926.845    24158937.5114
  24157416.584    -4709960.503 8  -3649808.62945  24157416.817    24157427.0624
 00  6 23  3 26 30.0000000  0  8 25 20 22 06 29 16 30 01
  20811390.129   -24341661.565 9 -18951614.10148  20811392.728    20811399.5004
  21933245.702   -15136083.281 8 -11777341.01947  21933248.723    21933257.1314
  20986676.069   -22299125.063 9 -17362047.61547  20986676.849    20986685.8554
  23844378.987    -7526267.134 8  -5854403.48945  23844383.860    23844392.9164
  23140532.849    -9348504.266 8  -7263669.86646  23140539.963    23140552.4204
  23905022.713    -5574932.796 8  -4323049.37245  23905022.910    23905034.0694
  24178621.291    -2194901.279 7  -1692638.92445  24178625.161    24178634.4314
  24139386.826    -4804679.528 8  -3723615.56945  24139391.979    24139402.3964
 00  6 23  3 27  0.0000000  0  8 25 20 22 06 29 16 30 01
  20815704.978   -24318979.530 9 -18933939.79748  20815708.851    20815715.8084
  21929870.366   -15153822.188 8 -11791163.56047  21929873.390    21929881.2654
  20971811.637   -22377225.926 9 -17422905.41147  20971814.845    20971823.6984
  23841670.604    -7540501.856 8  -5865495.46145  23841675.320    23841684.7614
  23157164.644    -9261132.970 8  -7195588.52545  23157166.720    23157177.9894
  23890861.654    -5649335.853 8  -4381025.72545  23890864.456    23890875.3994
  24198347.058    -2091228.958 7  -1611855.33545  24198352.442    24198362.9744
  24121365.072    -4899377.298 7  -3797405.95145  24121370.078    24121381.0934
 00  6 23  3 27 30.0000000  0  8 25 20 22 06 29 16 30 01
  20820062.399   -24296087.102 9 -18916101.55448  20820064.843    20820072.3364
  21926611.011   -15170960.916 9 -11804518.43047  21926612.029    21926620.0504
  20957037.291   -22454869.705 9 -17483407.03847  20957039.582    20957048.6624
  23839059.955    -7554252.805 8  -5876210.47845  23839058.363    23839068.2244
  23173841.490    -9173525.023 8  -7127322.73645  23173838.864    23173849.3084
  23876777.717    -5723318.788 8  -4438674.70245  23876786.623    23876797.0064
  24218106.320    -1987400.040 7  -1530949.73745  24218111.136    24218120.9044
  24103348.968    -4994052.112 7  -3871178.42845  24103354.179    24103366.0844
 00  6 23  3 28  0.0000000  0  8 25 20 22 06 29 16 30 01
  20824456.317   -24272984.773 9 -18898099.74048  20824461.138    20824468.6154
  21923462.880   -15187498.986 9 -11817405.25047  21923465.377    21923472.7254
  20942349.051   -22532054.424 9 -17543550.94947  20942351.977    20942361.0494
  23836532.275    -7567518.968 8  -5886547.72445  23836534.299    23836543.3044
  23190550.557    -9085681.753 8  -7058873.61645  23190554.570    23190566.0994
  23862781.645    -5796878.791 8  -4495994.12045  23862787.363    23862798.6174
  24237900.836    -1883417.045 8  -1449924.04645  24237898.893    24237909.4484
  24085342.518    -5088702.559 8  -3944931.95045  24085343.780    24085354.8554
 00  6 23  3 28 30.0000000  0  8 25 20 22 06 29 16 30 01
  20828894.214   -24249672.624 9 -18879934.43148  20828897.339    20828904.8654
  21920431.866   -15203435.904 9 -11829823.63647  21920432.961    21920440.4334
  20927746.969   -22608778.659 9 -17603336.04047  20927751.927    20927760.4364
  23834104.226    -7580299.261 8  -5896506.36145  23834101.907    23834111.2874
  23207313.559    -8997604.095 8  -6990241.86345  23207316.264    23207326.4784
  23848868.444    -5870013.735 8  -4552982.29345  23848870.509    23848882.3884
  24257717.971    -1779282.783 7  -1368780.49845  24257713.645    24257724.2104
  24067332.066    -5183327.124 8  -4018665.26245  24067336.749    24067347.8464
 00  6 23  3 29  0.0000000  0  8 25 20 22 06 29 16 30 01
  20833369.558   -24226151.203 9 -18861606.05548  20833373.221    20833380.6054
  21917512.905   -15218771.448 9 -11841773.43747  21917514.554    21917522.3424
  20913236.719   -22685040.820 9 -17662761.08047  20913239.888    20913248.4544
  23831758.188    -7592592.658 8  -5906085.61645  23831762.110    23831771.4744
  23224120.308    -8909293.101 8  -6921428.30045  23224121.118    23224131.1674
  23835029.568    -5942721.321 8  -4609637.42545  23835033.940    23835045.9664
  24277550.286    -1674999.373 7  -1287520.73945  24277558.279    24277569.8884
  24049337.991    -5277924.118 8  -4092377.15845  24049335.418    24049344.7844
 00  6 23  3 29 30.0000000  0  8 25 20 22 06 29 16 30 01
  20837885.899   -24202421.041 9 -18843115.02148  20837889.136    20837896.3594
  21914707.026   -15233505.164 8 -11853254.26547  21914710.464    21914718.5284
  20898812.677   -22760838.889 9 -17721824.47747  20898815.467    20898824.9214
  23829512.035    -7604397.947 8  -5915284.50345  23829515.214    23829525.7634
  23240965.972    -8820749.724 8  -6852433.67045  23240969.399    23240980.9934
  23821276.278    -6014999.123 8  -4665957.69645  23821281.354    23821291.9304
  24297426.511    -1570569.273 7  -1206146.69445  24297431.262    24297442.2914
  24031338.192    -5372492.035 8  -4166066.36145  24031340.209    24031350.9234
 00  6 23  3 30  0.0000000  0  8 25 20 22 06 29 16 30 01
  20842438.927   -24178482.543 9 -18824461.63948  20842444.280    20842451.9284
  21912020.367   -15247636.469 9 -11864265.67647  21912021.294    21912029.9594
  20884480.134   -22836170.665 9 -17780524.51947  20884480.479    20884489.4824
  23827363.702    -7615714.235 8  -5924102.35745  23827362.641    23827372.8224
  23257868.963    -8731975.041 8  -6783258.80945  23257864.329    23257875.0334
  23807604.206    -6086844.906 8  -4721941.31045  23807609.273    23807620.4144
  24317325.079    -1465995.322 7  -1124660.54145  24317331.461    24317341.2524
  24013345.816    -5467029.604 8  -4239731.89545  24013350.053    24013360.9374
 00  6 23  3 30 30.0000000  0  8 25 20 22 06 29 16 30 01
  20847036.425   -24154335.826 9 -18805646.01748  20847039.587    20847046.6924
  21909445.785   -15261165.272 8 -11874807.60647  21909447.246    21909454.6504
  20870232.302   -22911034.433 9 -17838859.89247  20870234.417    20870243.4944
  23825301.030    -7626540.337 8  -5932538.23745  23825302.643    23825311.8174
  23274797.344    -8642970.059 8  -6713904.49845  23274801.554    23274811.7854
  23794019.161    -6158256.265 8  -4777586.47845  23794020.187    23794030.0734
  24337243.396    -1361279.575 7  -1043063.89645  24337258.153    24337267.8584
  23995361.389    -5561535.150 8  -4313372.47745  23995367.441    23995375.1624
 00  6 23  3 31  0.0000000  0  8 25 20 22 06 29 16 30 01
  20851670.724   -24129981.620 9 -18786668.70848  20851674.144    20851681.0064
  21906983.844   -15274091.179 8 -11884879.73347  21906985.911    21906995.7324
  20856075.524   -22985428.648 9 -17896829.37847  20856077.725    20856086.7534
  23823330.371    -7636875.044 8  -5940591.21445  23823334.539    23823344.9274
  23291781.409    -8553735.722 8  -6644371.49145  23291782.253    23291792.4214
  23780506.171    -6229231.093 8  -4832891.43645  23780513.515    23780525.8644
  24357207.360    -1256424.559 7   -961358.73245  24357211.007    24357222.1184
  23977386.735    -5656007.298 8  -4386987.08445  23977389.400    23977396.7764
 00  6 23  3 31 30.0000000  0  8 25 20 22 06 29 16 30 01
  20856343.952   -24105420.030 9 -18767529.79548  20856348.045    20856355.0084
  21904639.948   -15286414.012 8 -11894481.94647  21904642.100    21904650.6164
  20842007.929   -23059351.929 9 -17954431.88647  20842010.537    20842019.7174
  23821461.470    -7646717.453 8  -5948260.59045  23821462.086    23821472.1154
  23308803.451    -8464273.388 8  -6574660.84445  23308805.942    23308816.6774
  23767087.173    -6299766.880 8  -4887854.21945  23767090.802    23767103.1964
  24377189.100    -1151432.643 7   -879546.90245  24377190.698    24377201.0814
  23959414.325    -5750444.323 8  -4460574.29245  23959417.450    23959428.3844
 00  6 23  3 32  0.0000000  0  8 25 20 22 06 29 16 30 01
  20861057.567   -24080651.642 9 -18748229.74548  20861061.397    20861068.2674
  21902409.126   -15298133.373 8 -11903613.91247  21902412.095    21902420.7344
  20828032.027   -23132802.177 9 -18011665.81047  20828033.200    20828042.2474
  23819676.957    -7656066.625 8  -5955545.62545  23819682.665    23819692.3904
  23325870.193    -8374583.781 8  -6504773.03945  23325872.468    23325884.6194
  23753749.758    -6369861.238 8  -4942473.06745  23753752.691    23753762.6684
  24397195.648    -1046306.292 7   -797630.31845  24397196.435    24397205.9064
  23941453.279    -5844844.988 8  -4534133.06945  23941453.318    23941464.4364
 00  6 23  3 32 30.0000000  0  8 25 20 22 06 29 16 30 01
  20865811.536   -24055676.709 9 -18728768.74748  20865813.952    20865820.9994
  21900294.190   -15309249.027 8 -11912275.46947  21900296.303    21900305.2014
  20814143.121   -23205777.318 9 -18068529.50847  20814146.407    20814155.2914
  23817992.742    -7664921.486 8  -5962445.49345  23817998.388    23818008.8934
  23342979.300    -8284668.190 8  -6434709.16445  23342984.502    23342995.8344
  23740492.993    -6439512.089 8  -4996746.32745  23740498.609    23740507.8444
  24417225.756     -941048.232 7   -715611.07645  24417225.665    24417235.6004
  23923496.080    -5939207.507 8  -4607662.20445  23923497.848    23923506.0814
 00  6 23  3 33  0.0000000  0  8 25 20 22 06 29 16 30 01
  20870600.827   -24030495.239 9 -18709146.81348  20870605.858    20870612.7514
  21898293.902   -15319760.825 8 -11920466.47747  21898296.042    21898304.3574
  20800346.504   -23278275.700 9 -18125021.72247  20800350.108    20800359.1064
  23816400.283    -7673281.245 8  -5968959.56046  23816407.332    23816418.0684
  23360131.573    -8194527.696 8  -6364470.07545  23360137.239    23360149.2794
  23727326.363    -6508717.134 8  -5050672.21245  23727328.261    23727339.2254
  24437281.736     -835660.838 7   -633491.03545  24437280.390    24437290.3674
  23905548.276    -6033530.331 8  -4681160.47545  23905548.427    23905556.8964
 00  6 23  3 33 30.0000000  0  8 25 20 22 06 29 16 30 01
  20875433.931   -24005108.141 9 -18689364.64548  20875436.623    20875443.6034
  21896407.389   -15329668.446 8 -11928186.69247  21896410.985    21896418.9034
  20786642.777   -23350296.108 9 -18181141.46947  20786645.374    20786654.4274
  23814914.117    -7681144.935 8  -5975087.06445  23814910.637    23814921.8334
  23377331.920    -8104163.302 8  -6294056.50045  23377333.315    23377343.8674
  23714239.957    -6577474.274 8  -5104249.06945  23714245.043    23714256.3054
  24457358.785     -730146.465 7   -551272.05245  24457358.378    24457368.5504
  23887602.788    -6127811.914 8  -4754626.56645  23887607.161    23887617.8824
 00  6 23  3 34  0.0000000  0  8 25 20 22 06 29 16 30 01
  20880304.227   -23979515.848 9 -18669422.58548  20880306.325    20880313.6384
  21894637.510   -15338971.945 8 -11935436.17047  21894640.486    21894648.7684
  20773027.751   -23421836.935 9 -18236887.51647  20773031.336    20773040.4434
  23813504.420    -7688511.513 8  -5980827.22845  23813507.822    23813519.1314
  23394574.917    -8013576.129 8  -6223469.36045  23394571.414    23394582.9854
  23701243.653    -6645781.105 8  -5157475.04145  23701246.416    23701257.0414
  24477458.105     -624507.358 7   -468955.88945  24477461.865    24477471.4024
  23869673.990    -6222050.580 8  -4828059.18345  23869673.422    23869684.6814
 00  6 23  3 34 30.0000000  0  8 25 20 22 06 29 16 30 01
  20885212.653   -23953718.382 9 -18649320.65148  20885215.629    20885223.0364
  21892981.564   -15347671.259 9 -11942214.84847  21892984.809    21892993.4634
  20759510.562   -23492896.323 9 -18292258.41647  20759509.669    20759518.1434
  23812196.937    -7695380.256 8  -5986179.45745  23812201.904    23812212.2544
  23411850.125    -7922767.283 8  -6152709.52345  23411852.954    23411863.4404
  23688332.649    -6713635.430 8  -5210348.38045  23688334.033    23688344.6984
  24497569.357     -518745.895 7   -386544.37045  24497587.326    24497597.9524
  23851741.336    -6316244.583 8  -4901457.04045  23851748.827    23851759.1954
 00  6 23  3 35  0.0000000  0  8 25 20 22 06 29 16 30 01
  20890160.369   -23927716.297 9 -18629059.27848  20890163.602    20890171.0714
  21891440.348   -15355766.177 8 -11948522.57747  21891444.237    21891452.6794
  20746077.350   -23563472.229 9 -18347252.57647  20746079.478    20746088.0224
  23810985.128    -7701750.012 8  -5991142.88245  23810990.074    23810999.8384
  23429172.375    -7831737.993 8  -6081777.89545  23429175.649    23429185.9534
  23675505.257    -6781035.163 8  -5262867.54246  23675508.561    23675518.4714
  24517729.125     -412864.569 7   -304039.47945  24517736.126    24517745.9184
  23833833.522    -6410392.467 8  -4974818.96745  23833833.268    23833843.9074
 00  6 23  3 35 30.0000000  0  8 25 20 22 06 29 16 30 01
  20895147.540   -23901510.056 9 -18608638.81048  20895150.510    20895157.7344
  21890014.398   -15363256.671 8 -11954359.32047  21890019.076    21890028.1904
  20732740.612   -23633563.183 9 -18401868.84047  20732741.489    20732750.0264
  23809871.914    -7707619.995 8  -5995716.84445  23809872.135    23809882.8884
  23446537.832    -7740489.061 8  -6010675.07345  23446539.193    23446550.6124
  23662762.084    -6847977.807 8  -5315030.51345  23662768.946    23662779.4564
  24537893.651     -306865.626 7   -221442.91945  24537906.358    24537915.4674
  23815921.039    -6504492.530 8  -5048143.60046  23815926.800    23815938.6804
 00  6 23  3 36  0.0000000  0  8 25 20 22 06 29 16 30 01
  20900173.583   -23875099.945 9 -18588059.48448  20900176.341    20900183.2964
  21888706.947   -15370142.666 9 -11959725.03047  21888709.437    21888717.6674
  20719495.158   -23703167.966 9 -18456106.26747  20719495.985    20719504.9094
  23808848.618    -7712989.496 8  -5999900.84845  23808851.059    23808861.0864
  23463942.336    -7649021.934 8  -5939402.31545  23463944.715    23463956.8864
  23650117.739    -6914461.632 8  -5366835.96845  23650117.770    23650127.7174
  24558084.521     -200751.651 7   -138756.70645  24558097.965    24558109.8444
  23798024.065    -6598543.010 8  -5121429.64145  23798028.111    23798039.8324
 00  6 23  3 36 30.0000000  0  7 25 20 22 06 29 16 01
  20905238.550   -23848486.163 9 -18567321.45348  20905241.064    20905247.7344
  21887511.819   -15376424.159 8 -11964619.69347  21887513.915    21887522.1704
  20706340.469   -23772285.087 9 -18509963.69547  20706343.888    20706352.0424
  23807917.090    -7717857.729 8  -6003694.24345  23807924.083    23807935.0004
  23481391.552    -7557337.446 7  -5867960.16345  23481391.954    23481403.8574
  23637549.312    -6980484.270 8  -5418282.13945  23637554.386    23637564.3804
  23780138.653    -6692542.503 8  -5194675.89645  23780140.803    23780152.6954
 00  6 23  3 37  0.0000000  0  7 25 20 22 06 29 16 01
  20910341.160   -23821669.074 9 -18546424.99748  20910344.179    20910350.9024
  21886428.820   -15382100.967 8 -11969043.17547  21886432.658    21886441.8694
  20693282.210   -23840912.540 9 -18563439.56847  20693284.104    20693292.3924
  23807097.769    -7722224.026 8  -6007096.53045  23807094.497    23807104.5384
  23498873.004    -7465436.923 7  -5796349.67545  23498879.952    23498893.0164
  23625074.364    -7046043.662 8  -5469367.27645  23625077.507    23625089.6774
  23762261.935    -6786489.433 8  -5267881.23245  23762264.240    23762275.2574
 00  6 23  3 37 30.0000000  0  7 25 20 22 06 29 16 01
  20915481.480   -23794649.297 9 -18525370.60848  20915485.761    20915492.3624
  21885466.260   -15387173.465 9 -11972995.76247  21885468.383    21885476.1984
  20680316.294   -23909048.674 9 -18616532.59447  20680318.445    20680326.8334
  23806357.831    -7726087.900 8  -6010107.29145  23806359.310    23806368.8084
  23516406.940    -7373321.703 8  -5724571.89545  23516409.827    23516421.5534
  23612690.677    -7111137.304 8  -5520089.49846  23612691.244    23612703.0734
  23744394.213    -6880382.066 8  -5341044.25145  23744397.183    23744407.7574
 00  6 23  3 38  0.0000000  0  7 25 20 22 06 29 16 01
  20920663.035   -23767426.417 9 -18504157.95248  20920665.846    20920672.3494
  21884614.284   -15391641.549 9 -11976477.38547  21884618.221    21884626.1984
  20667445.894   -23976691.999 9 -18669241.60247  20667446.161    20667454.7264
  23805714.602    -7729448.149 8  -6012725.65745  23805718.851    23805728.6674
  23533977.451    -7280992.644 8  -5652627.45045  23533979.592    23533992.1844
  23600390.706    -7175763.432 8  -5570447.47045  23600392.845    23600403.0164
  23726529.009    -6974218.724 8  -5414163.64745  23726540.792    23726550.5974
 00  6 23  3 38 30.0000000  0  7 25 20 22 06 29 16 01
  20925879.185   -23740001.484 9 -18482787.85448  20925884.350    20925891.4124
  21883878.508   -15395505.222 9 -11979488.02447  21883883.106    21883890.8754
  20654666.340   -24043841.389 9 -18721565.72547  20654667.727    20654676.4414
  23805170.123    -7732304.019 8  -6014950.94845  23805174.819    23805184.9644
  23551590.098    -7188451.105 8  -5580517.52245  23551590.344    23551602.0194
  23588188.059    -7239919.709 8  -5620439.36545  23588185.441    23588196.2174
  23708696.560    -7067997.595 8  -5487238.06946  23708695.695    23708704.8994
 00  6 23  3 39  0.0000000  0  7 25 20 22 06 29 16 01
  20931138.834   -23712374.446 9 -18461260.26548  20931141.719    20931148.8154
  21883260.028   -15398764.888 9 -11982028.00947  21883262.531    21883270.8534
  20641981.603   -24110495.402 9 -18773503.83847  20641983.859    20641992.5084
  23804721.302    -7734654.951 8  -6016782.82145  23804728.087    23804738.4114
  23569234.424    -7095698.346 8  -5508242.96445  23569240.910    23569251.5164
  23576057.501    -7303604.185 8  -5670063.54746  23576065.195    23576077.0834
  23690859.381    -7161717.201 8  -5560266.24846  23690860.056    23690871.2654
 00  6 23  3 39 30.0000000  0  7 25 20 22 06 29 16 01
  20936433.790   -23684545.837 9 -18439575.61148  20936437.310    20936444.3884
  21882757.664   -15401420.484 9 -11984097.30047  21882757.362    21882765.2874
  20629391.906   -24176652.150 9 -18825054.47847  20629394.635    20629403.1694
  23804374.603    -7736500.343 8  -6018220.75846  23804377.896    23804387.3804
  23586932.438    -7002735.302 8  -5435804.54545  23586929.616    23586942.8554
  23564036.024    -7366814.692 8  -5719318.46146  23564037.279    23564048.1554
  23673033.360    -7255375.600 8  -5633246.72946  23673037.281    23673048.0294
 00  6 23  3 40  0.0000000  0  7 25 20 22 06 29 16 01
  20941766.798   -23656516.153 9 -18417734.27648  20941771.112    20941778.2664
  21882365.524   -15403472.190 9 -11985696.02147  21882366.956    21882374.4994
  20616896.227   -24242309.968 9 -18876216.33347  20616900.156    20616908.7934
  23804119.572    -7737839.418 8  -6019264.16845  23804122.456    23804131.2554
  23604665.029    -6909563.230 8  -5363203.32045  23604661.340    23604672.8884
  23552100.355    -7429549.138 8  -5768202.39346  23552099.321    23552110.2934
  23655225.371    -7348971.298 8  -5706178.36146  23655227.268    23655237.6284
 00  6 23  3 40 30.0000000  0  7 25 20 22 06 29 16 01
  20947140.577   -23628285.569 9 -18395736.39648  20947143.374    20947150.3054
  21882088.876   -15404920.261 9 -11986824.36947  21882090.946    21882098.7114
  20604497.705   -24307467.648 9 -18926988.47748  20604501.301    20604509.6724
  23803966.541    -7738671.501 8  -6019912.51645  23803964.157    23803972.5124
  23622422.065    -6816183.458 7  -5290440.23645  23622430.096    23622443.0794
  23540246.671    -7491805.644 8  -5816713.95246  23540254.050    23540263.8344
  23637420.200    -7442502.561 8  -5779059.78646  23637427.703    23637439.4924
 00  6 23  3 41  0.0000000  0  7 25 20 22 06 29 16 01
  20952549.194   -23599854.307 9 -18373582.14748  20952553.501    20952560.8034
  21881928.578   -15405764.945 9 -11987482.54947  21881930.889    21881938.2624
  20592195.017   -24372124.113 9 -18977370.06748  20592197.487    20592205.9754
  23803892.100    -7738996.123 8  -6020165.45245  23803901.460    23803910.4024
  23640234.120    -6722597.115 7  -5217516.23845  23640240.231    23640252.9494
  23528496.595    -7553582.056 8  -5864851.38446  23528495.918    23528507.7654
  23619636.422    -7535967.514 8  -5851889.51346  23619642.165    23619652.3374
 00  6 23  3 41 30.0000000  0  7 25 20 22 06 29 16 01
  20957999.972   -23571222.709 9 -18351271.79948  20958002.105    20958009.3254
  21881879.469   -15406006.447 9 -11987670.72747  21881884.396    21881892.0644
  20579986.077   -24436277.907 9 -19027359.95748  20579989.153    20579998.3384
  23803934.024    -7738812.639 8  -6020022.44545  23803937.319    23803945.6524
  23658086.406    -6628805.297 7  -5144432.06345  23658088.416    23658101.6834
  23516827.653    -7614876.380 8  -5912613.18746  23516831.992    23516844.0884
  23601866.527    -7629364.487 8  -5924666.27946  23601870.085    23601879.4874
 00  6 23  3 42  0.0000000  0  7 25 20 22 06 29 16 01
  20963484.753   -23542391.023 9 -18328805.52448  20963488.652    20963495.6314
  21881949.543   -15405644.870 9 -11987388.96347  21881953.327    21881961.0934
  20567875.317   -24499927.179 9 -19076956.70848  20567876.975    20567885.8444
  23804061.902    -7738120.249 8  -6019482.92245  23804068.912    23804078.4524
  23675975.666    -6534809.350 8  -5071188.86045  23675976.653    23675988.4404
  23505258.532    -7675686.469 8  -5959997.67546  23505262.023    23505272.0754
  23584108.432    -7722691.799 8  -5997388.81346  23584110.492    23584120.5064
 00  6 23  3 42 30.0000000  0  7 25 20 22 06 29 16 01
  20969009.396   -23513359.694 9 -18306183.68548  20969013.290    20969020.1044
  21882132.358   -15404680.758 9 -11986637.70447  21882136.296    21882144.9934
  20555859.323   -24563070.503 9 -19126159.21948  20555861.056    20555870.1414
  23804293.737    -7736918.552 8  -6018546.53045  23804296.474    23804307.3394
  23693896.986    -6440610.469 8  -4997787.49045  23693901.705    23693915.8514
  23493781.374    -7736010.246 8  -6007003.20446  23493781.841    23493792.6534
  23566368.156    -7815947.895 8  -6070055.82146  23566364.272    23566374.4264
 00  6 23  3 43  0.0000000  0  7 25 20 22 06 29 16 01
  20974572.177   -23484129.033 9 -18283406.52848  20974575.565    20974582.2064
  21882432.371   -15403114.343 9 -11985417.12947  21882434.526    21882442.7074
  20543937.196   -24625706.663 9 -19174966.52148  20543941.505    20543950.6434
  23804614.833    -7735206.831 8  -6017212.68845  23804622.526    23804633.3614
  23711854.520    -6346209.753 7  -4924228.89545  23711865.488    23711879.5514
  23482391.724    -7795845.957 8  -6053628.42946  23482395.997    23482405.6544
  23548629.534    -7909130.641 8  -6142665.63946  23548632.383    23548643.1734
 00  6 23  3 43 30.0000000  0  7 25 20 22 06 29 16 01
  20980173.384   -23454699.142 9 -18260474.12148  20980175.749    20980182.4744
  21882845.256   -15400946.007 9 -11983727.51147  21882847.827    21882855.6474
  20532117.479   -24687834.809 9 -19223377.98148  20532119.274    20532127.8844
  23805045.418    -7732984.732 8  -6015481.18445  23805045.997    23805056.5964
  23729859.738    -6251608.658 8  -4850514.07645  23729868.402    23729881.3524
  23471098.558    -7855191.729 8  -6099871.86046  23471101.744    23471113.6944
  23530909.546    -8002238.471 8  -6215217.13046  23530914.587    23530923.3964
